Time,TemperatureF,DewpointF,PressureIn,WindDirection,WindDirectionDegrees,WindSpeedMPH,WindSpeedGustMPH,Humidity,HourlyPrecipIn,Conditions,Clouds,dailyrainin,SolarRadiationWatts/m^2,SoftwareType,DateUTC
2013-11-25 00:00:00,28.0,15.9,30.35,SE,131,3.2,9.2,60,0.00,CLR,,0.00,0.0,WeatherDisplay:10.37,2013-11-25 06:00:00,
2013-11-25 00:02:00,28.0,15.9,30.35,South,184,2.3,3.5,60,0.00,CLR,,0.00,0.0,WeatherDisplay:10.37,2013-11-25 06:02:00,
2013-11-25 00:03:00,28.1,16.0,30.35,SSE,161,3.4,8.1,60,0.00,CLR,,0.00,0.0,WeatherDisplay:10.37,2013-11-25 06:03:00,
2013-11-25 00:06:00,28.1,16.0,30.34,SSW,207,3.7,6.9,60,0.00,CLR,,0.00,0.0,WeatherDisplay:10.37,2013-11-25 06:06:00,
2013-11-25 00:07:00,28.1,16.0,30.34,South,169,0.9,6.9,60,0.00,CLR,,0.00,0.0,WeatherDisplay:10.37,2013-11-25 06:07:00,
2013-11-25 00:08:00,28.1,16.0,30.34,South,174,0.3,6.9,60,0.00,CLR,,0.00,0.0,WeatherDisplay:10.37,2013-11-25 06:08:00,
2013-11-25 00:09:00,28.1,16.0,30.34,SSW,201,2.5,6.0,60,0.00,CLR,,0.00,0.0,WeatherDisplay:10.37,2013-11-25 06:09:00,
2013-11-25 00:12:00,28.2,16.1,30.34,SSE,155,3.7,6.9,60,0.00,CLR,,0.00,0.0,WeatherDisplay:10.37,2013-11-25 06:12:00,
2013-11-25 00:13:00,28.1,16.0,30.34,South,182,2.7,5.8,60,0.00,CLR,,0.00,0.0,WeatherDisplay:10.37,2013-11-25 06:13:00,
2013-11-25 00:14:00,28.2,16.1,30.34,SSE,155,2.6,6.9,60,0.00,CLR,,0.00,0.0,WeatherDisplay:10.37,2013-11-25 06:14:00,
2013-11-25 00:17:00,28.2,16.1,30.34,SW,222,2.2,3.5,60,0.00,CLR,,0.00,0.0,WeatherDisplay:10.37,2013-11-25 06:17:00,
2013-11-25 00:18:00,28.2,16.1,30.34,SE,143,1.5,5.8,60,0.00,CLR,,0.00,0.0,WeatherDisplay:10.37,2013-11-25 06:18:00,
2013-11-25 00:19:00,28.2,16.1,30.34,SSE,153,3.7,5.8,60,0.00,CLR,,0.00,0.0,WeatherDisplay:10.37,2013-11-25 06:19:00,
2013-11-25 00:22:00,28.2,16.1,30.34,SSE,159,2.8,4.6,60,0.00,CLR,,0.00,0.0,WeatherDisplay:10.37,2013-11-25 06:22:00,
2013-11-25 00:23:00,28.3,16.2,30.34,SSE,155,3.1,4.6,60,0.00,CLR,,0.00,0.0,WeatherDisplay:10.37,2013-11-25 06:23:00,
2013-11-25 00:24:00,28.3,16.2,30.34,SSE,157,3.7,6.9,60,0.00,CLR,,0.00,0.0,WeatherDisplay:10.37,2013-11-25 06:24:00,
2013-11-25 00:28:00,28.3,16.2,30.34,South,175,2.7,5.8,60,0.00,CLR,,0.00,0.0,WeatherDisplay:10.37,2013-11-25 06:28:00,
2013-11-25 00:29:00,28.3,16.2,30.33,SE,143,3.0,5.8,60,0.00,CLR,,0.00,0.0,WeatherDisplay:10.37,2013-11-25 06:29:00,
2013-11-25 00:33:00,28.3,16.2,30.33,SSE,159,4.4,9.2,60,0.00,CLR,,0.00,0.0,WeatherDisplay:10.37,2013-11-25 06:33:00,
2013-11-25 00:34:00,28.3,16.2,30.33,SE,126,3.9,8.0,60,0.00,CLR,,0.00,0.0,WeatherDisplay:10.37,2013-11-25 06:34:00,
2013-11-25 00:35:00,28.3,16.2,30.33,South,175,2.0,9.2,60,0.00,CLR,,0.00,0.0,WeatherDisplay:10.37,2013-11-25 06:35:00,
2013-11-25 00:38:00,28.4,16.3,30.33,South,169,4.5,5.8,60,0.00,CLR,,0.00,0.0,WeatherDisplay:10.37,2013-11-25 06:38:00,
2013-11-25 00:39:00,28.4,16.3,30.33,South,185,2.2,6.9,60,0.00,CLR,,0.00,0.0,WeatherDisplay:10.37,2013-11-25 06:39:00,
2013-11-25 00:40:00,28.4,16.3,30.33,South,184,1.6,4.6,60,0.00,CLR,,0.00,0.0,WeatherDisplay:10.37,2013-11-25 06:40:00,
2013-11-25 00:41:00,28.4,16.3,30.33,SSE,150,0.7,4.6,60,0.00,CLR,,0.00,0.0,WeatherDisplay:10.37,2013-11-25 06:41:00,
2013-11-25 00:43:00,28.4,16.3,30.33,SSE,160,3.2,5.8,60,0.00,CLR,,0.00,0.0,WeatherDisplay:10.37,2013-11-25 06:43:00,
2013-11-25 00:44:00,28.4,16.3,30.33,SSE,158,4.9,6.9,60,0.00,CLR,,0.00,0.0,WeatherDisplay:10.37,2013-11-25 06:44:00,
2013-11-25 00:45:00,28.4,16.3,30.33,SSW,194,3.8,8.1,60,0.00,CLR,,0.00,0.0,WeatherDisplay:10.37,2013-11-25 06:45:00,
2013-11-25 00:46:00,28.4,16.3,30.33,South,176,2.6,8.1,60,0.00,CLR,,0.00,0.0,WeatherDisplay:10.37,2013-11-25 06:46:00,
2013-11-25 00:48:00,28.4,16.3,30.33,South,179,1.1,3.5,60,0.00,CLR,,0.00,0.0,WeatherDisplay:10.37,2013-11-25 06:48:00,
2013-11-25 00:49:00,28.4,16.3,30.33,SSW,192,1.4,4.0,60,0.00,CLR,,0.00,0.0,WeatherDisplay:10.37,2013-11-25 06:49:00,
2013-11-25 00:50:00,28.4,16.3,30.33,SSE,155,4.1,6.9,60,0.00,CLR,,0.00,0.0,WeatherDisplay:10.37,2013-11-25 06:50:00,
2013-11-25 00:51:00,28.4,16.3,30.33,SSW,201,3.1,6.9,60,0.00,CLR,,0.00,0.0,WeatherDisplay:10.37,2013-11-25 06:51:00,
2013-11-25 00:52:00,28.4,16.3,30.32,SSE,152,3.9,5.8,60,0.00,CLR,,0.00,0.0,WeatherDisplay:10.37,2013-11-25 06:52:00,
2013-11-25 00:53:00,28.4,16.3,30.32,South,176,3.7,6.9,60,0.00,CLR,,0.00,0.0,WeatherDisplay:10.37,2013-11-25 06:53:00,
2013-11-25 00:54:00,28.4,16.3,30.32,SSE,163,3.5,6.9,60,0.00,CLR,,0.00,0.0,WeatherDisplay:10.37,2013-11-25 06:54:00,
2013-11-25 00:55:00,28.4,16.3,30.32,SE,140,4.0,5.8,60,0.00,CLR,,0.00,0.0,WeatherDisplay:10.37,2013-11-25 06:55:00,
2013-11-25 00:56:00,28.4,16.3,30.32,SSE,163,3.4,5.8,60,0.00,CLR,,0.00,0.0,WeatherDisplay:10.37,2013-11-25 06:56:00,
2013-11-25 00:57:00,28.4,16.3,30.32,South,177,0.7,3.5,60,0.00,CLR,,0.00,0.0,WeatherDisplay:10.37,2013-11-25 06:57:00,
2013-11-25 00:59:00,28.5,16.7,30.32,South,175,2.7,8.1,61,0.00,CLR,,0.00,0.0,WeatherDisplay:10.37,2013-11-25 06:59:00,
2013-11-25 01:00:00,28.5,16.7,30.32,South,171,3.0,5.8,61,0.00,CLR,,0.00,0.0,WeatherDisplay:10.37,2013-11-25 07:00:00,
2013-11-25 01:01:00,28.5,16.7,30.32,South,178,2.3,4.6,61,0.00,CLR,,0.00,0.0,WeatherDisplay:10.37,2013-11-25 07:01:00,
2013-11-25 01:03:00,28.5,16.7,30.32,SSW,197,3.5,6.9,61,0.00,CLR,,0.00,0.0,WeatherDisplay:10.37,2013-11-25 07:03:00,
2013-11-25 01:04:00,28.5,16.4,30.32,SSW,199,2.9,6.0,60,0.00,CLR,,0.00,0.0,WeatherDisplay:10.37,2013-11-25 07:04:00,
2013-11-25 01:05:00,28.5,16.7,30.32,SSE,156,2.9,5.8,61,0.00,CLR,,0.00,0.0,WeatherDisplay:10.37,2013-11-25 07:05:00,
2013-11-25 01:06:00,28.5,16.7,30.32,SSE,165,2.0,3.5,61,0.00,CLR,,0.00,0.0,WeatherDisplay:10.37,2013-11-25 07:06:00,
2013-11-25 01:08:00,28.5,16.7,30.32,SSE,161,2.5,5.8,61,0.00,CLR,,0.00,0.0,WeatherDisplay:10.37,2013-11-25 07:08:00,
2013-11-25 01:09:00,28.5,16.4,30.32,South,172,0.9,3.5,60,0.00,CLR,,0.00,0.0,WeatherDisplay:10.37,2013-11-25 07:09:00,
2013-11-25 01:10:00,28.5,16.4,30.32,SSE,159,1.9,3.5,60,0.00,CLR,,0.00,0.0,WeatherDisplay:10.37,2013-11-25 07:10:00,
2013-11-25 01:11:00,28.5,16.7,30.32,SSE,151,2.9,3.5,61,0.00,CLR,,0.00,0.0,WeatherDisplay:10.37,2013-11-25 07:11:00,
2013-11-25 01:13:00,28.6,16.5,30.32,SE,144,2.7,6.0,60,0.00,CLR,,0.00,0.0,WeatherDisplay:10.37,2013-11-25 07:13:00,
2013-11-25 01:15:00,28.6,16.5,30.32,South,185,3.8,6.9,60,0.00,CLR,,0.00,0.0,WeatherDisplay:10.37,2013-11-25 07:15:00,
2013-11-25 01:16:00,28.6,16.8,30.31,SSW,200,2.4,4.6,61,0.00,CLR,,0.00,0.0,WeatherDisplay:10.37,2013-11-25 07:16:00,
2013-11-25 01:18:00,28.6,16.5,30.31,SSW,193,0.4,2.0,60,0.00,CLR,,0.00,0.0,WeatherDisplay:10.37,2013-11-25 07:18:00,
2013-11-25 01:20:00,28.6,16.8,30.31,South,182,0.7,3.5,61,0.00,CLR,,0.00,0.0,WeatherDisplay:10.37,2013-11-25 07:20:00,
2013-11-25 01:21:00,28.7,16.9,30.31,SSE,165,3.0,3.5,61,0.00,CLR,,0.00,0.0,WeatherDisplay:10.37,2013-11-25 07:21:00,
2013-11-25 01:22:00,28.6,16.8,30.31,SE,132,3.3,4.6,61,0.00,CLR,,0.00,0.0,WeatherDisplay:10.37,2013-11-25 07:22:00,
2013-11-25 01:24:00,28.7,16.6,30.31,South,184,3.1,5.8,60,0.00,CLR,,0.00,0.0,WeatherDisplay:10.37,2013-11-25 07:24:00,
2013-11-25 01:25:00,28.6,16.5,30.31,SSE,147,2.7,6.9,60,0.00,CLR,,0.00,0.0,WeatherDisplay:10.37,2013-11-25 07:25:00,
2013-11-25 01:27:00,28.6,16.5,30.31,South,184,0.7,3.5,60,0.00,CLR,,0.00,0.0,WeatherDisplay:10.37,2013-11-25 07:27:00,
2013-11-25 01:29:00,28.7,16.9,30.31,ESE,120,2.9,4.6,61,0.00,CLR,,0.00,0.0,WeatherDisplay:10.37,2013-11-25 07:29:00,
2013-11-25 01:30:00,28.7,16.9,30.31,SE,136,2.9,5.8,61,0.00,CLR,,0.00,0.0,WeatherDisplay:10.37,2013-11-25 07:30:00,
2013-11-25 01:31:00,28.7,16.9,30.31,South,182,2.9,5.8,61,0.00,CLR,,0.00,0.0,WeatherDisplay:10.37,2013-11-25 07:31:00,
2013-11-25 01:32:00,28.7,16.9,30.31,South,188,3.6,5.8,61,0.00,CLR,,0.00,0.0,WeatherDisplay:10.37,2013-11-25 07:32:00,
2013-11-25 01:33:00,28.7,16.9,30.30,ESE,122,1.8,3.5,61,0.00,CLR,,0.00,0.0,WeatherDisplay:10.37,2013-11-25 07:33:00,
2013-11-25 01:34:00,28.7,16.9,30.30,SE,141,4.2,5.0,61,0.00,CLR,,0.00,0.0,WeatherDisplay:10.37,2013-11-25 07:34:00,
2013-11-25 01:36:00,28.7,16.9,30.30,SE,140,4.0,6.9,61,0.00,CLR,,0.00,0.0,WeatherDisplay:10.37,2013-11-25 07:36:00,
2013-11-25 01:37:00,28.7,16.9,30.30,SSW,196,3.1,5.8,61,0.00,CLR,,0.00,0.0,WeatherDisplay:10.37,2013-11-25 07:37:00,
2013-11-25 01:38:00,28.7,16.9,30.30,SSE,165,2.2,4.6,61,0.00,CLR,,0.00,0.0,WeatherDisplay:10.37,2013-11-25 07:38:00,
2013-11-25 01:40:00,28.7,16.9,30.30,SSE,151,1.5,3.5,61,0.00,CLR,,0.00,0.0,WeatherDisplay:10.37,2013-11-25 07:40:00,
2013-11-25 01:41:00,28.7,16.9,30.30,SSE,151,0.1,2.3,61,0.00,CLR,,0.00,0.0,WeatherDisplay:10.37,2013-11-25 07:41:00,
2013-11-25 01:42:00,28.7,16.9,30.30,South,183,1.8,4.0,61,0.00,CLR,,0.00,0.0,WeatherDisplay:10.37,2013-11-25 07:42:00,
2013-11-25 01:43:00,28.8,17.0,30.30,SE,131,1.6,3.5,61,0.00,CLR,,0.00,0.0,WeatherDisplay:10.37,2013-11-25 07:43:00,
2013-11-25 01:45:00,28.8,17.0,30.30,South,181,2.6,4.6,61,0.00,CLR,,0.00,0.0,WeatherDisplay:10.37,2013-11-25 07:45:00,
2013-11-25 01:46:00,28.8,17.0,30.30,South,180,1.1,3.5,61,0.00,CLR,,0.00,0.0,WeatherDisplay:10.37,2013-11-25 07:46:00,
2013-11-25 01:47:00,28.8,17.0,30.30,SSE,162,1.0,3.5,61,0.00,CLR,,0.00,0.0,WeatherDisplay:10.37,2013-11-25 07:47:00,
2013-11-25 01:48:00,28.8,17.0,30.30,South,174,3.0,5.8,61,0.00,CLR,,0.00,0.0,WeatherDisplay:10.37,2013-11-25 07:48:00,
2013-11-25 01:50:00,28.8,17.0,30.30,South,187,1.8,3.5,61,0.00,CLR,,0.00,0.0,WeatherDisplay:10.37,2013-11-25 07:50:00,
2013-11-25 01:51:00,28.8,17.0,30.30,SSW,194,2.0,7.0,61,0.00,CLR,,0.00,0.0,WeatherDisplay:10.37,2013-11-25 07:51:00,
2013-11-25 01:52:00,28.8,17.0,30.29,SSW,195,3.4,6.9,61,0.00,CLR,,0.00,0.0,WeatherDisplay:10.37,2013-11-25 07:52:00,
2013-11-25 01:53:00,28.8,17.0,30.29,South,184,2.1,6.9,61,0.00,CLR,,0.00,0.0,WeatherDisplay:10.37,2013-11-25 07:53:00,
2013-11-25 01:56:00,28.8,17.0,30.29,SSE,148,1.8,6.0,61,0.00,CLR,,0.00,0.0,WeatherDisplay:10.37,2013-11-25 07:56:00,
2013-11-25 01:57:00,28.8,17.0,30.29,SSW,194,2.8,5.8,61,0.00,CLR,,0.00,0.0,WeatherDisplay:10.37,2013-11-25 07:57:00,
2013-11-25 01:59:00,28.8,17.0,30.29,South,184,1.7,3.5,61,0.00,CLR,,0.00,0.0,WeatherDisplay:10.37,2013-11-25 07:59:00,
2013-11-25 02:02:00,28.9,17.1,30.29,SSE,158,1.2,3.5,61,0.00,CLR,,0.00,0.0,WeatherDisplay:10.37,2013-11-25 08:02:00,
2013-11-25 02:03:00,28.9,17.1,30.29,SSW,192,2.1,3.5,61,0.00,CLR,,0.00,0.0,WeatherDisplay:10.37,2013-11-25 08:03:00,
2013-11-25 02:04:00,28.9,17.1,30.29,South,171,2.2,4.6,61,0.00,CLR,,0.00,0.0,WeatherDisplay:10.37,2013-11-25 08:04:00,
2013-11-25 02:05:00,28.9,17.1,30.29,SSW,192,1.8,5.0,61,0.00,CLR,,0.00,0.0,WeatherDisplay:10.37,2013-11-25 08:05:00,
2013-11-25 02:07:00,28.9,17.1,30.29,South,182,2.6,3.5,61,0.00,CLR,,0.00,0.0,WeatherDisplay:10.37,2013-11-25 08:07:00,
2013-11-25 02:08:00,28.9,17.1,30.29,South,180,2.1,3.5,61,0.00,CLR,,0.00,0.0,WeatherDisplay:10.37,2013-11-25 08:08:00,
2013-11-25 02:09:00,28.9,17.1,30.29,SSW,196,1.5,3.5,61,0.00,CLR,,0.00,0.0,WeatherDisplay:10.37,2013-11-25 08:09:00,
2013-11-25 02:10:00,28.9,17.1,30.29,SSE,163,2.6,3.5,61,0.00,CLR,,0.00,0.0,WeatherDisplay:10.37,2013-11-25 08:10:00,
2013-11-25 02:12:00,29.0,17.2,30.29,SSW,198,3.4,4.6,61,0.00,CLR,,0.00,0.0,WeatherDisplay:10.37,2013-11-25 08:12:00,
2013-11-25 02:13:00,28.9,17.1,30.30,South,186,3.8,5.8,61,0.00,CLR,,0.00,0.0,WeatherDisplay:10.37,2013-11-25 08:13:00,
2013-11-25 02:14:00,29.0,17.2,30.29,South,178,2.1,5.8,61,0.00,CLR,,0.00,0.0,WeatherDisplay:10.37,2013-11-25 08:14:00,
2013-11-25 02:15:00,29.0,17.2,30.29,South,178,2.2,4.6,61,0.00,CLR,,0.00,0.0,WeatherDisplay:10.37,2013-11-25 08:15:00,
2013-11-25 02:17:00,29.0,17.2,30.29,South,175,2.3,3.5,61,0.00,CLR,,0.00,0.0,WeatherDisplay:10.37,2013-11-25 08:17:00,
2013-11-25 02:18:00,29.0,17.2,30.29,South,180,2.0,5.8,61,0.00,CLR,,0.00,0.0,WeatherDisplay:10.37,2013-11-25 08:18:00,
2013-11-25 02:19:00,29.0,17.6,30.29,SSE,163,0.5,5.8,62,0.00,CLR,,0.00,0.0,WeatherDisplay:10.37,2013-11-25 08:19:00,
2013-11-25 02:20:00,29.0,17.6,30.29,SSE,161,0.6,2.3,62,0.00,CLR,,0.00,0.0,WeatherDisplay:10.37,2013-11-25 08:20:00,
2013-11-25 02:22:00,29.0,17.2,30.29,South,171,0.0,2.3,61,0.00,CLR,,0.00,0.0,WeatherDisplay:10.37,2013-11-25 08:22:00,
2013-11-25 02:23:00,29.0,17.6,30.29,SSE,163,0.6,1.2,62,0.00,CLR,,0.00,0.0,WeatherDisplay:10.37,2013-11-25 08:23:00,
2013-11-25 02:25:00,29.1,17.7,30.29,SSE,159,2.2,6.9,62,0.00,CLR,,0.00,0.0,WeatherDisplay:10.37,2013-11-25 08:25:00,
2013-11-25 02:27:00,29.1,17.3,30.29,SSE,147,3.8,8.1,61,0.00,CLR,,0.00,0.0,WeatherDisplay:10.37,2013-11-25 08:27:00,
2013-11-25 02:28:00,29.1,17.3,30.29,SSE,155,3.0,8.0,61,0.00,CLR,,0.00,0.0,WeatherDisplay:10.37,2013-11-25 08:28:00,
2013-11-25 02:30:00,29.0,17.2,30.30,South,191,2.3,3.5,61,0.00,CLR,,0.00,0.0,WeatherDisplay:10.37,2013-11-25 08:30:00,
2013-11-25 02:32:00,29.0,17.6,30.29,South,190,0.7,3.5,62,0.00,CLR,,0.00,0.0,WeatherDisplay:10.37,2013-11-25 08:32:00,
2013-11-25 02:33:00,29.1,17.7,30.29,South,190,0.2,3.5,62,0.00,CLR,,0.00,0.0,WeatherDisplay:10.37,2013-11-25 08:33:00,
2013-11-25 02:34:00,29.1,17.7,30.29,South,189,0.9,2.3,62,0.00,CLR,,0.00,0.0,WeatherDisplay:10.37,2013-11-25 08:34:00,
2013-11-25 02:35:00,29.1,17.7,30.29,SSE,150,1.6,4.0,62,0.00,CLR,,0.00,0.0,WeatherDisplay:10.37,2013-11-25 08:35:00,
2013-11-25 02:37:00,29.1,17.7,30.29,SSE,167,1.2,4.6,62,0.00,CLR,,0.00,0.0,WeatherDisplay:10.37,2013-11-25 08:37:00,
2013-11-25 02:38:00,29.1,17.7,30.29,South,177,1.0,5.0,62,0.00,CLR,,0.00,0.0,WeatherDisplay:10.37,2013-11-25 08:38:00,
2013-11-25 02:39:00,29.2,17.8,30.29,South,171,1.6,3.5,62,0.00,CLR,,0.00,0.0,WeatherDisplay:10.37,2013-11-25 08:39:00,
2013-11-25 02:40:00,29.2,17.8,30.29,SSE,165,1.0,3.5,62,0.00,CLR,,0.00,0.0,WeatherDisplay:10.37,2013-11-25 08:40:00,
2013-11-25 02:41:00,29.2,17.8,30.29,South,186,1.7,3.5,62,0.00,CLR,,0.00,0.0,WeatherDisplay:10.37,2013-11-25 08:41:00,
2013-11-25 02:42:00,29.2,17.4,30.29,South,186,1.8,4.0,61,0.00,CLR,,0.00,0.0,WeatherDisplay:10.37,2013-11-25 08:42:00,
2013-11-25 02:43:00,29.2,17.4,30.29,South,186,1.8,4.0,61,0.00,CLR,,0.00,0.0,WeatherDisplay:10.37,2013-11-25 08:43:00,
2013-11-25 02:45:00,29.3,17.5,30.29,South,184,0.4,3.5,61,0.00,CLR,,0.00,0.0,WeatherDisplay:10.37,2013-11-25 08:45:00,
2013-11-25 02:46:00,29.3,17.5,30.28,SSE,156,0.9,4.0,61,0.00,CLR,,0.00,0.0,WeatherDisplay:10.37,2013-11-25 08:46:00,
2013-11-25 02:48:00,29.3,17.9,30.29,South,179,2.0,3.5,62,0.00,CLR,,0.00,0.0,WeatherDisplay:10.37,2013-11-25 08:48:00,
2013-11-25 02:50:00,29.3,17.9,30.29,South,171,2.4,4.6,62,0.00,CLR,,0.00,0.0,WeatherDisplay:10.37,2013-11-25 08:50:00,
2013-11-25 02:51:00,29.3,17.5,30.28,SE,144,2.5,4.6,61,0.00,CLR,,0.00,0.0,WeatherDisplay:10.37,2013-11-25 08:51:00,
2013-11-25 02:52:00,29.3,17.5,30.28,SSE,155,2.2,4.6,61,0.00,CLR,,0.00,0.0,WeatherDisplay:10.37,2013-11-25 08:52:00,
2013-11-25 02:53:00,29.3,17.5,30.28,SSE,159,1.6,3.5,61,0.00,CLR,,0.00,0.0,WeatherDisplay:10.37,2013-11-25 08:53:00,
2013-11-25 02:54:00,29.4,18.0,30.28,SSW,192,1.7,3.5,62,0.00,CLR,,0.00,0.0,WeatherDisplay:10.37,2013-11-25 08:54:00,
2013-11-25 02:55:00,29.3,17.5,30.28,SSE,153,1.3,3.5,61,0.00,CLR,,0.00,0.0,WeatherDisplay:10.37,2013-11-25 08:55:00,
2013-11-25 02:56:00,29.4,17.6,30.28,SSE,147,0.7,5.8,61,0.00,CLR,,0.00,0.0,WeatherDisplay:10.37,2013-11-25 08:56:00,
2013-11-25 02:57:00,29.4,17.6,30.28,SE,146,0.3,4.0,61,0.00,CLR,,0.00,0.0,WeatherDisplay:10.37,2013-11-25 08:57:00,
2013-11-25 02:58:00,29.4,17.6,30.28,SSW,193,2.3,4.0,61,0.00,CLR,,0.00,0.0,WeatherDisplay:10.37,2013-11-25 08:58:00,
2013-11-25 02:59:00,29.4,17.6,30.28,SSE,168,1.6,3.5,61,0.00,CLR,,0.00,0.0,WeatherDisplay:10.37,2013-11-25 08:59:00,
2013-11-25 03:00:00,29.4,17.6,30.28,South,169,0.9,3.5,61,0.00,CLR,,0.00,0.0,WeatherDisplay:10.37,2013-11-25 09:00:00,
2013-11-25 03:02:00,29.4,18.0,30.28,SSE,161,2.3,5.0,62,0.00,CLR,,0.00,0.0,WeatherDisplay:10.37,2013-11-25 09:02:00,
2013-11-25 03:03:00,29.4,17.6,30.28,South,184,4.5,8.1,61,0.00,CLR,,0.00,0.0,WeatherDisplay:10.37,2013-11-25 09:03:00,
2013-11-25 03:04:00,29.4,17.6,30.28,South,175,2.2,5.8,61,0.00,CLR,,0.00,0.0,WeatherDisplay:10.37,2013-11-25 09:04:00,
2013-11-25 03:06:00,29.5,17.7,30.28,South,174,1.3,3.5,61,0.00,CLR,,0.00,0.0,WeatherDisplay:10.37,2013-11-25 09:06:00,
2013-11-25 03:07:00,29.5,17.7,30.28,South,174,0.4,2.3,61,0.00,CLR,,0.00,0.0,WeatherDisplay:10.37,2013-11-25 09:07:00,
2013-11-25 03:08:00,29.5,17.7,30.28,SSE,157,0.8,2.0,61,0.00,CLR,,0.00,0.0,WeatherDisplay:10.37,2013-11-25 09:08:00,
2013-11-25 03:09:00,29.5,17.7,30.28,SSE,157,1.7,3.5,61,0.00,CLR,,0.00,0.0,WeatherDisplay:10.37,2013-11-25 09:09:00,
2013-11-25 03:11:00,29.5,17.7,30.28,South,190,1.9,4.0,61,0.00,CLR,,0.00,0.0,WeatherDisplay:10.37,2013-11-25 09:11:00,
2013-11-25 03:13:00,29.6,17.8,30.28,SSE,157,1.9,4.0,61,0.00,CLR,,0.00,0.0,WeatherDisplay:10.37,2013-11-25 09:13:00,
2013-11-25 03:14:00,29.6,17.8,30.28,SSE,161,1.9,5.8,61,0.00,CLR,,0.00,0.0,WeatherDisplay:10.37,2013-11-25 09:14:00,
2013-11-25 03:15:00,29.6,17.8,30.28,SSE,154,0.5,3.5,61,0.00,CLR,,0.00,0.0,WeatherDisplay:10.37,2013-11-25 09:15:00,
2013-11-25 03:16:00,29.6,17.8,30.28,SSW,201,0.7,2.0,61,0.00,CLR,,0.00,0.0,WeatherDisplay:10.37,2013-11-25 09:16:00,
2013-11-25 03:18:00,29.6,17.8,30.28,SE,138,2.8,6.0,61,0.00,CLR,,0.00,0.0,WeatherDisplay:10.37,2013-11-25 09:18:00,
2013-11-25 03:19:00,29.6,17.8,30.28,South,186,3.6,5.8,61,0.00,CLR,,0.00,0.0,WeatherDisplay:10.37,2013-11-25 09:19:00,
2013-11-25 03:20:00,29.6,17.8,30.28,SSE,163,2.3,4.6,61,0.00,CLR,,0.00,0.0,WeatherDisplay:10.37,2013-11-25 09:20:00,
2013-11-25 03:22:00,29.6,17.8,30.28,SSW,193,1.4,4.6,61,0.00,CLR,,0.00,0.0,WeatherDisplay:10.37,2013-11-25 09:22:00,
2013-11-25 03:23:00,29.6,18.2,30.28,South,184,1.3,2.3,62,0.00,CLR,,0.00,0.0,WeatherDisplay:10.37,2013-11-25 09:23:00,
2013-11-25 03:24:00,29.6,18.2,30.28,South,182,1.1,3.5,62,0.00,CLR,,0.00,0.0,WeatherDisplay:10.37,2013-11-25 09:24:00,
2013-11-25 03:25:00,29.6,18.2,30.28,SSW,209,3.2,4.6,62,0.00,CLR,,0.00,0.0,WeatherDisplay:10.37,2013-11-25 09:25:00,
2013-11-25 03:27:00,29.6,17.8,30.28,SSW,202,1.5,3.5,61,0.00,CLR,,0.00,0.0,WeatherDisplay:10.37,2013-11-25 09:27:00,
2013-11-25 03:29:00,29.6,17.8,30.28,SSW,202,0.5,3.5,61,0.00,CLR,,0.00,0.0,WeatherDisplay:10.37,2013-11-25 09:29:00,
2013-11-25 03:30:00,29.6,18.2,30.28,SSW,203,2.2,3.5,62,0.00,CLR,,0.00,0.0,WeatherDisplay:10.37,2013-11-25 09:30:00,
2013-11-25 03:32:00,29.6,18.2,30.28,SSE,147,1.3,3.5,62,0.00,CLR,,0.00,0.0,WeatherDisplay:10.37,2013-11-25 09:32:00,
2013-11-25 03:34:00,29.6,18.2,30.28,SSE,156,0.9,3.0,62,0.00,CLR,,0.00,0.0,WeatherDisplay:10.37,2013-11-25 09:34:00,
2013-11-25 03:35:00,29.6,18.2,30.28,SSE,159,1.6,4.6,62,0.00,CLR,,0.00,0.0,WeatherDisplay:10.37,2013-11-25 09:35:00,
2013-11-25 03:37:00,29.6,17.8,30.28,SSE,166,0.5,2.3,61,0.00,CLR,,0.00,0.0,WeatherDisplay:10.37,2013-11-25 09:37:00,
2013-11-25 03:39:00,29.6,18.2,30.28,SSE,168,0.4,2.3,62,0.00,CLR,,0.00,0.0,WeatherDisplay:10.37,2013-11-25 09:39:00,
2013-11-25 03:40:00,29.6,18.2,30.28,SSE,168,0.0,1.2,62,0.00,CLR,,0.00,0.0,WeatherDisplay:10.37,2013-11-25 09:40:00,
2013-11-25 03:42:00,29.6,18.2,30.28,SSE,168,0.4,2.3,62,0.00,CLR,,0.00,0.0,WeatherDisplay:10.37,2013-11-25 09:42:00,
2013-11-25 03:44:00,29.6,18.2,30.27,SSE,159,2.3,2.3,62,0.00,CLR,,0.00,0.0,WeatherDisplay:10.37,2013-11-25 09:44:00,
2013-11-25 03:45:00,29.6,18.2,30.27,SSE,159,2.1,3.5,62,0.00,CLR,,0.00,0.0,WeatherDisplay:10.37,2013-11-25 09:45:00,
2013-11-25 03:49:00,29.6,18.2,30.27,SSE,161,1.5,3.5,62,0.00,CLR,,0.00,0.0,WeatherDisplay:10.37,2013-11-25 09:49:00,
2013-11-25 03:50:00,29.7,18.3,30.27,SSE,153,1.7,3.5,62,0.00,CLR,,0.00,0.0,WeatherDisplay:10.37,2013-11-25 09:50:00,
2013-11-25 03:54:00,29.7,18.3,30.27,SSE,148,0.7,3.5,62,0.00,CLR,,0.00,0.0,WeatherDisplay:10.37,2013-11-25 09:54:00,
2013-11-25 03:55:00,29.7,18.3,30.27,South,187,1.7,3.5,62,0.00,CLR,,0.00,0.0,WeatherDisplay:10.37,2013-11-25 09:55:00,
2013-11-25 03:56:00,29.7,18.3,30.27,South,187,1.5,3.5,62,0.00,CLR,,0.00,0.0,WeatherDisplay:10.37,2013-11-25 09:56:00,
2013-11-25 03:59:00,29.7,18.6,30.27,South,185,1.4,3.5,63,0.00,CLR,,0.00,0.0,WeatherDisplay:10.37,2013-11-25 09:59:00,
2013-11-25 04:00:00,29.7,18.6,30.28,South,185,1.4,3.5,63,0.00,CLR,,0.00,0.0,WeatherDisplay:10.37,2013-11-25 10:00:00,
2013-11-25 04:01:00,29.7,18.6,30.28,SW,224,0.9,3.5,63,0.00,CLR,,0.00,0.0,WeatherDisplay:10.37,2013-11-25 10:01:00,
2013-11-25 04:05:00,29.6,18.2,30.28,South,178,0.0,0.0,62,0.00,CLR,,0.00,0.0,WeatherDisplay:10.37,2013-11-25 10:05:00,
2013-11-25 04:06:00,29.6,18.2,30.28,South,178,1.2,3.5,62,0.00,CLR,,0.00,0.0,WeatherDisplay:10.37,2013-11-25 10:06:00,
2013-11-25 04:07:00,29.7,18.3,30.28,South,178,1.3,3.5,62,0.00,CLR,,0.00,0.0,WeatherDisplay:10.37,2013-11-25 10:07:00,
2013-11-25 04:10:00,29.7,18.3,30.27,South,187,1.0,2.3,62,0.00,CLR,,0.00,0.0,WeatherDisplay:10.37,2013-11-25 10:10:00,
2013-11-25 04:11:00,29.7,18.6,30.27,South,187,0.6,2.3,63,0.00,CLR,,0.00,0.0,WeatherDisplay:10.37,2013-11-25 10:11:00,
2013-11-25 04:12:00,29.7,18.6,30.27,South,187,0.2,1.2,63,0.00,CLR,,0.00,0.0,WeatherDisplay:10.37,2013-11-25 10:12:00,
2013-11-25 04:16:00,29.7,18.6,30.27,South,187,3.2,4.6,63,0.00,CLR,,0.00,0.0,WeatherDisplay:10.37,2013-11-25 10:16:00,
2013-11-25 04:17:00,29.7,18.6,30.27,South,187,0.5,3.5,63,0.00,CLR,,0.00,0.0,WeatherDisplay:10.37,2013-11-25 10:17:00,
2013-11-25 04:21:00,29.7,18.6,30.27,South,175,0.1,1.2,63,0.00,CLR,,0.00,0.0,WeatherDisplay:10.37,2013-11-25 10:21:00,
2013-11-25 04:22:00,29.7,18.6,30.27,South,171,2.1,4.6,63,0.00,CLR,,0.00,0.0,WeatherDisplay:10.37,2013-11-25 10:22:00,
2013-11-25 04:23:00,29.7,18.6,30.27,South,171,1.8,4.6,63,0.00,CLR,,0.00,0.0,WeatherDisplay:10.37,2013-11-25 10:23:00,
2013-11-25 04:26:00,29.7,18.6,30.27,South,188,1.3,2.0,63,0.00,CLR,,0.00,0.0,WeatherDisplay:10.37,2013-11-25 10:26:00,
2013-11-25 04:27:00,29.7,18.6,30.27,South,188,1.3,1.3,63,0.00,CLR,,0.00,0.0,WeatherDisplay:10.37,2013-11-25 10:27:00,
2013-11-25 04:28:00,29.7,18.6,30.27,SSW,192,1.8,4.0,63,0.00,CLR,,0.00,0.0,WeatherDisplay:10.37,2013-11-25 10:28:00,
2013-11-25 04:31:00,29.7,18.6,30.27,SSE,165,0.7,2.3,63,0.00,CLR,,0.00,0.0,WeatherDisplay:10.37,2013-11-25 10:31:00,
2013-11-25 04:32:00,29.8,18.7,30.27,SSE,165,1.0,3.5,63,0.00,CLR,,0.00,0.0,WeatherDisplay:10.37,2013-11-25 10:32:00,
2013-11-25 04:33:00,29.8,18.7,30.27,South,170,1.4,3.5,63,0.00,CLR,,0.00,0.0,WeatherDisplay:10.37,2013-11-25 10:33:00,
2013-11-25 04:37:00,29.7,18.6,30.27,South,170,0.3,1.2,63,0.00,CLR,,0.00,0.0,WeatherDisplay:10.37,2013-11-25 10:37:00,
2013-11-25 04:38:00,29.8,19.1,30.26,South,170,0.1,1.2,64,0.00,CLR,,0.00,0.0,WeatherDisplay:10.37,2013-11-25 10:38:00,
2013-11-25 04:39:00,29.8,19.1,30.27,South,170,0.1,1.2,64,0.00,CLR,,0.00,0.0,WeatherDisplay:10.37,2013-11-25 10:39:00,
2013-11-25 04:42:00,29.7,18.6,30.26,South,170,1.0,2.3,63,0.00,CLR,,0.00,0.0,WeatherDisplay:10.37,2013-11-25 10:42:00,
2013-11-25 04:43:00,29.7,19.0,30.26,South,170,0.7,2.3,64,0.00,CLR,,0.00,0.0,WeatherDisplay:10.37,2013-11-25 10:43:00,
2013-11-25 04:44:00,29.7,19.0,30.26,South,170,0.8,3.5,64,0.00,CLR,,0.00,0.0,WeatherDisplay:10.37,2013-11-25 10:44:00,
2013-11-25 04:47:00,29.7,19.0,30.26,SSW,200,2.0,2.3,64,0.00,CLR,,0.00,0.0,WeatherDisplay:10.37,2013-11-25 10:47:00,
2013-11-25 04:48:00,29.7,18.6,30.26,SSW,200,1.7,3.5,63,0.00,CLR,,0.00,0.0,WeatherDisplay:10.37,2013-11-25 10:48:00,
2013-11-25 04:49:00,29.7,19.0,30.26,SSW,200,1.3,3.5,64,0.00,CLR,,0.00,0.0,WeatherDisplay:10.37,2013-11-25 10:49:00,
2013-11-25 04:52:00,29.8,19.1,30.26,SSW,200,0.2,1.2,64,0.00,CLR,,0.00,0.0,WeatherDisplay:10.37,2013-11-25 10:52:00,
2013-11-25 04:53:00,29.8,19.1,30.26,SSW,205,0.2,4.0,64,0.00,CLR,,0.00,0.0,WeatherDisplay:10.37,2013-11-25 10:53:00,
2013-11-25 04:54:00,29.8,19.1,30.26,South,186,2.2,4.6,64,0.00,CLR,,0.00,0.0,WeatherDisplay:10.37,2013-11-25 10:54:00,
2013-11-25 04:57:00,29.8,19.1,30.26,SSW,193,1.9,3.0,64,0.00,CLR,,0.00,0.0,WeatherDisplay:10.37,2013-11-25 10:57:00,
2013-11-25 04:58:00,29.8,18.7,30.26,South,187,2.2,3.0,63,0.00,CLR,,0.00,0.0,WeatherDisplay:10.37,2013-11-25 10:58:00,
2013-11-25 04:59:00,29.9,18.8,30.26,South,187,1.2,3.5,63,0.00,CLR,,0.00,0.0,WeatherDisplay:10.37,2013-11-25 10:59:00,
2013-11-25 05:02:00,29.9,18.8,30.26,South,169,2.2,4.6,63,0.00,CLR,,0.00,0.0,WeatherDisplay:10.37,2013-11-25 11:02:00,
2013-11-25 05:03:00,29.9,18.8,30.26,SSW,205,1.1,2.3,63,0.00,CLR,,0.00,0.0,WeatherDisplay:10.37,2013-11-25 11:03:00,
2013-11-25 05:04:00,29.9,19.2,30.26,SSW,205,0.7,3.5,64,0.00,CLR,,0.00,0.0,WeatherDisplay:10.37,2013-11-25 11:04:00,
2013-11-25 05:05:00,29.9,19.2,30.26,SSW,205,0.0,0.0,64,0.00,CLR,,0.00,0.0,WeatherDisplay:10.37,2013-11-25 11:05:00,
2013-11-25 05:07:00,29.9,19.2,30.26,SSW,205,0.0,1.2,64,0.00,CLR,,0.00,0.0,WeatherDisplay:10.37,2013-11-25 11:07:00,
2013-11-25 05:08:00,29.9,19.2,30.26,SSW,205,0.0,0.0,64,0.00,CLR,,0.00,0.0,WeatherDisplay:10.37,2013-11-25 11:08:00,
2013-11-25 05:09:00,29.9,19.2,30.26,SSW,205,0.2,1.0,64,0.00,CLR,,0.00,0.0,WeatherDisplay:10.37,2013-11-25 11:09:00,
2013-11-25 05:10:00,29.9,19.2,30.26,SSW,205,0.4,2.3,64,0.00,CLR,,0.00,0.0,WeatherDisplay:10.37,2013-11-25 11:10:00,
2013-11-25 05:13:00,29.9,19.6,30.26,SSE,163,1.0,3.5,65,0.00,CLR,,0.00,0.0,WeatherDisplay:10.37,2013-11-25 11:13:00,
2013-11-25 05:14:00,29.9,19.2,30.26,SSW,192,2.5,6.0,64,0.00,CLR,,0.00,0.0,WeatherDisplay:10.37,2013-11-25 11:14:00,
2013-11-25 05:15:00,30.0,19.3,30.26,SSE,164,3.1,5.8,64,0.00,CLR,,0.00,0.0,WeatherDisplay:10.37,2013-11-25 11:15:00,
2013-11-25 05:18:00,30.0,19.7,30.26,South,189,0.0,1.2,65,0.00,CLR,,0.00,0.0,WeatherDisplay:10.37,2013-11-25 11:18:00,
2013-11-25 05:19:00,30.1,19.7,30.26,South,181,2.0,3.5,65,0.00,CLR,,0.00,0.0,WeatherDisplay:10.37,2013-11-25 11:19:00,
2013-11-25 05:20:00,30.0,19.3,30.26,South,181,1.5,3.5,64,0.00,CLR,,0.00,0.0,WeatherDisplay:10.37,2013-11-25 11:20:00,
2013-11-25 05:21:00,30.1,19.4,30.26,South,181,0.9,3.5,64,0.00,CLR,,0.00,0.0,WeatherDisplay:10.37,2013-11-25 11:21:00,
2013-11-25 05:23:00,30.1,19.7,30.26,South,175,0.8,3.5,65,0.00,CLR,,0.00,0.0,WeatherDisplay:10.37,2013-11-25 11:23:00,
2013-11-25 05:25:00,30.1,19.4,30.26,SSW,194,1.0,3.5,64,0.00,CLR,,0.00,0.0,WeatherDisplay:10.37,2013-11-25 11:25:00,
2013-11-25 05:26:00,30.1,19.4,30.26,South,180,0.9,2.3,64,0.00,CLR,,0.00,0.0,WeatherDisplay:10.37,2013-11-25 11:26:00,
2013-11-25 05:28:00,30.1,19.4,30.26,SSE,164,2.3,4.6,64,0.00,CLR,,0.00,0.0,WeatherDisplay:10.37,2013-11-25 11:28:00,
2013-11-25 05:29:00,30.1,19.4,30.25,South,172,1.9,3.5,64,0.00,CLR,,0.00,0.0,WeatherDisplay:10.37,2013-11-25 11:29:00,
2013-11-25 05:30:00,30.1,19.4,30.25,South,177,1.6,4.6,64,0.00,CLR,,0.00,0.0,WeatherDisplay:10.37,2013-11-25 11:30:00,
2013-11-25 05:31:00,30.1,19.4,30.25,South,170,2.1,3.5,64,0.00,CLR,,0.00,0.0,WeatherDisplay:10.37,2013-11-25 11:31:00,
2013-11-25 05:34:00,30.1,19.4,30.25,SSE,163,1.7,3.5,64,0.00,CLR,,0.00,0.0,WeatherDisplay:10.37,2013-11-25 11:34:00,
2013-11-25 05:35:00,30.2,19.5,30.25,SSE,161,1.7,2.3,64,0.00,CLR,,0.00,0.0,WeatherDisplay:10.37,2013-11-25 11:35:00,
2013-11-25 05:36:00,30.2,19.5,30.25,South,191,1.3,4.0,64,0.00,CLR,,0.00,0.0,WeatherDisplay:10.37,2013-11-25 11:36:00,
2013-11-25 05:39:00,30.2,19.5,30.25,SSE,157,1.5,4.6,64,0.00,CLR,,0.00,0.0,WeatherDisplay:10.37,2013-11-25 11:39:00,
2013-11-25 05:40:00,30.2,19.5,30.25,South,176,1.0,4.6,64,0.00,CLR,,0.00,0.0,WeatherDisplay:10.37,2013-11-25 11:40:00,
2013-11-25 05:41:00,30.2,19.5,30.25,South,170,1.5,3.5,64,0.00,CLR,,0.00,0.0,WeatherDisplay:10.37,2013-11-25 11:41:00,
2013-11-25 05:42:00,30.2,19.5,30.25,South,170,1.2,3.5,64,0.00,CLR,,0.00,0.0,WeatherDisplay:10.37,2013-11-25 11:42:00,
2013-11-25 05:44:00,30.2,19.5,30.25,South,169,1.4,2.3,64,0.00,CLR,,0.00,0.0,WeatherDisplay:10.37,2013-11-25 11:44:00,
2013-11-25 05:45:00,30.2,19.5,30.24,South,190,2.0,4.0,64,0.00,CLR,,0.00,0.0,WeatherDisplay:10.37,2013-11-25 11:45:00,
2013-11-25 05:46:00,30.2,19.5,30.24,South,189,2.5,4.0,64,0.00,CLR,,0.00,0.0,WeatherDisplay:10.37,2013-11-25 11:46:00,
2013-11-25 05:47:00,30.2,19.5,30.24,SSW,200,2.7,6.0,64,0.00,CLR,,0.00,0.0,WeatherDisplay:10.37,2013-11-25 11:47:00,
2013-11-25 05:49:00,30.2,19.5,30.24,South,178,1.5,4.6,64,0.00,CLR,,0.00,0.0,WeatherDisplay:10.37,2013-11-25 11:49:00,
2013-11-25 05:50:00,30.2,19.5,30.24,SSW,205,0.3,3.5,64,0.00,CLR,,0.00,0.0,WeatherDisplay:10.37,2013-11-25 11:50:00,
2013-11-25 05:51:00,30.2,19.5,30.24,SE,140,0.6,3.5,64,0.00,CLR,,0.00,0.0,WeatherDisplay:10.37,2013-11-25 11:51:00,
2013-11-25 05:52:00,30.2,19.5,30.24,South,181,1.7,3.5,64,0.00,CLR,,0.00,0.0,WeatherDisplay:10.37,2013-11-25 11:52:00,
2013-11-25 05:54:00,30.2,19.5,30.24,SSW,202,2.0,4.6,64,0.00,CLR,,0.00,0.0,WeatherDisplay:10.37,2013-11-25 11:54:00,
2013-11-25 05:56:00,30.2,19.5,30.24,SSE,167,2.4,5.8,64,0.00,CLR,,0.00,0.0,WeatherDisplay:10.37,2013-11-25 11:56:00,
2013-11-25 05:57:00,30.3,19.6,30.24,South,180,2.7,8.1,64,0.00,CLR,,0.00,0.0,WeatherDisplay:10.37,2013-11-25 11:57:00,
2013-11-25 06:00:00,30.3,19.6,30.24,SSW,194,2.0,4.0,64,0.00,CLR,,0.00,0.0,WeatherDisplay:10.37,2013-11-25 12:00:00,
2013-11-25 06:01:00,30.3,19.6,30.24,SSE,164,1.7,3.5,64,0.00,CLR,,0.00,0.0,WeatherDisplay:10.37,2013-11-25 12:01:00,
2013-11-25 06:02:00,30.3,19.6,30.24,South,185,2.3,3.5,64,0.00,CLR,,0.00,0.0,WeatherDisplay:10.37,2013-11-25 12:02:00,
2013-11-25 06:05:00,30.3,19.6,30.24,South,175,0.9,2.3,64,0.00,CLR,,0.00,0.0,WeatherDisplay:10.37,2013-11-25 12:05:00,
2013-11-25 06:06:00,30.3,19.6,30.24,South,175,1.0,2.3,64,0.00,CLR,,0.00,0.0,WeatherDisplay:10.37,2013-11-25 12:06:00,
2013-11-25 06:07:00,30.3,19.6,30.24,SSW,193,1.2,4.0,64,0.00,CLR,,0.00,0.0,WeatherDisplay:10.37,2013-11-25 12:07:00,
2013-11-25 06:08:00,30.3,19.6,30.24,South,190,3.4,3.5,64,0.00,CLR,,0.00,0.0,WeatherDisplay:10.37,2013-11-25 12:08:00,
2013-11-25 06:11:00,30.3,19.6,30.24,SSE,167,1.2,3.5,64,0.00,CLR,,0.00,0.0,WeatherDisplay:10.37,2013-11-25 12:11:00,
2013-11-25 06:12:00,30.3,19.6,30.24,SE,134,2.1,4.6,64,0.00,CLR,,0.00,0.0,WeatherDisplay:10.37,2013-11-25 12:12:00,
2013-11-25 06:13:00,30.3,19.6,30.23,SSE,159,2.8,4.6,64,0.00,CLR,,0.00,0.0,WeatherDisplay:10.37,2013-11-25 12:13:00,
2013-11-25 06:16:00,30.3,19.6,30.23,SSW,197,2.8,4.6,64,0.00,CLR,,0.00,0.0,WeatherDisplay:10.37,2013-11-25 12:16:00,
2013-11-25 06:17:00,30.3,19.6,30.23,SSE,167,2.2,4.6,64,0.00,CLR,,0.00,0.0,WeatherDisplay:10.37,2013-11-25 12:17:00,
2013-11-25 06:18:00,30.3,19.6,30.23,South,169,1.3,3.5,64,0.00,CLR,,0.00,0.0,WeatherDisplay:10.37,2013-11-25 12:18:00,
2013-11-25 06:19:00,30.3,19.6,30.23,South,186,2.1,4.6,64,0.00,CLR,,0.00,0.0,WeatherDisplay:10.37,2013-11-25 12:19:00,
2013-11-25 06:21:00,30.3,19.6,30.23,SE,140,2.1,4.6,64,0.00,CLR,,0.00,0.0,WeatherDisplay:10.37,2013-11-25 12:21:00,
2013-11-25 06:22:00,30.4,19.7,30.23,SSW,194,2.5,4.6,64,0.00,CLR,,0.00,0.0,WeatherDisplay:10.37,2013-11-25 12:22:00,
2013-11-25 06:23:00,30.4,19.7,30.23,SE,142,1.9,4.6,64,0.00,CLR,,0.00,0.0,WeatherDisplay:10.37,2013-11-25 12:23:00,
2013-11-25 06:24:00,30.4,19.7,30.23,SSW,196,2.4,4.6,64,0.00,CLR,,0.00,0.0,WeatherDisplay:10.37,2013-11-25 12:24:00,
2013-11-25 06:26:00,30.4,19.7,30.23,SSE,157,1.4,3.5,64,0.00,CLR,,0.00,0.0,WeatherDisplay:10.37,2013-11-25 12:26:00,
2013-11-25 06:27:00,30.4,19.7,30.23,SSE,157,0.3,1.2,64,0.00,CLR,,0.00,0.0,WeatherDisplay:10.37,2013-11-25 12:27:00,
2013-11-25 06:28:00,30.4,19.7,30.23,South,171,0.4,1.2,64,0.00,CLR,,0.00,0.0,WeatherDisplay:10.37,2013-11-25 12:28:00,
2013-11-25 06:30:00,30.4,19.7,30.23,South,175,0.7,2.0,64,0.00,CLR,,0.00,0.0,WeatherDisplay:10.37,2013-11-25 12:30:00,
2013-11-25 06:31:00,30.4,20.0,30.23,South,175,1.2,2.3,65,0.00,CLR,,0.00,0.0,WeatherDisplay:10.37,2013-11-25 12:31:00,
2013-11-25 06:32:00,30.4,19.7,30.23,South,175,1.2,3.5,64,0.00,CLR,,0.00,0.0,WeatherDisplay:10.37,2013-11-25 12:32:00,
2013-11-25 06:33:00,30.4,20.0,30.23,South,175,0.7,3.5,65,0.00,CLR,,0.00,0.0,WeatherDisplay:10.37,2013-11-25 12:33:00,
2013-11-25 06:34:00,30.4,19.7,30.23,South,178,0.6,2.3,64,0.00,CLR,,0.00,0.0,WeatherDisplay:10.37,2013-11-25 12:34:00,
2013-11-25 06:35:00,30.4,19.7,30.23,South,178,0.2,2.0,64,0.00,CLR,,0.00,0.0,WeatherDisplay:10.37,2013-11-25 12:35:00,
2013-11-25 06:36:00,30.4,19.7,30.23,South,180,1.2,2.3,64,0.00,CLR,,0.00,0.0,WeatherDisplay:10.37,2013-11-25 12:36:00,
2013-11-25 06:38:00,30.4,20.0,30.23,South,182,1.2,3.5,65,0.00,CLR,,0.00,0.0,WeatherDisplay:10.37,2013-11-25 12:38:00,
2013-11-25 06:39:00,30.5,20.1,30.23,South,182,0.4,2.3,65,0.00,CLR,,0.00,0.0,WeatherDisplay:10.37,2013-11-25 12:39:00,
2013-11-25 06:40:00,30.5,20.1,30.24,SSE,164,3.6,3.6,65,0.00,CLR,,0.00,0.0,WeatherDisplay:10.37,2013-11-25 12:40:00,
2013-11-25 06:41:00,30.5,19.8,30.23,SSW,194,3.0,5.8,64,0.00,CLR,,0.00,0.0,WeatherDisplay:10.37,2013-11-25 12:41:00,
2013-11-25 06:43:00,30.5,19.8,30.24,South,184,1.5,3.5,64,0.00,CLR,,0.00,0.0,WeatherDisplay:10.37,2013-11-25 12:43:00,
2013-11-25 06:44:00,30.5,19.8,30.24,SW,234,1.2,3.5,64,0.00,CLR,,0.00,0.0,WeatherDisplay:10.37,2013-11-25 12:44:00,
2013-11-25 06:46:00,30.5,19.8,30.24,South,170,1.5,4.6,64,0.00,CLR,,0.00,0.0,WeatherDisplay:10.37,2013-11-25 12:46:00,
2013-11-25 06:48:00,30.5,20.1,30.24,South,171,0.7,2.3,65,0.00,CLR,,0.00,0.0,WeatherDisplay:10.37,2013-11-25 12:48:00,
2013-11-25 06:49:00,30.5,20.1,30.24,South,171,1.2,3.0,65,0.00,CLR,,0.00,0.0,WeatherDisplay:10.37,2013-11-25 12:49:00,
2013-11-25 06:51:00,30.5,19.8,30.24,SE,142,1.7,3.5,64,0.00,CLR,,0.00,0.0,WeatherDisplay:10.37,2013-11-25 12:51:00,
2013-11-25 06:53:00,30.5,20.1,30.24,South,184,1.0,2.3,65,0.00,CLR,,0.00,0.0,WeatherDisplay:10.37,2013-11-25 12:53:00,
2013-11-25 06:54:00,30.5,20.1,30.24,SE,146,1.8,3.5,65,0.00,CLR,,0.00,0.0,WeatherDisplay:10.37,2013-11-25 12:54:00,
2013-11-25 06:55:00,30.4,20.0,30.24,SSW,197,1.5,4.0,65,0.00,CLR,,0.00,0.0,WeatherDisplay:10.37,2013-11-25 12:55:00,
2013-11-25 06:56:00,30.4,19.7,30.24,SSE,153,2.9,5.8,64,0.00,CLR,,0.00,0.0,WeatherDisplay:10.37,2013-11-25 12:56:00,
2013-11-25 06:57:00,30.5,19.8,30.24,SSW,203,3.6,5.8,64,0.00,CLR,,0.00,0.0,WeatherDisplay:10.37,2013-11-25 12:57:00,
2013-11-25 06:58:00,30.5,20.1,30.24,SE,141,2.8,5.8,65,0.00,CLR,,0.00,0.0,WeatherDisplay:10.37,2013-11-25 12:58:00,
2013-11-25 06:59:00,30.5,20.1,30.24,South,178,2.3,6.9,65,0.00,CLR,,0.00,0.0,WeatherDisplay:10.37,2013-11-25 12:59:00,
2013-11-25 07:00:00,30.5,20.1,30.24,South,182,2.4,6.9,65,0.00,CLR,,0.00,0.0,WeatherDisplay:10.37,2013-11-25 13:00:00,
2013-11-25 07:01:00,30.5,20.1,30.24,SSW,198,2.1,3.5,65,0.00,CLR,,0.00,0.0,WeatherDisplay:10.37,2013-11-25 13:01:00,
2013-11-25 07:02:00,30.5,20.1,30.24,South,175,1.0,7.0,65,0.00,CLR,,0.00,0.0,WeatherDisplay:10.37,2013-11-25 13:02:00,
2013-11-25 07:03:00,30.5,20.1,30.24,South,174,0.2,3.5,65,0.00,CLR,,0.00,0.0,WeatherDisplay:10.37,2013-11-25 13:03:00,
2013-11-25 07:04:00,30.5,20.1,30.24,South,174,0.0,1.2,65,0.00,CLR,,0.00,0.0,WeatherDisplay:10.37,2013-11-25 13:04:00,
2013-11-25 07:05:00,30.5,20.1,30.24,SSW,202,1.1,4.0,65,0.00,CLR,,0.00,0.0,WeatherDisplay:10.37,2013-11-25 13:05:00,
2013-11-25 07:06:00,30.5,20.1,30.24,SSW,202,1.7,4.6,65,0.00,CLR,,0.00,0.0,WeatherDisplay:10.37,2013-11-25 13:06:00,
2013-11-25 07:08:00,30.5,20.1,30.24,South,184,1.2,2.3,65,0.00,CLR,,0.00,0.0,WeatherDisplay:10.37,2013-11-25 13:08:00,
2013-11-25 07:09:00,30.5,20.1,30.24,South,184,0.7,2.3,65,0.00,CLR,,0.00,0.0,WeatherDisplay:10.37,2013-11-25 13:09:00,
2013-11-25 07:10:00,30.5,20.1,30.24,South,184,0.0,2.3,65,0.00,CLR,,0.00,0.0,WeatherDisplay:10.37,2013-11-25 13:10:00,
2013-11-25 07:11:00,30.6,20.2,30.24,South,184,0.2,1.0,65,0.00,CLR,,0.00,0.0,WeatherDisplay:10.37,2013-11-25 13:11:00,
2013-11-25 07:12:00,30.6,20.2,30.24,South,184,0.9,3.5,65,0.00,CLR,,0.00,0.0,WeatherDisplay:10.37,2013-11-25 13:12:00,
2013-11-25 07:13:00,30.6,20.2,30.24,South,184,0.3,3.5,65,0.00,CLR,,0.00,0.0,WeatherDisplay:10.37,2013-11-25 13:13:00,
2013-11-25 07:14:00,30.6,20.2,30.24,South,184,0.4,1.2,65,0.00,CLR,,0.00,0.0,WeatherDisplay:10.37,2013-11-25 13:14:00,
2013-11-25 07:15:00,30.6,20.2,30.24,South,184,0.0,1.2,65,0.00,CLR,,0.00,0.0,WeatherDisplay:10.37,2013-11-25 13:15:00,
2013-11-25 07:17:00,30.6,20.2,30.24,South,184,1.1,3.5,65,0.00,CLR,,0.00,0.0,WeatherDisplay:10.37,2013-11-25 13:17:00,
2013-11-25 07:18:00,30.6,20.2,30.24,SW,226,1.5,3.5,65,0.00,CLR,,0.00,0.0,WeatherDisplay:10.37,2013-11-25 13:18:00,
2013-11-25 07:19:00,30.6,20.2,30.24,SSW,208,0.8,3.5,65,0.00,CLR,,0.00,0.0,WeatherDisplay:10.37,2013-11-25 13:19:00,
2013-11-25 07:20:00,30.6,20.2,30.24,SSW,208,1.4,2.3,65,0.00,CLR,,0.00,0.0,WeatherDisplay:10.37,2013-11-25 13:20:00,
2013-11-25 07:22:00,30.6,20.2,30.24,SSE,164,0.7,3.5,65,0.00,CLR,,0.00,0.0,WeatherDisplay:10.37,2013-11-25 13:22:00,
2013-11-25 07:23:00,30.6,20.2,30.24,SSE,163,0.9,3.5,65,0.00,CLR,,0.00,0.0,WeatherDisplay:10.37,2013-11-25 13:23:00,
2013-11-25 07:25:00,30.6,20.2,30.24,SSE,163,0.4,2.3,65,0.00,CLR,,0.00,0.0,WeatherDisplay:10.37,2013-11-25 13:25:00,
2013-11-25 07:27:00,30.7,20.3,30.24,SW,224,0.9,2.3,65,0.00,CLR,,0.00,0.0,WeatherDisplay:10.37,2013-11-25 13:27:00,
2013-11-25 07:28:00,30.7,20.3,30.24,SW,224,0.9,2.3,65,0.00,CLR,,0.00,0.0,WeatherDisplay:10.37,2013-11-25 13:28:00,
2013-11-25 07:29:00,30.8,20.4,30.24,SW,224,0.2,1.2,65,0.00,CLR,,0.00,0.0,WeatherDisplay:10.37,2013-11-25 13:29:00,
2013-11-25 07:30:00,30.8,20.4,30.24,SW,224,0.5,1.2,65,0.00,CLR,,0.00,0.0,WeatherDisplay:10.37,2013-11-25 13:30:00,
2013-11-25 07:31:00,30.7,20.3,30.24,SW,224,0.3,1.2,65,0.00,CLR,,0.00,0.0,WeatherDisplay:10.37,2013-11-25 13:31:00,
2013-11-25 07:32:00,30.8,20.4,30.25,SW,223,0.2,1.2,65,0.00,CLR,,0.00,0.0,WeatherDisplay:10.37,2013-11-25 13:32:00,
2013-11-25 07:33:00,30.8,20.4,30.24,South,186,0.2,4.0,65,0.00,CLR,,0.00,0.0,WeatherDisplay:10.37,2013-11-25 13:33:00,
2013-11-25 07:35:00,30.8,20.4,30.24,SSW,194,0.2,2.3,65,0.00,CLR,,0.00,5.0,WeatherDisplay:10.37,2013-11-25 13:35:00,
2013-11-25 07:36:00,30.8,20.4,30.24,South,172,0.3,2.3,65,0.00,CLR,,0.00,5.0,WeatherDisplay:10.37,2013-11-25 13:36:00,
2013-11-25 07:37:00,30.8,20.4,30.24,SSE,160,0.8,3.5,65,0.00,CLR,,0.00,7.0,WeatherDisplay:10.37,2013-11-25 13:37:00,
2013-11-25 07:38:00,30.8,20.4,30.25,SSE,158,0.3,3.5,65,0.00,CLR,,0.00,7.0,WeatherDisplay:10.37,2013-11-25 13:38:00,
2013-11-25 07:40:00,30.8,20.4,30.25,South,188,0.1,2.3,65,0.00,CLR,,0.00,11.0,WeatherDisplay:10.37,2013-11-25 13:40:00,
2013-11-25 07:41:00,30.9,20.5,30.24,South,188,0.1,1.2,65,0.00,CLR,,0.00,11.0,WeatherDisplay:10.37,2013-11-25 13:41:00,
2013-11-25 07:43:00,30.9,20.5,30.24,South,182,0.7,2.3,65,0.00,CLR,,0.00,12.0,WeatherDisplay:10.37,2013-11-25 13:43:00,
2013-11-25 07:45:00,31.0,20.6,30.25,South,179,0.8,3.5,65,0.00,CLR,,0.00,14.0,WeatherDisplay:10.37,2013-11-25 13:45:00,
2013-11-25 07:46:00,31.0,20.6,30.25,South,191,1.7,4.0,65,0.00,CLR,,0.00,14.0,WeatherDisplay:10.37,2013-11-25 13:46:00,
2013-11-25 07:48:00,31.0,20.6,30.24,South,178,1.0,3.5,65,0.00,CLR,,0.00,14.0,WeatherDisplay:10.37,2013-11-25 13:48:00,
2013-11-25 07:50:00,31.1,20.3,30.25,South,188,1.2,3.5,64,0.00,CLR,,0.00,14.0,WeatherDisplay:10.37,2013-11-25 13:50:00,
2013-11-25 07:51:00,31.1,20.3,30.25,South,183,0.9,3.5,64,0.00,CLR,,0.00,14.0,WeatherDisplay:10.37,2013-11-25 13:51:00,
2013-11-25 07:53:00,31.2,20.1,30.25,South,174,2.4,5.8,63,0.00,CLR,,0.00,14.0,WeatherDisplay:10.37,2013-11-25 13:53:00,
2013-11-25 07:56:00,31.2,20.1,30.25,South,174,0.6,2.3,63,0.00,CLR,,0.00,16.0,WeatherDisplay:10.37,2013-11-25 13:56:00,
2013-11-25 07:57:00,31.2,20.1,30.25,South,184,1.7,5.8,63,0.00,CLR,,0.00,16.0,WeatherDisplay:10.37,2013-11-25 13:57:00,
2013-11-25 07:58:00,31.2,20.1,30.25,South,187,2.0,5.8,63,0.00,CLR,,0.00,18.0,WeatherDisplay:10.37,2013-11-25 13:58:00,
2013-11-25 07:59:00,31.2,20.1,30.25,South,182,1.9,4.6,63,0.00,CLR,,0.00,18.0,WeatherDisplay:10.37,2013-11-25 13:59:00,
2013-11-25 08:01:00,31.2,20.1,30.25,South,182,2.5,4.6,63,0.00,CLR,,0.00,19.0,WeatherDisplay:10.37,2013-11-25 14:01:00,
2013-11-25 08:02:00,31.2,20.1,30.25,SSW,199,2.1,3.5,63,0.00,CLR,,0.00,19.0,WeatherDisplay:10.37,2013-11-25 14:02:00,
2013-11-25 08:03:00,31.2,20.1,30.25,South,190,3.3,4.0,63,0.00,CLR,,0.00,19.0,WeatherDisplay:10.37,2013-11-25 14:03:00,
2013-11-25 08:05:00,31.3,20.2,30.25,South,170,2.0,3.5,63,0.00,CLR,,0.00,19.0,WeatherDisplay:10.37,2013-11-25 14:05:00,
2013-11-25 08:07:00,31.3,20.2,30.25,South,175,0.1,1.2,63,0.00,CLR,,0.00,19.0,WeatherDisplay:10.37,2013-11-25 14:07:00,
2013-11-25 08:08:00,31.3,20.2,30.25,South,175,0.6,2.3,63,0.00,CLR,,0.00,19.0,WeatherDisplay:10.37,2013-11-25 14:08:00,
2013-11-25 08:09:00,31.4,20.2,30.25,South,182,1.9,3.5,63,0.00,CLR,,0.00,19.0,WeatherDisplay:10.37,2013-11-25 14:09:00,
2013-11-25 08:10:00,31.4,20.2,30.25,South,182,1.8,4.0,63,0.00,CLR,,0.00,19.0,WeatherDisplay:10.37,2013-11-25 14:10:00,
2013-11-25 08:12:00,31.4,20.2,30.25,South,186,1.1,3.5,63,0.00,CLR,,0.00,21.0,WeatherDisplay:10.37,2013-11-25 14:12:00,
2013-11-25 08:13:00,31.4,20.2,30.25,South,175,1.0,3.5,63,0.00,CLR,,0.00,21.0,WeatherDisplay:10.37,2013-11-25 14:13:00,
2013-11-25 08:15:00,31.4,20.2,30.25,South,184,0.4,1.2,63,0.00,CLR,,0.00,26.0,WeatherDisplay:10.37,2013-11-25 14:15:00,
2013-11-25 08:17:00,31.5,20.3,30.25,South,184,0.6,2.3,63,0.00,CLR,,0.00,28.0,WeatherDisplay:10.37,2013-11-25 14:17:00,
2013-11-25 08:18:00,31.5,20.0,30.25,South,184,0.6,2.3,62,0.00,CLR,,0.00,28.0,WeatherDisplay:10.37,2013-11-25 14:18:00,
2013-11-25 08:20:00,31.5,20.0,30.25,South,190,1.4,4.6,62,0.00,CLR,,0.00,30.0,WeatherDisplay:10.37,2013-11-25 14:20:00,
2013-11-25 08:21:00,31.5,20.0,30.25,South,190,2.3,4.0,62,0.00,CLR,,0.00,30.0,WeatherDisplay:10.37,2013-11-25 14:21:00,
2013-11-25 08:22:00,31.5,19.6,30.25,South,171,2.7,5.8,61,0.00,CLR,,0.00,32.0,WeatherDisplay:10.37,2013-11-25 14:22:00,
2013-11-25 08:23:00,31.5,20.0,30.25,South,183,2.1,3.5,62,0.00,CLR,,0.00,33.0,WeatherDisplay:10.37,2013-11-25 14:23:00,
2013-11-25 08:26:00,31.5,20.0,30.25,SSE,151,1.3,3.5,62,0.00,CLR,,0.00,39.0,WeatherDisplay:10.37,2013-11-25 14:26:00,
2013-11-25 08:27:00,31.6,20.1,30.25,SSW,204,1.9,3.5,62,0.00,CLR,,0.00,40.0,WeatherDisplay:10.37,2013-11-25 14:27:00,
2013-11-25 08:28:00,31.6,20.1,30.25,South,175,1.3,3.5,62,0.00,CLR,,0.00,40.0,WeatherDisplay:10.37,2013-11-25 14:28:00,
2013-11-25 08:29:00,31.6,20.1,30.25,South,175,0.7,3.5,62,0.00,CLR,,0.00,40.0,WeatherDisplay:10.37,2013-11-25 14:29:00,
2013-11-25 08:31:00,31.7,20.2,30.25,SW,216,2.4,5.8,62,0.00,CLR,,0.00,44.0,WeatherDisplay:10.37,2013-11-25 14:31:00,
2013-11-25 08:32:00,31.7,20.2,30.25,SSE,166,2.0,5.8,62,0.00,CLR,,0.00,44.0,WeatherDisplay:10.37,2013-11-25 14:32:00,
2013-11-25 08:33:00,31.7,20.2,30.25,SSE,149,2.1,3.5,62,0.00,CLR,,0.00,44.0,WeatherDisplay:10.37,2013-11-25 14:33:00,
2013-11-25 08:34:00,31.7,20.2,30.25,South,175,2.3,3.5,62,0.00,CLR,,0.00,44.0,WeatherDisplay:10.37,2013-11-25 14:34:00,
2013-11-25 08:36:00,31.8,19.9,30.25,SSE,161,1.7,3.5,61,0.00,CLR,,0.00,44.0,WeatherDisplay:10.37,2013-11-25 14:36:00,
2013-11-25 08:37:00,31.8,19.9,30.25,South,182,3.3,3.5,61,0.00,CLR,,0.00,54.0,WeatherDisplay:10.37,2013-11-25 14:37:00,
2013-11-25 08:38:00,31.8,19.9,30.25,South,169,1.6,6.9,61,0.00,CLR,,0.00,58.0,WeatherDisplay:10.37,2013-11-25 14:38:00,
2013-11-25 08:39:00,31.9,20.0,30.25,SSE,157,1.7,6.0,61,0.00,CLR,,0.00,58.0,WeatherDisplay:10.37,2013-11-25 14:39:00,
2013-11-25 08:41:00,31.9,20.0,30.25,SE,143,3.4,6.9,61,0.00,CLR,,0.00,56.0,WeatherDisplay:10.37,2013-11-25 14:41:00,
2013-11-25 08:42:00,31.9,20.0,30.25,South,175,3.0,4.0,61,0.00,CLR,,0.00,58.0,WeatherDisplay:10.37,2013-11-25 14:42:00,
2013-11-25 08:43:00,31.9,20.0,30.25,South,169,3.5,5.8,61,0.00,CLR,,0.00,58.0,WeatherDisplay:10.37,2013-11-25 14:43:00,
2013-11-25 08:44:00,31.9,20.0,30.25,SSW,197,4.0,8.1,61,0.00,CLR,,0.00,56.0,WeatherDisplay:10.37,2013-11-25 14:44:00,
2013-11-25 08:46:00,32.0,20.1,30.25,South,170,3.5,5.8,61,0.00,CLR,,0.00,54.0,WeatherDisplay:10.37,2013-11-25 14:46:00,
2013-11-25 08:47:00,32.0,20.1,30.25,SSE,163,1.2,5.8,61,0.00,CLR,,0.00,63.0,WeatherDisplay:10.37,2013-11-25 14:47:00,
2013-11-25 08:49:00,32.0,20.1,30.25,SW,221,1.9,4.6,61,0.00,CLR,,0.00,53.0,WeatherDisplay:10.37,2013-11-25 14:49:00,
2013-11-25 08:52:00,32.1,20.2,30.25,South,169,0.4,3.5,61,0.00,CLR,,0.00,62.0,WeatherDisplay:10.37,2013-11-25 14:52:00,
2013-11-25 08:54:00,32.1,20.2,30.26,South,175,1.2,3.5,61,0.00,CLR,,0.00,42.0,WeatherDisplay:10.37,2013-11-25 14:54:00,
2013-11-25 08:57:00,32.1,20.2,30.26,SSW,198,3.0,9.2,61,0.00,CLR,,0.00,47.0,WeatherDisplay:10.37,2013-11-25 14:57:00,
2013-11-25 08:58:00,32.1,20.2,30.26,SSW,198,3.1,9.2,61,0.00,CLR,,0.00,47.0,WeatherDisplay:10.37,2013-11-25 14:58:00,
2013-11-25 08:59:00,32.1,20.2,30.26,SSW,209,1.5,8.1,61,0.00,OVC,,0.00,46.0,WeatherDisplay:10.37,2013-11-25 14:59:00,
2013-11-25 09:00:00,32.1,20.2,30.25,SSW,213,4.7,6.9,61,0.00,OVC,,0.00,54.0,WeatherDisplay:10.37,2013-11-25 15:00:00,
2013-11-25 09:02:00,32.1,20.2,30.26,SW,224,2.0,8.1,61,0.00,OVC,,0.00,40.0,WeatherDisplay:10.37,2013-11-25 15:02:00,
2013-11-25 09:03:00,32.1,20.2,30.26,SW,224,1.7,8.1,61,0.00,OVC,,0.00,40.0,WeatherDisplay:10.37,2013-11-25 15:03:00,
2013-11-25 09:04:00,32.1,20.2,30.25,WSW,245,1.1,3.0,61,0.00,OVC,,0.00,51.0,WeatherDisplay:10.37,2013-11-25 15:04:00,
2013-11-25 09:05:00,32.1,20.5,30.25,SW,225,2.3,4.0,62,0.00,OVC,,0.00,46.0,WeatherDisplay:10.37,2013-11-25 15:05:00,
2013-11-25 09:07:00,32.1,20.2,30.26,South,184,1.4,5.8,61,0.00,OVC,,0.00,47.0,WeatherDisplay:10.37,2013-11-25 15:07:00,
2013-11-25 09:08:00,32.1,20.2,30.26,SE,143,1.4,5.8,61,0.00,OVC,,0.00,47.0,WeatherDisplay:10.37,2013-11-25 15:08:00,
2013-11-25 09:09:00,32.1,20.2,30.25,SSW,201,1.3,3.5,61,0.00,OVC,,0.00,58.0,WeatherDisplay:10.37,2013-11-25 15:09:00,
2013-11-25 09:11:00,32.1,20.2,30.25,South,187,2.2,3.5,61,0.00,OVC,,0.00,53.0,WeatherDisplay:10.37,2013-11-25 15:11:00,
2013-11-25 09:13:00,32.1,20.2,30.25,SW,236,0.8,3.5,61,0.00,OVC,,0.00,53.0,WeatherDisplay:10.37,2013-11-25 15:13:00,
2013-11-25 09:14:00,32.1,20.2,30.25,SSW,211,0.5,2.0,61,0.00,OVC,,0.00,56.0,WeatherDisplay:10.37,2013-11-25 15:14:00,
2013-11-25 09:16:00,32.1,20.2,30.25,SSW,194,1.6,8.1,61,0.00,OVC,,0.00,54.0,WeatherDisplay:10.37,2013-11-25 15:16:00,
2013-11-25 09:18:00,32.1,20.2,30.25,SW,223,2.6,6.9,61,0.00,OVC,,0.00,58.0,WeatherDisplay:10.37,2013-11-25 15:18:00,
2013-11-25 09:19:00,32.1,20.2,30.25,SSW,204,4.2,6.9,61,0.00,OVC,,0.00,58.0,WeatherDisplay:10.37,2013-11-25 15:19:00,
2013-11-25 09:21:00,32.1,20.2,30.25,WSW,252,2.2,4.6,61,0.00,OVC,,0.00,56.0,WeatherDisplay:10.37,2013-11-25 15:21:00,
2013-11-25 09:22:00,32.1,20.2,30.25,SW,226,2.7,5.8,61,0.00,OVC,,0.00,60.0,WeatherDisplay:10.37,2013-11-25 15:22:00,
2013-11-25 09:23:00,32.1,20.2,30.25,South,173,3.5,6.9,61,0.00,OVC,,0.00,63.0,WeatherDisplay:10.37,2013-11-25 15:23:00,
2013-11-25 09:24:00,32.1,20.2,30.25,SW,228,2.8,6.9,61,0.00,OVC,,0.00,65.0,WeatherDisplay:10.37,2013-11-25 15:24:00,
2013-11-25 09:25:00,32.1,20.2,30.25,SW,219,2.2,3.5,61,0.00,OVC,,0.00,67.0,WeatherDisplay:10.37,2013-11-25 15:25:00,
2013-11-25 09:26:00,32.2,20.2,30.25,SSE,156,1.1,4.6,61,0.00,OVC,,0.00,67.0,WeatherDisplay:10.37,2013-11-25 15:26:00,
2013-11-25 09:27:00,32.2,20.2,30.25,SSE,156,0.9,3.5,61,0.00,OVC,,0.00,69.0,WeatherDisplay:10.37,2013-11-25 15:27:00,
2013-11-25 09:28:00,32.3,20.7,30.25,SSE,157,0.9,2.3,62,0.00,OVC,,0.00,72.0,WeatherDisplay:10.37,2013-11-25 15:28:00,
2013-11-25 09:29:00,32.3,20.7,30.25,SSE,166,0.8,2.3,62,0.00,OVC,,0.00,77.0,WeatherDisplay:10.37,2013-11-25 15:29:00,
2013-11-25 09:30:00,32.4,20.8,30.25,SW,227,3.3,4.6,62,0.00,OVC,,0.00,79.0,WeatherDisplay:10.37,2013-11-25 15:30:00,
2013-11-25 09:31:00,32.4,20.4,30.25,SSW,207,1.0,5.8,61,0.00,OVC,,0.00,79.0,WeatherDisplay:10.37,2013-11-25 15:31:00,
2013-11-25 09:32:00,32.5,20.5,30.25,South,176,1.4,2.3,61,0.00,OVC,,0.00,81.0,WeatherDisplay:10.37,2013-11-25 15:32:00,
2013-11-25 09:33:00,32.5,20.5,30.24,South,176,0.8,3.5,61,0.00,OVC,,0.00,83.0,WeatherDisplay:10.37,2013-11-25 15:33:00,
2013-11-25 09:35:00,32.6,21.0,30.25,South,178,0.3,2.0,62,0.00,OVC,,0.00,81.0,WeatherDisplay:10.37,2013-11-25 15:35:00,
2013-11-25 09:37:00,32.7,20.7,30.25,SSW,195,0.5,2.3,61,0.00,OVC,,0.00,83.0,WeatherDisplay:10.37,2013-11-25 15:37:00,
2013-11-25 09:39:00,32.7,20.7,30.25,WSW,237,2.3,5.8,61,0.00,OVC,,0.00,86.0,WeatherDisplay:10.37,2013-11-25 15:39:00,
2013-11-25 09:40:00,32.7,20.7,30.25,WSW,246,2.9,5.8,61,0.00,OVC,,0.00,93.0,WeatherDisplay:10.37,2013-11-25 15:40:00,
2013-11-25 09:41:00,32.7,20.7,30.25,West,271,3.2,5.0,61,0.00,OVC,,0.00,98.0,WeatherDisplay:10.37,2013-11-25 15:41:00,
2013-11-25 09:43:00,32.7,20.3,30.24,WSW,237,2.5,3.5,60,0.00,OVC,,0.00,114.0,WeatherDisplay:10.37,2013-11-25 15:43:00,
2013-11-25 09:44:00,32.8,20.8,30.25,SW,233,2.4,3.5,61,0.00,OVC,,0.00,118.0,WeatherDisplay:10.37,2013-11-25 15:44:00,
2013-11-25 09:45:00,32.9,20.9,30.24,WSW,248,2.2,3.5,61,0.00,OVC,,0.00,118.0,WeatherDisplay:10.37,2013-11-25 15:45:00,
2013-11-25 09:46:00,32.9,20.5,30.24,SW,220,1.5,4.6,60,0.00,OVC,,0.00,123.0,WeatherDisplay:10.37,2013-11-25 15:46:00,
2013-11-25 09:48:00,33.0,21.0,30.24,SSW,202,0.8,3.5,61,0.00,OVC,,0.00,127.0,WeatherDisplay:10.37,2013-11-25 15:48:00,
2013-11-25 09:49:00,33.0,20.6,30.24,SW,214,0.8,3.5,60,0.00,OVC,,0.00,123.0,WeatherDisplay:10.37,2013-11-25 15:49:00,
2013-11-25 09:50:00,33.1,21.1,30.25,SW,229,2.0,3.5,61,0.00,OVC,,0.00,123.0,WeatherDisplay:10.37,2013-11-25 15:50:00,
2013-11-25 09:51:00,33.1,21.1,30.24,SW,234,3.2,6.9,61,0.00,OVC,,0.00,123.0,WeatherDisplay:10.37,2013-11-25 15:51:00,
2013-11-25 09:52:00,33.2,20.8,30.24,SW,229,2.5,6.9,60,0.00,OVC,,0.00,128.0,WeatherDisplay:10.37,2013-11-25 15:52:00,
2013-11-25 09:53:00,33.3,21.3,30.24,South,189,1.0,3.5,61,0.00,OVC,,0.00,132.0,WeatherDisplay:10.37,2013-11-25 15:53:00,
2013-11-25 09:54:00,33.3,20.9,30.25,South,190,1.6,4.0,60,0.00,OVC,,0.00,132.0,WeatherDisplay:10.37,2013-11-25 15:54:00,
2013-11-25 09:55:00,33.4,21.4,30.25,SW,235,2.4,3.5,61,0.00,OVC,,0.00,134.0,WeatherDisplay:10.37,2013-11-25 15:55:00,
2013-11-25 09:57:00,33.5,21.1,30.25,SW,226,1.8,3.5,60,0.00,OVC,,0.00,135.0,WeatherDisplay:10.37,2013-11-25 15:57:00,
2013-11-25 09:58:00,33.5,21.1,30.25,SW,222,2.7,4.6,60,0.00,OVC,,0.00,146.0,WeatherDisplay:10.37,2013-11-25 15:58:00,
2013-11-25 09:59:00,33.5,21.1,30.25,SW,222,2.1,4.6,60,0.00,OVC,,0.00,146.0,WeatherDisplay:10.37,2013-11-25 15:59:00,
2013-11-25 10:00:00,33.5,20.7,30.25,WSW,246,2.6,3.5,59,0.00,OVC,,0.00,174.0,WeatherDisplay:10.37,2013-11-25 16:00:00,
2013-11-25 10:02:00,33.6,21.2,30.25,SE,144,2.5,3.5,60,0.00,OVC,,0.00,188.0,WeatherDisplay:10.37,2013-11-25 16:02:00,
2013-11-25 10:03:00,33.7,21.3,30.25,SSE,165,1.7,3.5,60,0.00,OVC,,0.00,190.0,WeatherDisplay:10.37,2013-11-25 16:03:00,
2013-11-25 10:04:00,33.8,21.4,30.25,SW,219,1.7,3.5,60,0.00,OVC,,0.00,193.0,WeatherDisplay:10.37,2013-11-25 16:04:00,
2013-11-25 10:05:00,33.9,21.5,30.25,SSW,192,2.4,3.5,60,0.00,OVC,,0.00,197.0,WeatherDisplay:10.37,2013-11-25 16:05:00,
2013-11-25 10:06:00,33.9,21.5,30.25,South,191,1.5,3.5,60,0.00,OVC,,0.00,197.0,WeatherDisplay:10.37,2013-11-25 16:06:00,
2013-11-25 10:07:00,34.2,21.7,30.25,SW,232,5.9,9.0,60,0.00,OVC,,0.00,193.0,WeatherDisplay:10.37,2013-11-25 16:07:00,
2013-11-25 10:08:00,34.2,21.7,30.25,SW,232,5.9,9.0,60,0.00,OVC,,0.00,193.0,WeatherDisplay:10.37,2013-11-25 16:08:00,
2013-11-25 10:10:00,34.3,21.4,30.25,WSW,238,3.5,6.9,59,0.00,OVC,,0.00,197.0,WeatherDisplay:10.37,2013-11-25 16:10:00,
2013-11-25 10:11:00,34.3,21.4,30.25,WSW,238,2.8,6.9,59,0.00,OVC,,0.00,197.0,WeatherDisplay:10.37,2013-11-25 16:11:00,
2013-11-25 10:13:00,34.3,21.0,30.25,SW,221,2.4,6.9,58,0.00,OVC,,0.00,200.0,WeatherDisplay:10.37,2013-11-25 16:13:00,
2013-11-25 10:14:00,34.3,21.0,30.25,SW,226,1.5,3.5,58,0.00,OVC,,0.00,200.0,WeatherDisplay:10.37,2013-11-25 16:14:00,
2013-11-25 10:15:00,34.2,20.9,30.25,SW,223,0.9,3.5,58,0.00,OVC,,0.00,188.0,WeatherDisplay:10.37,2013-11-25 16:15:00,
2013-11-25 10:16:00,34.2,20.9,30.25,SW,217,0.6,3.0,58,0.00,OVC,,0.00,167.0,WeatherDisplay:10.37,2013-11-25 16:16:00,
2013-11-25 10:18:00,34.4,21.5,30.25,South,173,2.5,5.8,59,0.00,OVC,,0.00,153.0,WeatherDisplay:10.37,2013-11-25 16:18:00,
2013-11-25 10:19:00,34.4,21.5,30.25,WSW,247,1.1,3.5,59,0.00,OVC,,0.00,153.0,WeatherDisplay:10.37,2013-11-25 16:19:00,
2013-11-25 10:20:00,34.5,21.6,30.25,SW,233,3.1,5.0,59,0.00,OVC,,0.00,162.0,WeatherDisplay:10.37,2013-11-25 16:20:00,
2013-11-25 10:21:00,34.5,21.6,30.25,NNW,342,3.5,4.6,59,0.00,OVC,,0.00,163.0,WeatherDisplay:10.37,2013-11-25 16:21:00,
2013-11-25 10:23:00,34.4,21.1,30.25,West,266,2.9,6.0,58,0.00,OVC,,0.00,167.0,WeatherDisplay:10.37,2013-11-25 16:23:00,
2013-11-25 10:24:00,34.4,21.1,30.25,SW,229,5.2,8.1,58,0.00,OVC,,0.00,158.0,WeatherDisplay:10.37,2013-11-25 16:24:00,
2013-11-25 10:25:00,34.4,21.1,30.25,SW,219,3.5,6.9,58,0.00,OVC,,0.00,155.0,WeatherDisplay:10.37,2013-11-25 16:25:00,
2013-11-25 10:26:00,34.4,21.5,30.25,SW,217,2.7,5.8,59,0.00,OVC,,0.00,155.0,WeatherDisplay:10.37,2013-11-25 16:26:00,
2013-11-25 10:28:00,34.4,21.5,30.25,SW,223,1.9,4.6,59,0.00,OVC,,0.00,167.0,WeatherDisplay:10.37,2013-11-25 16:28:00,
2013-11-25 10:29:00,34.3,21.0,30.25,SSE,167,1.1,4.6,58,0.00,OVC,,0.00,162.0,WeatherDisplay:10.37,2013-11-25 16:29:00,
2013-11-25 10:30:00,34.4,21.1,30.25,WSW,238,3.1,3.1,58,0.00,OVC,,0.00,163.0,WeatherDisplay:10.37,2013-11-25 16:30:00,
2013-11-25 10:31:00,34.4,21.5,30.25,WSW,248,3.6,5.8,59,0.00,OVC,,0.00,163.0,WeatherDisplay:10.37,2013-11-25 16:31:00,
2013-11-25 10:32:00,34.4,21.5,30.25,SW,233,4.3,6.9,59,0.00,OVC,,0.00,192.0,WeatherDisplay:10.37,2013-11-25 16:32:00,
2013-11-25 10:33:00,34.4,21.5,30.25,SSW,205,2.7,6.9,59,0.00,OVC,,0.00,206.0,WeatherDisplay:10.37,2013-11-25 16:33:00,
2013-11-25 10:34:00,34.6,21.7,30.25,SSW,207,1.8,5.8,59,0.00,OVC,,0.00,216.0,WeatherDisplay:10.37,2013-11-25 16:34:00,
2013-11-25 10:36:00,34.6,21.3,30.25,SW,221,2.3,4.0,58,0.00,OVC,,0.00,227.0,WeatherDisplay:10.37,2013-11-25 16:36:00,
2013-11-25 10:37:00,34.7,21.4,30.24,SW,215,3.4,6.0,58,0.00,OVC,,0.00,202.0,WeatherDisplay:10.37,2013-11-25 16:37:00,
2013-11-25 10:38:00,34.7,21.4,30.24,SSW,202,4.2,6.9,58,0.00,OVC,,0.00,206.0,WeatherDisplay:10.37,2013-11-25 16:38:00,
2013-11-25 10:40:00,34.8,21.9,30.24,SW,217,4.0,6.9,59,0.00,OVC,,0.00,211.0,WeatherDisplay:10.37,2013-11-25 16:40:00,
2013-11-25 10:41:00,34.9,22.0,30.24,SW,217,2.6,4.6,59,0.00,OVC,,0.00,209.0,WeatherDisplay:10.37,2013-11-25 16:41:00,
2013-11-25 10:42:00,35.1,21.8,30.24,SW,221,3.9,6.0,58,0.00,OVC,,0.00,188.0,WeatherDisplay:10.37,2013-11-25 16:42:00,
2013-11-25 10:43:00,35.1,21.4,30.24,South,177,4.0,6.9,57,0.00,OVC,,0.00,188.0,WeatherDisplay:10.37,2013-11-25 16:43:00,
2013-11-25 10:44:00,35.1,21.8,30.24,WSW,250,3.9,6.9,58,0.00,OVC,,0.00,178.0,WeatherDisplay:10.37,2013-11-25 16:44:00,
2013-11-25 10:45:00,35.1,21.8,30.24,SW,234,3.0,4.6,58,0.00,OVC,,0.00,176.0,WeatherDisplay:10.37,2013-11-25 16:45:00,
2013-11-25 10:46:00,35.2,21.9,30.24,SW,234,2.6,3.5,58,0.00,OVC,,0.00,174.0,WeatherDisplay:10.37,2013-11-25 16:46:00,
2013-11-25 10:47:00,35.3,22.0,30.24,SSE,158,2.8,2.8,58,0.00,OVC,,0.00,172.0,WeatherDisplay:10.37,2013-11-25 16:47:00,
2013-11-25 10:48:00,35.2,21.5,30.24,SSW,198,2.3,6.9,57,0.00,OVC,,0.00,172.0,WeatherDisplay:10.37,2013-11-25 16:48:00,
2013-11-25 10:49:00,35.2,21.5,30.24,SSE,154,2.2,3.5,57,0.00,OVC,,0.00,176.0,WeatherDisplay:10.37,2013-11-25 16:49:00,
2013-11-25 10:50:00,35.1,21.4,30.24,SW,219,4.0,7.0,57,0.00,OVC,,0.00,178.0,WeatherDisplay:10.37,2013-11-25 16:50:00,
2013-11-25 10:51:00,35.1,21.4,30.24,South,191,3.8,6.9,57,0.00,OVC,,0.00,176.0,WeatherDisplay:10.37,2013-11-25 16:51:00,
2013-11-25 10:52:00,35.1,21.4,30.24,WSW,240,2.7,6.9,57,0.00,OVC,,0.00,171.0,WeatherDisplay:10.37,2013-11-25 16:52:00,
2013-11-25 10:54:00,35.1,21.8,30.24,WSW,243,0.6,2.3,58,0.00,OVC,,0.00,163.0,WeatherDisplay:10.37,2013-11-25 16:54:00,
2013-11-25 10:56:00,35.1,21.8,30.24,South,171,1.5,4.6,58,0.00,OVC,,0.00,167.0,WeatherDisplay:10.37,2013-11-25 16:56:00,
2013-11-25 10:57:00,35.1,21.8,30.23,SSW,196,3.9,4.0,58,0.00,OVC,,0.00,171.0,WeatherDisplay:10.37,2013-11-25 16:57:00,
2013-11-25 10:59:00,35.1,21.8,30.23,SW,236,2.5,4.6,58,0.00,OVC,,0.00,179.0,WeatherDisplay:10.37,2013-11-25 16:59:00,
2013-11-25 11:01:00,35.2,21.9,30.23,SSE,167,1.3,3.5,58,0.00,OVC,,0.00,181.0,WeatherDisplay:10.37,2013-11-25 17:01:00,
2013-11-25 11:02:00,35.2,21.5,30.23,SSW,211,3.4,6.0,57,0.00,OVC,,0.00,185.0,WeatherDisplay:10.37,2013-11-25 17:02:00,
2013-11-25 11:03:00,35.1,21.4,30.23,WSW,238,3.5,6.9,57,0.00,OVC,,0.00,178.0,WeatherDisplay:10.37,2013-11-25 17:03:00,
2013-11-25 11:04:00,35.1,21.4,30.23,SW,234,2.6,5.8,57,0.00,OVC,,0.00,178.0,WeatherDisplay:10.37,2013-11-25 17:04:00,
2013-11-25 11:05:00,35.2,21.9,30.23,West,259,1.9,3.5,58,0.00,OVC,,0.00,169.0,WeatherDisplay:10.37,2013-11-25 17:05:00,
2013-11-25 11:06:00,35.2,21.9,30.23,WSW,245,4.8,6.0,58,0.00,OVC,,0.00,165.0,WeatherDisplay:10.37,2013-11-25 17:06:00,
2013-11-25 11:07:00,35.2,21.5,30.23,SSW,204,5.1,8.1,57,0.00,OVC,,0.00,176.0,WeatherDisplay:10.37,2013-11-25 17:07:00,
2013-11-25 11:09:00,35.1,21.8,30.23,SW,230,4.0,9.2,58,0.00,OVC,,0.00,193.0,WeatherDisplay:10.37,2013-11-25 17:09:00,
2013-11-25 11:10:00,35.2,21.9,30.23,SW,224,1.7,5.0,58,0.00,OVC,,0.00,195.0,WeatherDisplay:10.37,2013-11-25 17:10:00,
2013-11-25 11:11:00,35.2,21.5,30.23,West,260,2.2,4.6,57,0.00,OVC,,0.00,199.0,WeatherDisplay:10.37,2013-11-25 17:11:00,
2013-11-25 11:12:00,35.3,22.0,30.23,SW,225,2.2,4.6,58,0.00,OVC,,0.00,192.0,WeatherDisplay:10.37,2013-11-25 17:12:00,
2013-11-25 11:13:00,35.3,21.6,30.23,West,261,0.6,4.6,57,0.00,OVC,,0.00,193.0,WeatherDisplay:10.37,2013-11-25 17:13:00,
2013-11-25 11:14:00,35.3,21.6,30.23,SW,219,0.8,2.3,57,0.00,OVC,,0.00,221.0,WeatherDisplay:10.37,2013-11-25 17:14:00,
2013-11-25 11:17:00,35.6,21.9,30.23,South,175,2.1,3.5,57,0.00,OVC,,0.00,359.0,WeatherDisplay:10.37,2013-11-25 17:17:00,
2013-11-25 11:18:00,35.8,21.6,30.22,SSE,162,1.1,3.5,56,0.00,OVC,,0.00,338.0,WeatherDisplay:10.37,2013-11-25 17:18:00,
2013-11-25 11:19:00,35.8,21.6,30.22,SSE,161,1.2,2.3,56,0.00,OVC,,0.00,329.0,WeatherDisplay:10.37,2013-11-25 17:19:00,
2013-11-25 11:20:00,35.9,21.7,30.22,SW,234,2.0,5.0,56,0.00,OVC,,0.00,329.0,WeatherDisplay:10.37,2013-11-25 17:20:00,
2013-11-25 11:22:00,36.3,22.1,30.22,SW,230,6.1,9.2,56,0.00,OVC,,0.00,373.0,WeatherDisplay:10.37,2013-11-25 17:22:00,
2013-11-25 11:23:00,36.7,22.5,30.22,SW,227,3.0,9.2,56,0.00,OVC,,0.00,432.0,WeatherDisplay:10.37,2013-11-25 17:23:00,
2013-11-25 11:24:00,36.8,22.1,30.22,SW,229,2.1,4.6,55,0.00,OVC,,0.00,404.0,WeatherDisplay:10.37,2013-11-25 17:24:00,
2013-11-25 11:25:00,37.0,22.7,30.22,SSW,205,2.2,4.6,56,0.00,OVC,,0.00,413.0,WeatherDisplay:10.37,2013-11-25 17:25:00,
2013-11-25 11:27:00,37.3,22.6,30.22,SSE,153,2.4,4.0,55,0.00,OVC,,0.00,267.0,WeatherDisplay:10.37,2013-11-25 17:27:00,
2013-11-25 11:28:00,37.3,22.6,30.22,SSE,153,2.4,3.5,55,0.00,OVC,,0.00,267.0,WeatherDisplay:10.37,2013-11-25 17:28:00,
2013-11-25 11:29:00,37.2,22.1,30.22,South,173,2.5,4.6,54,0.00,OVC,,0.00,237.0,WeatherDisplay:10.37,2013-11-25 17:29:00,
2013-11-25 11:30:00,37.1,22.0,30.22,SSW,205,2.8,4.6,54,0.00,OVC,,0.00,200.0,WeatherDisplay:10.37,2013-11-25 17:30:00,
2013-11-25 11:32:00,36.8,22.1,30.21,SW,226,2.0,4.6,55,0.00,OVC,,0.00,183.0,WeatherDisplay:10.37,2013-11-25 17:32:00,
2013-11-25 11:33:00,36.9,22.2,30.21,SSE,155,1.3,3.5,55,0.00,OVC,,0.00,176.0,WeatherDisplay:10.37,2013-11-25 17:33:00,
2013-11-25 11:34:00,36.8,21.7,30.22,South,189,4.0,4.6,54,0.00,OVC,,0.00,163.0,WeatherDisplay:10.37,2013-11-25 17:34:00,
2013-11-25 11:35:00,36.7,21.2,30.21,SW,226,3.8,8.1,53,0.00,OVC,,0.00,163.0,WeatherDisplay:10.37,2013-11-25 17:35:00,
2013-11-25 11:38:00,36.5,21.4,30.21,South,169,1.5,2.3,54,0.00,OVC,,0.00,153.0,WeatherDisplay:10.37,2013-11-25 17:38:00,
2013-11-25 11:39:00,36.5,21.4,30.22,SSW,209,4.3,4.3,54,0.00,OVC,,0.00,148.0,WeatherDisplay:10.37,2013-11-25 17:39:00,
2013-11-25 11:40:00,36.6,21.5,30.22,SW,233,3.7,6.9,54,0.00,OVC,,0.00,144.0,WeatherDisplay:10.37,2013-11-25 17:40:00,
2013-11-25 11:41:00,36.6,21.5,30.22,West,280,1.0,3.5,54,0.00,OVC,,0.00,141.0,WeatherDisplay:10.37,2013-11-25 17:41:00,
2013-11-25 11:43:00,36.3,20.8,30.21,WSW,241,0.8,3.5,53,0.00,OVC,,0.00,135.0,WeatherDisplay:10.37,2013-11-25 17:43:00,
2013-11-25 11:44:00,36.2,21.1,30.21,SSE,168,0.9,3.5,54,0.00,OVC,,0.00,130.0,WeatherDisplay:10.37,2013-11-25 17:44:00,
2013-11-25 11:45:00,36.2,20.7,30.22,South,178,1.0,3.5,53,0.00,OVC,,0.00,128.0,WeatherDisplay:10.37,2013-11-25 17:45:00,
2013-11-25 11:46:00,36.2,21.6,30.22,SW,217,1.8,3.5,55,0.00,OVC,,0.00,121.0,WeatherDisplay:10.37,2013-11-25 17:46:00,
2013-11-25 11:48:00,36.1,21.0,30.21,SE,143,1.8,5.8,54,0.00,OVC,,0.00,114.0,WeatherDisplay:10.37,2013-11-25 17:48:00,
2013-11-25 11:49:00,36.1,21.0,30.21,SSE,168,2.9,4.6,54,0.00,OVC,,0.00,114.0,WeatherDisplay:10.37,2013-11-25 17:49:00,
2013-11-25 11:51:00,35.9,21.3,30.21,South,189,2.3,3.5,55,0.00,OVC,,0.00,114.0,WeatherDisplay:10.37,2013-11-25 17:51:00,
2013-11-25 11:52:00,35.8,21.2,30.21,SW,215,2.4,4.6,55,0.00,OVC,,0.00,111.0,WeatherDisplay:10.37,2013-11-25 17:52:00,
2013-11-25 11:53:00,35.7,20.7,30.22,SW,226,1.1,3.5,54,0.00,OVC,,0.00,102.0,WeatherDisplay:10.37,2013-11-25 17:53:00,
2013-11-25 11:54:00,35.6,20.6,30.22,SSW,192,1.3,2.3,54,0.00,OVC,,0.00,104.0,WeatherDisplay:10.37,2013-11-25 17:54:00,
2013-11-25 11:56:00,35.4,20.8,30.21,South,175,1.8,4.0,55,0.00,OVC,,0.00,109.0,WeatherDisplay:10.37,2013-11-25 17:56:00,
2013-11-25 11:57:00,35.3,20.7,30.22,SW,218,3.9,6.9,55,0.00,OVC,,0.00,109.0,WeatherDisplay:10.37,2013-11-25 17:57:00,
2013-11-25 11:58:00,35.3,20.7,30.21,SSW,206,1.5,6.9,55,0.00,OVC,,0.00,109.0,WeatherDisplay:10.37,2013-11-25 17:58:00,
2013-11-25 12:00:00,35.4,20.8,30.21,SW,231,1.8,7.0,55,0.00,OVC,,0.00,111.0,WeatherDisplay:10.37,2013-11-25 18:00:00,
2013-11-25 12:01:00,35.5,21.3,30.21,SW,234,3.0,6.9,56,0.00,OVC,,0.00,113.0,WeatherDisplay:10.37,2013-11-25 18:01:00,
2013-11-25 12:02:00,35.6,21.4,30.21,SW,234,1.3,3.5,56,0.00,OVC,,0.00,113.0,WeatherDisplay:10.37,2013-11-25 18:02:00,
2013-11-25 12:04:00,35.7,21.1,30.21,South,189,1.6,4.6,55,0.00,OVC,,0.00,114.0,WeatherDisplay:10.37,2013-11-25 18:04:00,
2013-11-25 12:05:00,35.8,21.6,30.21,South,187,0.7,2.3,56,0.00,OVC,,0.00,116.0,WeatherDisplay:10.37,2013-11-25 18:05:00,
2013-11-25 12:06:00,35.9,21.3,30.21,South,188,0.2,2.3,55,0.00,OVC,,0.00,116.0,WeatherDisplay:10.37,2013-11-25 18:06:00,
2013-11-25 12:07:00,35.9,21.3,30.21,SW,228,0.6,1.2,55,0.00,OVC,,0.00,121.0,WeatherDisplay:10.37,2013-11-25 18:07:00,
2013-11-25 12:10:00,36.3,22.1,30.21,SSW,193,2.7,4.6,56,0.00,OVC,,0.00,116.0,WeatherDisplay:10.37,2013-11-25 18:10:00,
2013-11-25 12:11:00,36.4,21.3,30.21,SW,232,2.8,4.0,54,0.00,OVC,,0.00,107.0,WeatherDisplay:10.37,2013-11-25 18:11:00,
2013-11-25 12:12:00,36.4,21.8,30.21,WSW,238,3.4,4.6,55,0.00,OVC,,0.00,107.0,WeatherDisplay:10.37,2013-11-25 18:12:00,
2013-11-25 12:15:00,36.4,20.4,30.21,WSW,246,3.3,6.9,52,0.00,OVC,,0.00,113.0,WeatherDisplay:10.37,2013-11-25 18:15:00,
2013-11-25 12:16:00,36.4,20.4,30.21,South,172,2.9,4.6,52,0.00,OVC,,0.00,113.0,WeatherDisplay:10.37,2013-11-25 18:16:00,
2013-11-25 12:17:00,36.3,20.8,30.21,WSW,238,2.5,3.5,53,0.00,OVC,,0.00,113.0,WeatherDisplay:10.37,2013-11-25 18:17:00,
2013-11-25 12:20:00,36.2,20.7,30.21,SSE,163,2.6,4.0,53,0.00,OVC,,0.00,105.0,WeatherDisplay:10.37,2013-11-25 18:20:00,
2013-11-25 12:21:00,36.2,20.7,30.20,SW,231,3.7,5.8,53,0.00,OVC,,0.00,104.0,WeatherDisplay:10.37,2013-11-25 18:21:00,
2013-11-25 12:22:00,36.1,20.6,30.20,SSW,197,3.2,5.8,53,0.00,OVC,,0.00,102.0,WeatherDisplay:10.37,2013-11-25 18:22:00,
2013-11-25 12:23:00,36.1,21.0,30.20,SW,219,2.7,4.6,54,0.00,OVC,,0.00,100.0,WeatherDisplay:10.37,2013-11-25 18:23:00,
2013-11-25 12:25:00,36.1,20.6,30.20,SW,226,1.9,5.8,53,0.00,OVC,,0.00,100.0,WeatherDisplay:10.37,2013-11-25 18:25:00,
2013-11-25 12:26:00,36.1,20.6,30.20,SW,231,2.5,4.6,53,0.00,OVC,,0.00,102.0,WeatherDisplay:10.37,2013-11-25 18:26:00,
2013-11-25 12:27:00,36.1,21.0,30.20,SW,231,0.5,3.5,54,0.00,OVC,,0.00,107.0,WeatherDisplay:10.37,2013-11-25 18:27:00,
2013-11-25 12:28:00,36.1,20.6,30.20,SW,219,1.5,3.5,53,0.00,OVC,,0.00,105.0,WeatherDisplay:10.37,2013-11-25 18:28:00,
2013-11-25 12:30:00,36.2,21.1,30.20,WSW,248,1.1,3.5,54,0.00,OVC,,0.00,107.0,WeatherDisplay:10.37,2013-11-25 18:30:00,
2013-11-25 12:31:00,36.2,21.1,30.20,SW,227,1.9,3.5,54,0.00,OVC,,0.00,113.0,WeatherDisplay:10.37,2013-11-25 18:31:00,
2013-11-25 12:32:00,36.2,21.1,30.20,WSW,246,1.2,3.5,54,0.00,OVC,,0.00,120.0,WeatherDisplay:10.37,2013-11-25 18:32:00,
2013-11-25 12:34:00,36.3,21.2,30.20,SW,218,2.3,3.5,54,0.00,OVC,,0.00,120.0,WeatherDisplay:10.37,2013-11-25 18:34:00,
2013-11-25 12:36:00,36.4,21.3,30.20,SW,223,1.6,3.5,54,0.00,OVC,,0.00,127.0,WeatherDisplay:10.37,2013-11-25 18:36:00,
2013-11-25 12:37:00,36.4,21.8,30.20,SSW,200,4.7,4.7,55,0.00,OVC,,0.00,132.0,WeatherDisplay:10.37,2013-11-25 18:37:00,
2013-11-25 12:38:00,36.4,21.3,30.20,SW,232,3.5,6.9,54,0.00,OVC,,0.00,134.0,WeatherDisplay:10.37,2013-11-25 18:38:00,
2013-11-25 12:39:00,36.4,21.3,30.20,SW,217,3.1,5.8,54,0.00,OVC,,0.00,134.0,WeatherDisplay:10.37,2013-11-25 18:39:00,
2013-11-25 12:41:00,36.4,21.3,30.20,SSE,153,1.3,3.5,54,0.00,OVC,,0.00,146.0,WeatherDisplay:10.37,2013-11-25 18:41:00,
2013-11-25 12:43:00,36.5,21.0,30.20,South,180,2.0,4.6,53,0.00,OVC,,0.00,146.0,WeatherDisplay:10.37,2013-11-25 18:43:00,
2013-11-25 12:44:00,36.5,21.4,30.20,South,186,1.9,3.5,54,0.00,OVC,,0.00,148.0,WeatherDisplay:10.37,2013-11-25 18:44:00,
2013-11-25 12:46:00,36.7,22.0,30.20,SW,225,4.6,6.9,55,0.00,OVC,,0.00,146.0,WeatherDisplay:10.37,2013-11-25 18:46:00,
2013-11-25 12:48:00,36.8,21.7,30.20,WSW,238,3.0,5.8,54,0.00,OVC,,0.00,135.0,WeatherDisplay:10.37,2013-11-25 18:48:00,
2013-11-25 12:49:00,36.8,21.7,30.20,SSW,207,1.5,5.8,54,0.00,OVC,,0.00,134.0,WeatherDisplay:10.37,2013-11-25 18:49:00,
2013-11-25 12:51:00,36.8,21.3,30.19,South,171,1.1,3.5,53,0.00,OVC,,0.00,125.0,WeatherDisplay:10.37,2013-11-25 18:51:00,
2013-11-25 12:52:00,36.8,21.7,30.19,SSW,210,1.2,2.3,54,0.00,OVC,,0.00,118.0,WeatherDisplay:10.37,2013-11-25 18:52:00,
2013-11-25 12:53:00,36.8,21.7,30.19,South,178,1.4,5.8,54,0.00,OVC,,0.00,113.0,WeatherDisplay:10.37,2013-11-25 18:53:00,
2013-11-25 12:55:00,36.8,21.7,30.19,South,186,1.5,3.5,54,0.00,OVC,,0.00,104.0,WeatherDisplay:10.37,2013-11-25 18:55:00,
2013-11-25 12:56:00,36.7,21.6,30.20,WSW,249,2.8,5.8,54,0.00,OVC,,0.00,97.0,WeatherDisplay:10.37,2013-11-25 18:56:00,
2013-11-25 12:57:00,36.6,21.5,30.20,SW,223,2.7,5.8,54,0.00,OVC,,0.00,97.0,WeatherDisplay:10.37,2013-11-25 18:57:00,
2013-11-25 12:58:00,36.6,21.5,30.20,SW,226,3.6,7.0,54,0.00,OVC,,0.00,97.0,WeatherDisplay:10.37,2013-11-25 18:58:00,
2013-11-25 13:00:00,36.4,21.3,30.20,SW,229,3.0,4.0,54,0.00,OVC,,0.00,95.0,WeatherDisplay:10.37,2013-11-25 19:00:00,
2013-11-25 13:02:00,36.3,21.2,30.19,SW,234,2.2,4.6,54,0.00,OVC,,0.00,97.0,WeatherDisplay:10.37,2013-11-25 19:02:00,
2013-11-25 13:03:00,36.3,21.7,30.19,South,169,2.7,4.6,55,0.00,OVC,,0.00,98.0,WeatherDisplay:10.37,2013-11-25 19:03:00,
2013-11-25 13:05:00,36.3,21.2,30.19,SSE,163,2.2,4.6,54,0.00,OVC,,0.00,105.0,WeatherDisplay:10.37,2013-11-25 19:05:00,
2013-11-25 13:07:00,36.3,21.2,30.19,SW,227,1.4,2.0,54,0.00,OVC,,0.00,118.0,WeatherDisplay:10.37,2013-11-25 19:07:00,
2013-11-25 13:08:00,36.4,21.8,30.19,SW,232,2.2,3.5,55,0.00,OVC,,0.00,123.0,WeatherDisplay:10.37,2013-11-25 19:08:00,
2013-11-25 13:11:00,36.5,21.4,30.19,SW,215,3.7,7.0,54,0.00,OVC,,0.00,123.0,WeatherDisplay:10.37,2013-11-25 19:11:00,
2013-11-25 13:13:00,36.5,21.4,30.19,South,177,2.8,4.6,54,0.00,OVC,,0.00,120.0,WeatherDisplay:10.37,2013-11-25 19:13:00,
2013-11-25 13:14:00,36.6,21.5,30.19,SW,222,3.3,4.6,54,0.00,OVC,,0.00,114.0,WeatherDisplay:10.37,2013-11-25 19:14:00,
2013-11-25 13:16:00,36.5,21.4,30.19,SW,225,2.9,5.8,54,0.00,OVC,,0.00,111.0,WeatherDisplay:10.37,2013-11-25 19:16:00,
2013-11-25 13:18:00,36.5,21.4,30.19,South,184,2.3,4.0,54,0.00,OVC,,0.00,111.0,WeatherDisplay:10.37,2013-11-25 19:18:00,
2013-11-25 13:19:00,36.5,21.0,30.19,SW,223,2.4,5.8,53,0.00,OVC,,0.00,109.0,WeatherDisplay:10.37,2013-11-25 19:19:00,
2013-11-25 13:21:00,36.4,21.3,30.19,South,180,2.1,5.8,54,0.00,OVC,,0.00,107.0,WeatherDisplay:10.37,2013-11-25 19:21:00,
2013-11-25 13:23:00,36.4,21.3,30.18,SW,218,2.9,4.6,54,0.00,OVC,,0.00,105.0,WeatherDisplay:10.37,2013-11-25 19:23:00,
2013-11-25 13:25:00,36.5,21.4,30.18,WSW,242,3.1,5.0,54,0.00,OVC,,0.00,109.0,WeatherDisplay:10.37,2013-11-25 19:25:00,
2013-11-25 13:26:00,36.5,21.4,30.18,WSW,253,1.4,5.8,54,0.00,OVC,,0.00,118.0,WeatherDisplay:10.37,2013-11-25 19:26:00,
2013-11-25 13:28:00,36.5,21.0,30.18,SSW,213,1.0,4.0,53,0.00,OVC,,0.00,120.0,WeatherDisplay:10.37,2013-11-25 19:28:00,
2013-11-25 13:29:00,36.5,21.0,30.18,WSW,257,1.4,3.5,53,0.00,OVC,,0.00,118.0,WeatherDisplay:10.37,2013-11-25 19:29:00,
2013-11-25 13:30:00,36.5,21.0,30.18,SW,221,4.0,4.6,53,0.00,OVC,,0.00,118.0,WeatherDisplay:10.37,2013-11-25 19:30:00,
2013-11-25 13:31:00,36.6,21.5,30.18,SSW,213,5.7,8.1,54,0.00,OVC,,0.00,120.0,WeatherDisplay:10.37,2013-11-25 19:31:00,
2013-11-25 13:33:00,36.5,21.0,30.18,SSW,194,2.1,5.8,53,0.00,OVC,,0.00,121.0,WeatherDisplay:10.37,2013-11-25 19:33:00,
2013-11-25 13:34:00,36.5,21.4,30.18,SSW,206,2.2,4.6,54,0.00,OVC,,0.00,125.0,WeatherDisplay:10.37,2013-11-25 19:34:00,
2013-11-25 13:35:00,36.6,21.5,30.18,SW,233,2.3,3.5,54,0.00,OVC,,0.00,130.0,WeatherDisplay:10.37,2013-11-25 19:35:00,
2013-11-25 13:37:00,36.7,21.6,30.18,West,273,2.7,4.0,54,0.00,OVC,,0.00,137.0,WeatherDisplay:10.37,2013-11-25 19:37:00,
2013-11-25 13:38:00,36.7,21.2,30.18,SW,227,2.6,4.6,53,0.00,OVC,,0.00,135.0,WeatherDisplay:10.37,2013-11-25 19:38:00,
2013-11-25 13:39:00,36.7,21.2,30.18,SW,233,2.4,5.0,53,0.00,OVC,,0.00,134.0,WeatherDisplay:10.37,2013-11-25 19:39:00,
2013-11-25 13:40:00,36.8,21.3,30.18,SSW,206,2.1,4.6,53,0.00,OVC,,0.00,134.0,WeatherDisplay:10.37,2013-11-25 19:40:00,
2013-11-25 13:42:00,36.9,21.8,30.18,SSW,207,0.5,1.2,54,0.00,OVC,,0.00,134.0,WeatherDisplay:10.37,2013-11-25 19:42:00,
2013-11-25 13:44:00,37.1,22.4,30.18,SW,231,5.1,11.5,55,0.00,OVC,,0.00,135.0,WeatherDisplay:10.37,2013-11-25 19:44:00,
2013-11-25 13:45:00,37.0,21.4,30.18,WSW,237,1.2,11.5,53,0.00,OVC,,0.00,139.0,WeatherDisplay:10.37,2013-11-25 19:45:00,
2013-11-25 13:47:00,36.9,21.3,30.18,SW,234,2.0,5.8,53,0.00,OVC,,0.00,139.0,WeatherDisplay:10.37,2013-11-25 19:47:00,
2013-11-25 13:49:00,36.9,21.8,30.18,SW,227,2.7,8.0,54,0.00,OVC,,0.00,130.0,WeatherDisplay:10.37,2013-11-25 19:49:00,
2013-11-25 13:50:00,36.9,21.3,30.18,SW,228,5.0,8.1,53,0.00,OVC,,0.00,132.0,WeatherDisplay:10.37,2013-11-25 19:50:00,
2013-11-25 13:51:00,36.9,21.8,30.18,SSW,206,2.0,6.0,54,0.00,OVC,,0.00,141.0,WeatherDisplay:10.37,2013-11-25 19:51:00,
2013-11-25 13:52:00,37.0,21.9,30.18,WSW,242,4.2,6.0,54,0.00,OVC,,0.00,146.0,WeatherDisplay:10.37,2013-11-25 19:52:00,
2013-11-25 13:54:00,36.9,21.8,30.18,SW,227,4.8,9.2,54,0.00,OVC,,0.00,149.0,WeatherDisplay:10.37,2013-11-25 19:54:00,
2013-11-25 13:55:00,36.9,21.3,30.18,SSW,207,3.5,4.6,53,0.00,OVC,,0.00,155.0,WeatherDisplay:10.37,2013-11-25 19:55:00,
2013-11-25 13:56:00,36.9,21.8,30.18,SW,221,2.8,7.0,54,0.00,OVC,,0.00,165.0,WeatherDisplay:10.37,2013-11-25 19:56:00,
2013-11-25 13:57:00,37.0,21.9,30.18,SW,227,4.9,6.9,54,0.00,OVC,,0.00,171.0,WeatherDisplay:10.37,2013-11-25 19:57:00,
2013-11-25 13:59:00,37.1,22.0,30.18,South,176,0.2,3.5,54,0.00,OVC,,0.00,163.0,WeatherDisplay:10.37,2013-11-25 19:59:00,
2013-11-25 14:01:00,37.1,21.5,30.18,WSW,252,0.6,1.2,53,0.00,OVC,,0.00,169.0,WeatherDisplay:10.37,2013-11-25 20:01:00,
2013-11-25 14:02:00,37.1,21.5,30.18,WSW,252,0.5,1.2,53,0.00,OVC,,0.00,172.0,WeatherDisplay:10.37,2013-11-25 20:02:00,
2013-11-25 14:04:00,37.3,22.2,30.18,WSW,246,0.6,2.3,54,0.00,OVC,,0.00,160.0,WeatherDisplay:10.37,2013-11-25 20:04:00,
2013-11-25 14:05:00,37.3,21.7,30.18,WSW,246,0.5,2.3,53,0.00,OVC,,0.00,162.0,WeatherDisplay:10.37,2013-11-25 20:05:00,
2013-11-25 14:06:00,37.3,22.2,30.18,SW,236,0.6,2.3,54,0.00,OVC,,0.00,162.0,WeatherDisplay:10.37,2013-11-25 20:06:00,
2013-11-25 14:07:00,37.4,21.8,30.18,SW,236,0.0,2.3,53,0.00,OVC,,0.00,171.0,WeatherDisplay:10.37,2013-11-25 20:07:00,
2013-11-25 14:08:00,37.4,21.8,30.18,SW,236,0.0,0.0,53,0.00,OVC,,0.00,171.0,WeatherDisplay:10.37,2013-11-25 20:08:00,
2013-11-25 14:09:00,37.4,21.8,30.18,SSW,205,0.3,1.2,53,0.00,OVC,,0.00,179.0,WeatherDisplay:10.37,2013-11-25 20:09:00,
2013-11-25 14:10:00,37.4,21.8,30.18,SSW,205,0.3,1.2,53,0.00,OVC,,0.00,183.0,WeatherDisplay:10.37,2013-11-25 20:10:00,
2013-11-25 14:11:00,37.6,22.0,30.18,SSW,208,2.6,5.8,53,0.00,OVC,,0.00,178.0,WeatherDisplay:10.37,2013-11-25 20:11:00,
2013-11-25 14:12:00,37.6,21.5,30.18,WSW,244,1.0,3.5,52,0.00,OVC,,0.00,181.0,WeatherDisplay:10.37,2013-11-25 20:12:00,
2013-11-25 14:13:00,37.6,21.5,30.18,South,191,0.8,3.5,52,0.00,OVC,,0.00,181.0,WeatherDisplay:10.37,2013-11-25 20:13:00,
2013-11-25 14:15:00,37.6,21.5,30.18,SW,221,3.6,4.6,52,0.00,OVC,,0.00,188.0,WeatherDisplay:10.37,2013-11-25 20:15:00,
2013-11-25 14:16:00,37.6,22.0,30.18,WSW,244,1.7,3.5,53,0.00,OVC,,0.00,181.0,WeatherDisplay:10.37,2013-11-25 20:16:00,
2013-11-25 14:17:00,37.7,22.1,30.18,WSW,240,0.8,3.5,53,0.00,OVC,,0.00,178.0,WeatherDisplay:10.37,2013-11-25 20:17:00,
2013-11-25 14:19:00,37.8,23.1,30.18,WSW,253,1.8,3.5,55,0.00,OVC,,0.00,153.0,WeatherDisplay:10.37,2013-11-25 20:19:00,
2013-11-25 14:20:00,37.9,22.3,30.17,WSW,237,2.2,3.5,53,0.00,OVC,,0.00,153.0,WeatherDisplay:10.37,2013-11-25 20:20:00,
2013-11-25 14:21:00,37.8,21.7,30.18,SW,219,4.9,8.1,52,0.00,OVC,,0.00,162.0,WeatherDisplay:10.37,2013-11-25 20:21:00,
2013-11-25 14:22:00,37.8,22.2,30.18,WNW,290,2.5,4.6,53,0.00,OVC,,0.00,144.0,WeatherDisplay:10.37,2013-11-25 20:22:00,
2013-11-25 14:25:00,37.5,21.9,30.18,SW,223,3.0,4.0,53,0.00,OVC,,0.00,151.0,WeatherDisplay:10.37,2013-11-25 20:25:00,
2013-11-25 14:26:00,37.4,21.8,30.18,SW,223,3.6,6.9,53,0.00,OVC,,0.00,171.0,WeatherDisplay:10.37,2013-11-25 20:26:00,
2013-11-25 14:27:00,37.4,21.8,30.18,NW,318,2.3,6.9,53,0.00,OVC,,0.00,183.0,WeatherDisplay:10.37,2013-11-25 20:27:00,
2013-11-25 14:30:00,37.5,21.9,30.17,West,265,3.7,6.9,53,0.00,OVC,,0.00,188.0,WeatherDisplay:10.37,2013-11-25 20:30:00,
2013-11-25 14:32:00,37.6,22.0,30.17,WSW,250,2.8,6.9,53,0.00,OVC,,0.00,183.0,WeatherDisplay:10.37,2013-11-25 20:32:00,
2013-11-25 14:33:00,37.6,22.0,30.17,WSW,250,1.9,5.8,53,0.00,OVC,,0.00,183.0,WeatherDisplay:10.37,2013-11-25 20:33:00,
2013-11-25 14:35:00,37.5,21.5,30.17,SW,224,3.2,5.8,52,0.00,OVC,,0.00,181.0,WeatherDisplay:10.37,2013-11-25 20:35:00,
2013-11-25 14:37:00,37.4,21.4,30.17,SW,217,0.2,3.5,52,0.00,OVC,,0.00,171.0,WeatherDisplay:10.37,2013-11-25 20:37:00,
2013-11-25 14:38:00,37.4,21.8,30.18,SW,217,0.7,3.5,53,0.00,OVC,,0.00,158.0,WeatherDisplay:10.37,2013-11-25 20:38:00,
2013-11-25 14:40:00,37.4,21.8,30.17,South,188,0.4,3.5,53,0.00,OVC,,0.00,144.0,WeatherDisplay:10.37,2013-11-25 20:40:00,
2013-11-25 14:43:00,37.5,21.9,30.17,South,189,3.2,3.5,53,0.00,OVC,,0.00,148.0,WeatherDisplay:10.37,2013-11-25 20:43:00,
2013-11-25 14:44:00,37.5,21.9,30.17,SW,227,2.6,7.0,53,0.00,OVC,,0.00,128.0,WeatherDisplay:10.37,2013-11-25 20:44:00,
2013-11-25 14:45:00,37.4,21.8,30.17,South,189,5.9,6.9,53,0.00,OVC,,0.00,121.0,WeatherDisplay:10.37,2013-11-25 20:45:00,
2013-11-25 14:48:00,37.3,21.7,30.17,SW,225,1.4,6.9,53,0.00,OVC,,0.00,104.0,WeatherDisplay:10.37,2013-11-25 20:48:00,
2013-11-25 14:49:00,37.1,21.5,30.17,SW,228,1.8,3.5,53,0.00,OVC,,0.00,102.0,WeatherDisplay:10.37,2013-11-25 20:49:00,
2013-11-25 14:50:00,37.1,22.0,30.17,SW,231,1.9,4.6,54,0.00,OVC,,0.00,98.0,WeatherDisplay:10.37,2013-11-25 20:50:00,
2013-11-25 14:51:00,37.1,22.0,30.17,SW,231,1.5,4.6,54,0.00,OVC,,0.00,98.0,WeatherDisplay:10.37,2013-11-25 20:51:00,
2013-11-25 14:53:00,37.1,21.5,30.17,WSW,242,0.6,3.5,53,0.00,OVC,,0.00,111.0,WeatherDisplay:10.37,2013-11-25 20:53:00,
2013-11-25 14:54:00,37.0,21.4,30.17,West,269,2.9,3.5,53,0.00,OVC,,0.00,125.0,WeatherDisplay:10.37,2013-11-25 20:54:00,
2013-11-25 14:56:00,37.0,21.9,30.17,West,261,3.2,4.6,54,0.00,OVC,,0.00,121.0,WeatherDisplay:10.37,2013-11-25 20:56:00,
2013-11-25 14:58:00,37.0,21.9,30.17,SW,223,1.3,4.0,54,0.00,CLR,,0.00,105.0,WeatherDisplay:10.37,2013-11-25 20:58:00,
2013-11-25 14:59:00,37.0,21.4,30.17,SW,234,2.5,3.5,53,0.00,CLR,,0.00,105.0,WeatherDisplay:10.37,2013-11-25 20:59:00,
2013-11-25 15:01:00,37.0,22.3,30.17,SW,234,0.5,3.5,55,0.00,CLR,,0.00,97.0,WeatherDisplay:10.37,2013-11-25 21:01:00,
2013-11-25 15:03:00,37.1,22.0,30.17,WSW,252,1.9,3.0,54,0.00,CLR,,0.00,91.0,WeatherDisplay:10.37,2013-11-25 21:03:00,
2013-11-25 15:04:00,37.1,22.0,30.17,West,281,3.3,5.8,54,0.00,CLR,,0.00,91.0,WeatherDisplay:10.37,2013-11-25 21:04:00,
2013-11-25 15:05:00,37.0,21.4,30.17,WSW,244,2.6,4.6,53,0.00,CLR,,0.00,91.0,WeatherDisplay:10.37,2013-11-25 21:05:00,
2013-11-25 15:06:00,37.0,21.9,30.17,WSW,246,1.8,3.5,54,0.00,CLR,,0.00,90.0,WeatherDisplay:10.37,2013-11-25 21:06:00,
2013-11-25 15:08:00,36.8,21.7,30.17,WSW,251,1.4,3.5,54,0.00,CLR,,0.00,76.0,WeatherDisplay:10.37,2013-11-25 21:08:00,
2013-11-25 15:09:00,36.8,21.3,30.17,WSW,251,0.3,2.3,53,0.00,CLR,,0.00,72.0,WeatherDisplay:10.37,2013-11-25 21:09:00,
2013-11-25 15:10:00,36.7,21.6,30.17,SW,229,1.5,4.0,54,0.00,CLR,,0.00,74.0,WeatherDisplay:10.37,2013-11-25 21:10:00,
2013-11-25 15:11:00,36.7,21.6,30.17,SW,235,2.1,3.5,54,0.00,CLR,,0.00,74.0,WeatherDisplay:10.37,2013-11-25 21:11:00,
2013-11-25 15:14:00,36.6,21.5,30.17,West,281,1.4,6.9,54,0.00,CLR,,0.00,70.0,WeatherDisplay:10.37,2013-11-25 21:14:00,
2013-11-25 15:15:00,36.6,21.5,30.17,WSW,257,1.3,4.6,54,0.00,CLR,,0.00,74.0,WeatherDisplay:10.37,2013-11-25 21:15:00,
2013-11-25 15:16:00,36.5,21.4,30.17,SW,234,1.2,3.5,54,0.00,CLR,,0.00,77.0,WeatherDisplay:10.37,2013-11-25 21:16:00,
2013-11-25 15:17:00,36.5,21.4,30.17,SW,234,1.3,3.5,54,0.00,CLR,,0.00,74.0,WeatherDisplay:10.37,2013-11-25 21:17:00,
2013-11-25 15:19:00,36.4,21.3,30.17,SW,234,0.0,0.0,54,0.00,CLR,,0.00,72.0,WeatherDisplay:10.37,2013-11-25 21:19:00,
2013-11-25 15:20:00,36.4,21.3,30.17,SW,234,0.0,0.0,54,0.00,CLR,,0.00,72.0,WeatherDisplay:10.37,2013-11-25 21:20:00,
2013-11-25 15:21:00,36.4,21.8,30.17,SW,234,1.6,2.3,55,0.00,CLR,,0.00,69.0,WeatherDisplay:10.37,2013-11-25 21:21:00,
2013-11-25 15:22:00,36.4,21.8,30.17,SW,234,1.5,3.5,55,0.00,CLR,,0.00,69.0,WeatherDisplay:10.37,2013-11-25 21:22:00,
2013-11-25 15:24:00,36.5,21.8,30.17,SW,234,2.9,4.6,55,0.00,CLR,,0.00,81.0,WeatherDisplay:10.37,2013-11-25 21:24:00,
2013-11-25 15:25:00,36.5,21.8,30.17,SW,234,1.8,4.6,55,0.00,CLR,,0.00,98.0,WeatherDisplay:10.37,2013-11-25 21:25:00,
2013-11-25 15:26:00,36.5,21.8,30.17,SW,234,1.4,3.5,55,0.00,CLR,,0.00,118.0,WeatherDisplay:10.37,2013-11-25 21:26:00,
2013-11-25 15:27:00,36.5,22.3,30.17,SW,234,0.9,2.3,56,0.00,CLR,,0.00,132.0,WeatherDisplay:10.37,2013-11-25 21:27:00,
2013-11-25 15:30:00,36.8,21.7,30.17,SW,234,0.2,2.3,54,0.00,CLR,,0.00,114.0,WeatherDisplay:10.37,2013-11-25 21:30:00,
2013-11-25 15:31:00,36.9,22.2,30.17,SW,234,1.0,3.5,55,0.00,CLR,,0.00,121.0,WeatherDisplay:10.37,2013-11-25 21:31:00,
2013-11-25 15:32:00,36.9,21.8,30.17,SW,234,0.7,3.5,54,0.00,CLR,,0.00,109.0,WeatherDisplay:10.37,2013-11-25 21:32:00,
2013-11-25 15:35:00,37.0,22.3,30.17,SW,227,2.2,3.5,55,0.00,CLR,,0.00,98.0,WeatherDisplay:10.37,2013-11-25 21:35:00,
2013-11-25 15:36:00,37.0,22.3,30.17,SW,227,1.2,3.5,55,0.00,CLR,,0.00,98.0,WeatherDisplay:10.37,2013-11-25 21:36:00,
2013-11-25 15:37:00,37.1,22.4,30.17,WSW,245,3.4,6.9,55,0.00,CLR,,0.00,95.0,WeatherDisplay:10.37,2013-11-25 21:37:00,
2013-11-25 15:38:00,37.1,22.0,30.17,SW,217,3.2,5.8,54,0.00,CLR,,0.00,86.0,WeatherDisplay:10.37,2013-11-25 21:38:00,
2013-11-25 15:41:00,37.1,22.0,30.17,SW,234,3.0,4.6,54,0.00,CLR,,0.00,79.0,WeatherDisplay:10.37,2013-11-25 21:41:00,
2013-11-25 15:42:00,37.0,21.9,30.18,SSW,213,1.4,3.5,54,0.00,CLR,,0.00,76.0,WeatherDisplay:10.37,2013-11-25 21:42:00,
2013-11-25 15:43:00,36.9,21.8,30.18,WSW,252,1.4,3.5,54,0.00,CLR,,0.00,74.0,WeatherDisplay:10.37,2013-11-25 21:43:00,
2013-11-25 15:46:00,36.8,22.1,30.17,West,269,2.6,4.0,55,0.00,CLR,,0.00,76.0,WeatherDisplay:10.37,2013-11-25 21:46:00,
2013-11-25 15:47:00,36.8,22.1,30.17,SW,223,3.0,5.8,55,0.00,CLR,,0.00,74.0,WeatherDisplay:10.37,2013-11-25 21:47:00,
2013-11-25 15:49:00,36.7,22.0,30.18,WSW,238,1.4,3.5,55,0.00,CLR,,0.00,69.0,WeatherDisplay:10.37,2013-11-25 21:49:00,
2013-11-25 15:51:00,36.6,22.4,30.18,SW,226,2.4,3.5,56,0.00,CLR,,0.00,63.0,WeatherDisplay:10.37,2013-11-25 21:51:00,
2013-11-25 15:52:00,36.6,22.4,30.17,West,261,1.2,2.3,56,0.00,CLR,,0.00,60.0,WeatherDisplay:10.37,2013-11-25 21:52:00,
2013-11-25 15:53:00,36.6,22.4,30.17,West,267,1.0,2.3,56,0.00,CLR,,0.00,60.0,WeatherDisplay:10.37,2013-11-25 21:53:00,
2013-11-25 15:54:00,36.6,22.4,30.18,West,271,0.1,2.3,56,0.00,CLR,,0.00,56.0,WeatherDisplay:10.37,2013-11-25 21:54:00,
2013-11-25 15:56:00,36.5,22.3,30.18,West,271,0.1,2.3,56,0.00,CLR,,0.00,51.0,WeatherDisplay:10.37,2013-11-25 21:56:00,
2013-11-25 15:57:00,36.5,22.3,30.17,West,271,0.0,0.0,56,0.00,CLR,,0.00,46.0,WeatherDisplay:10.37,2013-11-25 21:57:00,
2013-11-25 15:58:00,36.5,22.3,30.17,West,271,0.1,1.0,56,0.00,CLR,,0.00,46.0,WeatherDisplay:10.37,2013-11-25 21:58:00,
2013-11-25 15:59:00,36.5,21.8,30.17,West,271,0.0,1.2,55,0.00,CLR,,0.00,40.0,WeatherDisplay:10.37,2013-11-25 21:59:00,
2013-11-25 16:01:00,36.5,22.3,30.17,West,271,0.2,0.0,56,0.00,CLR,,0.00,40.0,WeatherDisplay:10.37,2013-11-25 22:01:00,
2013-11-25 16:02:00,36.4,22.2,30.17,West,271,0.2,1.2,56,0.00,CLR,,0.00,39.0,WeatherDisplay:10.37,2013-11-25 22:02:00,
2013-11-25 16:03:00,36.4,22.2,30.17,West,271,0.0,1.2,56,0.00,CLR,,0.00,40.0,WeatherDisplay:10.37,2013-11-25 22:03:00,
2013-11-25 16:04:00,36.4,22.2,30.17,West,271,0.0,0.0,56,0.00,CLR,,0.00,40.0,WeatherDisplay:10.37,2013-11-25 22:04:00,
2013-11-25 16:06:00,36.3,22.1,30.17,West,271,0.0,0.0,56,0.00,CLR,,0.00,46.0,WeatherDisplay:10.37,2013-11-25 22:06:00,
2013-11-25 16:07:00,36.3,22.1,30.17,West,271,0.0,1.0,56,0.00,CLR,,0.00,42.0,WeatherDisplay:10.37,2013-11-25 22:07:00,
2013-11-25 16:08:00,36.2,22.0,30.17,SW,229,1.8,3.5,56,0.00,CLR,,0.00,51.0,WeatherDisplay:10.37,2013-11-25 22:08:00,
2013-11-25 16:10:00,36.2,22.4,30.17,WSW,240,1.7,3.5,57,0.00,CLR,,0.00,35.0,WeatherDisplay:10.37,2013-11-25 22:10:00,
2013-11-25 16:11:00,36.2,22.4,30.17,WSW,240,0.5,3.5,57,0.00,CLR,,0.00,40.0,WeatherDisplay:10.37,2013-11-25 22:11:00,
2013-11-25 16:12:00,36.2,22.4,30.17,WSW,240,0.4,2.3,57,0.00,CLR,,0.00,42.0,WeatherDisplay:10.37,2013-11-25 22:12:00,
2013-11-25 16:13:00,36.1,22.3,30.17,WSW,240,0.3,2.0,57,0.00,CLR,,0.00,37.0,WeatherDisplay:10.37,2013-11-25 22:13:00,
2013-11-25 16:14:00,36.2,22.4,30.17,WSW,240,0.6,2.3,57,0.00,CLR,,0.00,32.0,WeatherDisplay:10.37,2013-11-25 22:14:00,
2013-11-25 16:16:00,36.1,22.3,30.17,WSW,238,0.7,3.5,57,0.00,CLR,,0.00,32.0,WeatherDisplay:10.37,2013-11-25 22:16:00,
2013-11-25 16:17:00,36.1,22.3,30.17,WSW,238,0.0,2.3,57,0.00,CLR,,0.00,33.0,WeatherDisplay:10.37,2013-11-25 22:17:00,
2013-11-25 16:18:00,36.1,22.3,30.17,WSW,238,0.0,2.3,57,0.00,CLR,,0.00,33.0,WeatherDisplay:10.37,2013-11-25 22:18:00,
2013-11-25 16:19:00,36.1,22.3,30.17,WSW,238,1.3,2.0,57,0.00,CLR,,0.00,37.0,WeatherDisplay:10.37,2013-11-25 22:19:00,
2013-11-25 16:22:00,36.2,22.4,30.17,SW,223,1.3,3.5,57,0.00,CLR,,0.00,33.0,WeatherDisplay:10.37,2013-11-25 22:22:00,
2013-11-25 16:23:00,36.2,22.4,30.17,SW,223,0.8,2.3,57,0.00,CLR,,0.00,33.0,WeatherDisplay:10.37,2013-11-25 22:23:00,
2013-11-25 16:24:00,36.2,22.4,30.17,SW,223,0.9,2.3,57,0.00,CLR,,0.00,33.0,WeatherDisplay:10.37,2013-11-25 22:24:00,
2013-11-25 16:25:00,36.2,22.8,30.17,SW,223,0.6,2.3,58,0.00,CLR,,0.00,30.0,WeatherDisplay:10.37,2013-11-25 22:25:00,
2013-11-25 16:27:00,36.2,22.4,30.17,SW,223,2.4,3.5,57,0.00,CLR,,0.00,25.0,WeatherDisplay:10.37,2013-11-25 22:27:00,
2013-11-25 16:28:00,36.2,22.8,30.17,SW,223,1.5,3.5,58,0.00,CLR,,0.00,25.0,WeatherDisplay:10.37,2013-11-25 22:28:00,
2013-11-25 16:29:00,36.2,22.8,30.17,SW,223,1.0,3.5,58,0.00,CLR,,0.00,25.0,WeatherDisplay:10.37,2013-11-25 22:29:00,
2013-11-25 16:30:00,36.1,22.7,30.17,SW,223,0.8,3.5,58,0.00,CLR,,0.00,23.0,WeatherDisplay:10.37,2013-11-25 22:30:00,
2013-11-25 16:32:00,36.1,22.7,30.17,SW,223,0.3,2.3,58,0.00,CLR,,0.00,25.0,WeatherDisplay:10.37,2013-11-25 22:32:00,
2013-11-25 16:33:00,36.1,22.7,30.17,SW,223,0.3,2.3,58,0.00,CLR,,0.00,25.0,WeatherDisplay:10.37,2013-11-25 22:33:00,
2013-11-25 16:34:00,36.0,22.6,30.17,SW,223,0.0,0.0,58,0.00,CLR,,0.00,23.0,WeatherDisplay:10.37,2013-11-25 22:34:00,
2013-11-25 16:35:00,36.0,22.6,30.17,SW,223,0.0,0.0,58,0.00,CLR,,0.00,21.0,WeatherDisplay:10.37,2013-11-25 22:35:00,
2013-11-25 16:38:00,35.9,22.5,30.17,SW,223,0.1,2.3,58,0.00,CLR,,0.00,16.0,WeatherDisplay:10.37,2013-11-25 22:38:00,
2013-11-25 16:39:00,35.9,22.5,30.17,SW,223,0.0,0.0,58,0.00,CLR,,0.00,16.0,WeatherDisplay:10.37,2013-11-25 22:39:00,
2013-11-25 16:40:00,35.9,22.5,30.17,SW,223,0.0,0.0,58,0.00,CLR,,0.00,14.0,WeatherDisplay:10.37,2013-11-25 22:40:00,
2013-11-25 16:43:00,35.7,22.8,30.17,SW,223,0.1,1.2,59,0.00,CLR,,0.00,12.0,WeatherDisplay:10.37,2013-11-25 22:43:00,
2013-11-25 16:44:00,35.7,22.8,30.17,SW,223,0.1,1.2,59,0.00,CLR,,0.00,12.0,WeatherDisplay:10.37,2013-11-25 22:44:00,
2013-11-25 16:45:00,35.7,22.8,30.17,SW,223,0.0,0.0,59,0.00,CLR,,0.00,11.0,WeatherDisplay:10.37,2013-11-25 22:45:00,
2013-11-25 16:46:00,35.7,22.8,30.17,SW,223,0.0,0.0,59,0.00,CLR,,0.00,11.0,WeatherDisplay:10.37,2013-11-25 22:46:00,
2013-11-25 16:48:00,35.6,22.7,30.17,SW,223,0.1,1.2,59,0.00,CLR,,0.00,11.0,WeatherDisplay:10.37,2013-11-25 22:48:00,
2013-11-25 16:49:00,35.6,22.7,30.17,SW,223,0.0,0.0,59,0.00,CLR,,0.00,11.0,WeatherDisplay:10.37,2013-11-25 22:49:00,
2013-11-25 16:50:00,35.5,22.6,30.17,SW,223,0.0,0.0,59,0.00,CLR,,0.00,9.0,WeatherDisplay:10.37,2013-11-25 22:50:00,
2013-11-25 16:51:00,35.5,22.6,30.16,SW,223,0.0,0.0,59,0.00,CLR,,0.00,9.0,WeatherDisplay:10.37,2013-11-25 22:51:00,
2013-11-25 16:53:00,35.5,22.6,30.16,SW,223,0.0,1.2,59,0.00,CLR,,0.00,7.0,WeatherDisplay:10.37,2013-11-25 22:53:00,
2013-11-25 16:55:00,35.4,22.9,30.16,SW,223,0.0,0.0,60,0.00,CLR,,0.00,7.0,WeatherDisplay:10.37,2013-11-25 22:55:00,
2013-11-25 16:56:00,35.3,22.8,30.16,SW,223,0.0,1.2,60,0.00,CLR,,0.00,7.0,WeatherDisplay:10.37,2013-11-25 22:56:00,
2013-11-25 16:59:00,35.1,22.6,30.16,SW,223,0.0,0.0,60,0.00,CLR,,0.00,5.0,WeatherDisplay:10.37,2013-11-25 22:59:00,
2013-11-25 17:00:00,35.0,22.5,30.16,SW,223,0.0,0.0,60,0.00,CLR,,0.00,5.0,WeatherDisplay:10.37,2013-11-25 23:00:00,
2013-11-25 17:01:00,34.9,22.8,30.16,SW,223,0.0,0.0,61,0.00,CLR,,0.00,0.0,WeatherDisplay:10.37,2013-11-25 23:01:00,
2013-11-25 17:02:00,34.9,22.8,30.16,SW,223,0.0,0.0,61,0.00,CLR,,0.00,0.0,WeatherDisplay:10.37,2013-11-25 23:02:00,
2013-11-25 17:04:00,34.7,22.6,30.16,SW,223,0.0,0.0,61,0.00,CLR,,0.00,0.0,WeatherDisplay:10.37,2013-11-25 23:04:00,
2013-11-25 17:05:00,34.7,22.6,30.16,SW,223,0.0,0.0,61,0.00,CLR,,0.00,0.0,WeatherDisplay:10.37,2013-11-25 23:05:00,
2013-11-25 17:06:00,34.6,22.5,30.16,SW,223,0.0,0.0,61,0.00,CLR,,0.00,0.0,WeatherDisplay:10.37,2013-11-25 23:06:00,
2013-11-25 17:07:00,34.5,22.4,30.16,SW,223,0.0,0.0,61,0.00,CLR,,0.00,0.0,WeatherDisplay:10.37,2013-11-25 23:07:00,
2013-11-25 17:09:00,34.3,22.6,30.16,SW,223,0.0,0.0,62,0.00,CLR,,0.00,0.0,WeatherDisplay:10.37,2013-11-25 23:09:00,
2013-11-25 17:11:00,34.3,22.6,30.16,SW,223,0.0,0.0,62,0.00,CLR,,0.00,0.0,WeatherDisplay:10.37,2013-11-25 23:11:00,
2013-11-25 17:12:00,34.2,22.5,30.16,SW,223,0.0,0.0,62,0.00,CLR,,0.00,0.0,WeatherDisplay:10.37,2013-11-25 23:12:00,
2013-11-25 17:13:00,34.2,22.5,30.16,SW,223,0.4,2.0,62,0.00,CLR,,0.00,0.0,WeatherDisplay:10.37,2013-11-25 23:13:00,
2013-11-25 17:15:00,34.0,22.3,30.17,SW,223,0.6,2.3,62,0.00,CLR,,0.00,0.0,WeatherDisplay:10.37,2013-11-25 23:15:00,
2013-11-25 17:16:00,34.0,22.3,30.17,SW,223,0.1,2.0,62,0.00,CLR,,0.00,0.0,WeatherDisplay:10.37,2013-11-25 23:16:00,
2013-11-25 17:17:00,34.0,22.7,30.17,SW,223,0.7,2.3,63,0.00,CLR,,0.00,0.0,WeatherDisplay:10.37,2013-11-25 23:17:00,
2013-11-25 17:18:00,34.0,22.7,30.17,SW,223,0.3,3.0,63,0.00,CLR,,0.00,0.0,WeatherDisplay:10.37,2013-11-25 23:18:00,
2013-11-25 17:20:00,34.0,22.7,30.17,SW,223,0.0,0.0,63,0.00,CLR,,0.00,0.0,WeatherDisplay:10.37,2013-11-25 23:20:00,
2013-11-25 17:21:00,34.0,22.7,30.17,SW,223,0.0,0.0,63,0.00,CLR,,0.00,0.0,WeatherDisplay:10.37,2013-11-25 23:21:00,
2013-11-25 17:22:00,33.9,22.6,30.17,SW,223,0.0,1.2,63,0.00,CLR,,0.00,0.0,WeatherDisplay:10.37,2013-11-25 23:22:00,
2013-11-25 17:23:00,33.9,22.6,30.17,SW,223,0.0,0.0,63,0.00,CLR,,0.00,0.0,WeatherDisplay:10.37,2013-11-25 23:23:00,
2013-11-25 17:25:00,33.8,22.5,30.17,SW,223,0.0,0.0,63,0.00,CLR,,0.00,0.0,WeatherDisplay:10.37,2013-11-25 23:25:00,
2013-11-25 17:26:00,33.7,22.4,30.17,SW,223,0.0,0.0,63,0.00,CLR,,0.00,0.0,WeatherDisplay:10.37,2013-11-25 23:26:00,
2013-11-25 17:27:00,33.7,22.8,30.17,SW,223,0.0,1.0,64,0.00,CLR,,0.00,0.0,WeatherDisplay:10.37,2013-11-25 23:27:00,
2013-11-25 17:28:00,33.7,22.8,30.17,SW,223,0.6,2.3,64,0.00,CLR,,0.00,0.0,WeatherDisplay:10.37,2013-11-25 23:28:00,
2013-11-25 17:30:00,33.7,22.8,30.17,SW,223,0.0,0.0,64,0.00,CLR,,0.00,0.0,WeatherDisplay:10.37,2013-11-25 23:30:00,
2013-11-25 17:32:00,33.7,22.8,30.17,SW,223,0.4,1.2,64,0.00,CLR,,0.00,0.0,WeatherDisplay:10.37,2013-11-25 23:32:00,
2013-11-25 17:33:00,33.7,22.8,30.17,SW,223,0.2,1.2,64,0.00,CLR,,0.00,0.0,WeatherDisplay:10.37,2013-11-25 23:33:00,
2013-11-25 17:35:00,33.7,22.8,30.17,SW,223,0.0,0.0,64,0.00,CLR,,0.00,0.0,WeatherDisplay:10.37,2013-11-25 23:35:00,
2013-11-25 17:37:00,33.6,22.7,30.17,SW,223,0.0,0.0,64,0.00,CLR,,0.00,0.0,WeatherDisplay:10.37,2013-11-25 23:37:00,
2013-11-25 17:38:00,33.5,22.6,30.17,SW,223,0.0,0.0,64,0.00,CLR,,0.00,0.0,WeatherDisplay:10.37,2013-11-25 23:38:00,
2013-11-25 17:41:00,33.4,22.5,30.17,SW,223,0.0,1.2,64,0.00,CLR,,0.00,0.0,WeatherDisplay:10.37,2013-11-25 23:41:00,
2013-11-25 17:42:00,33.3,22.8,30.18,SW,223,0.0,0.0,65,0.00,CLR,,0.00,0.0,WeatherDisplay:10.37,2013-11-25 23:42:00,
2013-11-25 17:43:00,33.2,22.7,30.17,SW,223,0.0,0.0,65,0.00,CLR,,0.00,0.0,WeatherDisplay:10.37,2013-11-25 23:43:00,
2013-11-25 17:44:00,33.2,22.7,30.17,SW,223,0.0,0.0,65,0.00,CLR,,0.00,0.0,WeatherDisplay:10.37,2013-11-25 23:44:00,
2013-11-25 17:47:00,33.0,22.5,30.17,SW,223,0.0,0.0,65,0.00,CLR,,0.00,0.0,WeatherDisplay:10.37,2013-11-25 23:47:00,
2013-11-25 17:49:00,32.9,22.4,30.18,SW,223,0.0,0.0,65,0.00,CLR,,0.00,0.0,WeatherDisplay:10.37,2013-11-25 23:49:00,
2013-11-25 17:52:00,32.7,22.6,30.18,SW,223,0.0,0.0,66,0.00,CLR,,0.00,0.0,WeatherDisplay:10.37,2013-11-25 23:52:00,
2013-11-25 17:53:00,32.7,22.6,30.18,SW,223,0.0,1.2,66,0.00,CLR,,0.00,0.0,WeatherDisplay:10.37,2013-11-25 23:53:00,
2013-11-25 17:54:00,32.6,22.5,30.18,SW,223,0.0,0.0,66,0.00,CLR,,0.00,0.0,WeatherDisplay:10.37,2013-11-25 23:54:00,
2013-11-25 17:57:00,32.5,22.4,30.18,SW,223,0.0,0.0,66,0.00,CLR,,0.00,0.0,WeatherDisplay:10.37,2013-11-25 23:57:00,
2013-11-25 17:58:00,32.4,22.7,30.18,SW,223,0.0,0.0,67,0.00,CLR,,0.00,0.0,WeatherDisplay:10.37,2013-11-25 23:58:00,
2013-11-25 17:59:00,32.3,22.6,30.18,SW,223,0.0,0.0,67,0.00,CLR,,0.00,0.0,WeatherDisplay:10.37,2013-11-25 23:59:00,
2013-11-25 18:00:00,32.3,22.6,30.18,SW,223,0.0,0.0,67,0.00,CLR,,0.00,0.0,WeatherDisplay:10.37,2013-11-26 00:00:00,
2013-11-25 18:02:00,32.2,22.5,30.18,SW,223,0.0,0.0,67,0.00,CLR,,0.00,0.0,WeatherDisplay:10.37,2013-11-26 00:02:00,
2013-11-25 18:03:00,32.2,22.5,30.18,SW,223,0.0,0.0,67,0.00,CLR,,0.00,0.0,WeatherDisplay:10.37,2013-11-26 00:03:00,
2013-11-25 18:04:00,32.0,22.3,30.18,SW,223,0.0,0.0,67,0.00,CLR,,0.00,0.0,WeatherDisplay:10.37,2013-11-26 00:04:00,
2013-11-25 18:05:00,32.0,22.6,30.18,SW,223,0.0,0.0,68,0.00,CLR,,0.00,0.0,WeatherDisplay:10.37,2013-11-26 00:05:00,
2013-11-25 18:07:00,31.9,22.5,30.18,SW,223,0.2,1.2,68,0.00,CLR,,0.00,0.0,WeatherDisplay:10.37,2013-11-26 00:07:00,
2013-11-25 18:08:00,31.9,22.5,30.18,SW,223,0.2,1.2,68,0.00,CLR,,0.00,0.0,WeatherDisplay:10.37,2013-11-26 00:08:00,
2013-11-25 18:09:00,31.9,22.5,30.18,SW,223,0.0,1.2,68,0.00,CLR,,0.00,0.0,WeatherDisplay:10.37,2013-11-26 00:09:00,
2013-11-25 18:10:00,31.9,22.5,30.19,SSW,207,0.3,0.0,68,0.00,CLR,,0.00,0.0,WeatherDisplay:10.37,2013-11-26 00:10:00,
2013-11-25 18:12:00,31.9,22.5,30.19,SSW,207,0.0,1.0,68,0.00,CLR,,0.00,0.0,WeatherDisplay:10.37,2013-11-26 00:12:00,
2013-11-25 18:13:00,31.9,22.5,30.18,SSW,207,0.0,1.2,68,0.00,CLR,,0.00,0.0,WeatherDisplay:10.37,2013-11-26 00:13:00,
2013-11-25 18:15:00,31.9,22.5,30.18,SSW,207,0.0,0.0,68,0.00,CLR,,0.00,0.0,WeatherDisplay:10.37,2013-11-26 00:15:00,
2013-11-25 18:17:00,31.9,22.5,30.19,SSW,207,0.0,0.0,68,0.00,CLR,,0.00,0.0,WeatherDisplay:10.37,2013-11-26 00:17:00,
2013-11-25 18:18:00,31.9,22.9,30.18,SSW,207,0.0,0.0,69,0.00,CLR,,0.00,0.0,WeatherDisplay:10.37,2013-11-26 00:18:00,
2013-11-25 18:19:00,31.9,22.9,30.18,SSW,207,0.0,0.0,69,0.00,CLR,,0.00,0.0,WeatherDisplay:10.37,2013-11-26 00:19:00,
2013-11-25 18:20:00,31.9,22.9,30.19,SSW,207,0.0,0.0,69,0.00,CLR,,0.00,0.0,WeatherDisplay:10.37,2013-11-26 00:20:00,
2013-11-25 18:21:00,31.9,22.9,30.19,SSW,207,0.0,0.0,69,0.00,CLR,,0.00,0.0,WeatherDisplay:10.37,2013-11-26 00:21:00,
2013-11-25 18:23:00,31.9,22.9,30.19,SSW,207,0.0,0.0,69,0.00,CLR,,0.00,0.0,WeatherDisplay:10.37,2013-11-26 00:23:00,
2013-11-25 18:24:00,31.8,22.8,30.19,SSW,207,0.0,1.2,69,0.00,CLR,,0.00,0.0,WeatherDisplay:10.37,2013-11-26 00:24:00,
2013-11-25 18:25:00,31.7,22.7,30.19,SSW,207,0.0,0.0,69,0.00,CLR,,0.00,0.0,WeatherDisplay:10.37,2013-11-26 00:25:00,
2013-11-25 18:26:00,31.7,22.7,30.19,SSW,207,0.0,0.0,69,0.00,CLR,,0.00,0.0,WeatherDisplay:10.37,2013-11-26 00:26:00,
2013-11-25 18:28:00,31.7,22.7,30.19,SSW,207,0.0,0.0,69,0.00,CLR,,0.00,0.0,WeatherDisplay:10.37,2013-11-26 00:28:00,
2013-11-25 18:29:00,31.6,22.6,30.19,SSW,207,0.0,0.0,69,0.00,CLR,,0.00,0.0,WeatherDisplay:10.37,2013-11-26 00:29:00,
2013-11-25 18:30:00,31.6,22.6,30.19,SSW,207,0.0,0.0,69,0.00,CLR,,0.00,0.0,WeatherDisplay:10.37,2013-11-26 00:30:00,
2013-11-25 18:31:00,31.6,22.6,30.19,SSW,207,0.0,0.0,69,0.00,CLR,,0.00,0.0,WeatherDisplay:10.37,2013-11-26 00:31:00,
2013-11-25 18:32:00,31.6,22.6,30.19,SSW,207,0.0,0.0,69,0.00,CLR,,0.00,0.0,WeatherDisplay:10.37,2013-11-26 00:32:00,
2013-11-25 18:33:00,31.6,22.6,30.19,SSW,207,0.0,0.0,69,0.00,CLR,,0.00,0.0,WeatherDisplay:10.37,2013-11-26 00:33:00,
2013-11-25 18:34:00,31.4,22.4,30.19,SSW,207,0.0,0.0,69,0.00,CLR,,0.00,0.0,WeatherDisplay:10.37,2013-11-26 00:34:00,
2013-11-25 18:35:00,31.4,22.4,30.19,SSW,207,0.1,0.0,69,0.00,CLR,,0.00,0.0,WeatherDisplay:10.37,2013-11-26 00:35:00,
2013-11-25 18:37:00,31.4,22.7,30.19,SSW,207,0.0,1.2,70,0.00,CLR,,0.00,0.0,WeatherDisplay:10.37,2013-11-26 00:37:00,
2013-11-25 18:38:00,31.4,22.7,30.19,SSW,207,0.0,0.0,70,0.00,CLR,,0.00,0.0,WeatherDisplay:10.37,2013-11-26 00:38:00,
2013-11-25 18:39:00,31.3,22.6,30.19,SSW,207,0.0,0.0,70,0.00,CLR,,0.00,0.0,WeatherDisplay:10.37,2013-11-26 00:39:00,
2013-11-25 18:40:00,31.3,22.6,30.19,SSW,207,0.0,0.0,70,0.00,CLR,,0.00,0.0,WeatherDisplay:10.37,2013-11-26 00:40:00,
2013-11-25 18:42:00,31.2,22.5,30.19,SSW,207,0.0,0.0,70,0.00,CLR,,0.00,0.0,WeatherDisplay:10.37,2013-11-26 00:42:00,
2013-11-25 18:43:00,31.2,22.5,30.19,SSW,207,0.0,0.0,70,0.00,CLR,,0.00,0.0,WeatherDisplay:10.37,2013-11-26 00:43:00,
2013-11-25 18:45:00,31.2,22.5,30.19,SSW,207,0.0,0.0,70,0.00,CLR,,0.00,0.0,WeatherDisplay:10.37,2013-11-26 00:45:00,
2013-11-25 18:48:00,31.1,22.5,30.19,SSW,207,0.0,1.2,70,0.00,CLR,,0.00,0.0,WeatherDisplay:10.37,2013-11-26 00:48:00,
2013-11-25 18:49:00,31.0,22.7,30.19,SSW,207,0.0,0.0,71,0.00,CLR,,0.00,0.0,WeatherDisplay:10.37,2013-11-26 00:49:00,
2013-11-25 18:50:00,31.0,22.7,30.19,SSW,207,0.0,0.0,71,0.00,CLR,,0.00,0.0,WeatherDisplay:10.37,2013-11-26 00:50:00,
2013-11-25 18:51:00,30.9,22.6,30.19,SSW,207,0.0,0.0,71,0.00,CLR,,0.00,0.0,WeatherDisplay:10.37,2013-11-26 00:51:00,
2013-11-25 18:53:00,30.7,22.4,30.19,SSW,207,0.0,0.0,71,0.00,CLR,,0.00,0.0,WeatherDisplay:10.37,2013-11-26 00:53:00,
2013-11-25 18:54:00,30.7,22.4,30.19,SSW,207,0.0,0.0,71,0.00,CLR,,0.00,0.0,WeatherDisplay:10.37,2013-11-26 00:54:00,
2013-11-25 18:55:00,30.7,22.7,30.19,SSW,207,0.0,0.0,72,0.00,CLR,,0.00,0.0,WeatherDisplay:10.37,2013-11-26 00:55:00,
2013-11-25 18:56:00,30.7,22.7,30.19,SSW,207,0.0,0.0,72,0.00,CLR,,0.00,0.0,WeatherDisplay:10.37,2013-11-26 00:56:00,
2013-11-25 18:59:00,30.6,22.6,30.19,SSW,207,0.0,0.0,72,0.00,CLR,,0.00,0.0,WeatherDisplay:10.37,2013-11-26 00:59:00,
2013-11-25 19:00:00,30.6,22.6,30.19,SSW,207,0.0,0.0,72,0.00,CLR,,0.00,0.0,WeatherDisplay:10.37,2013-11-26 01:00:00,
2013-11-25 19:01:00,30.6,22.6,30.19,SSW,207,0.0,0.0,72,0.00,CLR,,0.00,0.0,WeatherDisplay:10.37,2013-11-26 01:01:00,
2013-11-25 19:04:00,30.4,22.4,30.19,SSW,207,0.0,0.0,72,0.00,CLR,,0.00,0.0,WeatherDisplay:10.37,2013-11-26 01:04:00,
2013-11-25 19:06:00,30.2,22.6,30.19,SSW,207,0.0,0.0,73,0.00,CLR,,0.00,0.0,WeatherDisplay:10.37,2013-11-26 01:06:00,
2013-11-25 19:07:00,30.2,22.6,30.19,SSW,207,0.0,0.0,73,0.00,CLR,,0.00,0.0,WeatherDisplay:10.37,2013-11-26 01:07:00,
2013-11-25 19:09:00,30.2,22.6,30.19,SSW,207,0.0,0.0,73,0.00,CLR,,0.00,0.0,WeatherDisplay:10.37,2013-11-26 01:09:00,
2013-11-25 19:10:00,30.3,22.7,30.19,SSW,207,0.0,0.0,73,0.00,CLR,,0.00,0.0,WeatherDisplay:10.37,2013-11-26 01:10:00,
2013-11-25 19:11:00,30.3,22.7,30.19,SSW,207,0.0,1.0,73,0.00,CLR,,0.00,0.0,WeatherDisplay:10.37,2013-11-26 01:11:00,
2013-11-25 19:12:00,30.3,22.7,30.19,SSW,207,0.7,2.3,73,0.00,CLR,,0.00,0.0,WeatherDisplay:10.37,2013-11-26 01:12:00,
2013-11-25 19:14:00,30.3,22.7,30.19,SSW,207,0.0,0.0,73,0.00,CLR,,0.00,0.0,WeatherDisplay:10.37,2013-11-26 01:14:00,
2013-11-25 19:15:00,30.3,22.7,30.19,SSW,207,0.0,0.0,73,0.00,CLR,,0.00,0.0,WeatherDisplay:10.37,2013-11-26 01:15:00,
2013-11-25 19:16:00,30.3,22.7,30.19,SSW,207,0.0,0.0,73,0.00,CLR,,0.00,0.0,WeatherDisplay:10.37,2013-11-26 01:16:00,
2013-11-25 19:17:00,30.3,22.7,30.19,SSW,207,0.0,0.0,73,0.00,CLR,,0.00,0.0,WeatherDisplay:10.37,2013-11-26 01:17:00,
2013-11-25 19:19:00,30.2,22.6,30.19,SSW,207,0.0,0.0,73,0.00,CLR,,0.00,0.0,WeatherDisplay:10.37,2013-11-26 01:19:00,
2013-11-25 19:20:00,30.1,22.5,30.19,SSW,207,0.0,1.2,73,0.00,CLR,,0.00,0.0,WeatherDisplay:10.37,2013-11-26 01:20:00,
2013-11-25 19:21:00,30.1,22.8,30.20,SSW,207,0.0,1.2,74,0.00,CLR,,0.00,0.0,WeatherDisplay:10.37,2013-11-26 01:21:00,
2013-11-25 19:22:00,30.1,22.8,30.20,SSW,207,0.0,0.0,74,0.00,CLR,,0.00,0.0,WeatherDisplay:10.37,2013-11-26 01:22:00,
2013-11-25 19:24:00,30.2,22.9,30.20,SSW,207,0.0,0.0,74,0.00,CLR,,0.00,0.0,WeatherDisplay:10.37,2013-11-26 01:24:00,
2013-11-25 19:26:00,30.2,22.9,30.20,SSW,207,0.0,0.0,74,0.00,CLR,,0.00,0.0,WeatherDisplay:10.37,2013-11-26 01:26:00,
2013-11-25 19:27:00,30.2,22.9,30.20,SSW,207,0.0,0.0,74,0.00,CLR,,0.00,0.0,WeatherDisplay:10.37,2013-11-26 01:27:00,
2013-11-25 19:29:00,30.2,22.9,30.20,SSW,207,0.0,0.0,74,0.00,CLR,,0.00,0.0,WeatherDisplay:10.37,2013-11-26 01:29:00,
2013-11-25 19:30:00,30.3,23.0,30.20,SSW,207,0.0,0.0,74,0.00,CLR,,0.00,0.0,WeatherDisplay:10.37,2013-11-26 01:30:00,
2013-11-25 19:31:00,30.4,23.1,30.20,SSW,207,0.0,0.0,74,0.00,CLR,,0.00,0.0,WeatherDisplay:10.37,2013-11-26 01:31:00,
2013-11-25 19:32:00,30.5,23.2,30.20,SSW,207,0.0,0.0,74,0.00,CLR,,0.00,0.0,WeatherDisplay:10.37,2013-11-26 01:32:00,
2013-11-25 19:33:00,30.5,23.2,30.20,SSW,207,0.0,0.0,74,0.00,CLR,,0.00,0.0,WeatherDisplay:10.37,2013-11-26 01:33:00,
2013-11-25 19:34:00,30.5,23.2,30.20,SSW,207,0.0,0.0,74,0.00,CLR,,0.00,0.0,WeatherDisplay:10.37,2013-11-26 01:34:00,
2013-11-25 19:35:00,30.6,23.3,30.20,SSW,207,0.0,0.0,74,0.00,CLR,,0.00,0.0,WeatherDisplay:10.37,2013-11-26 01:35:00,
2013-11-25 19:37:00,30.5,23.2,30.20,SSW,207,0.1,1.2,74,0.00,CLR,,0.00,0.0,WeatherDisplay:10.37,2013-11-26 01:37:00,
2013-11-25 19:38:00,30.5,23.2,30.20,SSW,207,0.0,0.0,74,0.00,CLR,,0.00,0.0,WeatherDisplay:10.37,2013-11-26 01:38:00,
2013-11-25 19:39:00,30.6,23.3,30.20,SSW,207,0.0,0.0,74,0.00,CLR,,0.00,0.0,WeatherDisplay:10.37,2013-11-26 01:39:00,
2013-11-25 19:42:00,30.6,23.3,30.20,SSW,207,0.0,0.0,74,0.00,CLR,,0.00,0.0,WeatherDisplay:10.37,2013-11-26 01:42:00,
2013-11-25 19:43:00,30.5,23.2,30.20,SSW,207,0.0,0.0,74,0.00,CLR,,0.00,0.0,WeatherDisplay:10.37,2013-11-26 01:43:00,
2013-11-25 19:45:00,30.5,23.2,30.20,SSW,207,0.0,0.0,74,0.00,CLR,,0.00,0.0,WeatherDisplay:10.37,2013-11-26 01:45:00,
2013-11-25 19:47:00,30.3,23.0,30.19,SSW,207,0.0,0.0,74,0.00,CLR,,0.00,0.0,WeatherDisplay:10.37,2013-11-26 01:47:00,
2013-11-25 19:48:00,30.2,22.9,30.20,SSW,207,0.0,0.0,74,0.00,CLR,,0.00,0.0,WeatherDisplay:10.37,2013-11-26 01:48:00,
2013-11-25 19:50:00,30.2,22.9,30.20,SSW,207,0.0,0.0,74,0.00,CLR,,0.00,0.0,WeatherDisplay:10.37,2013-11-26 01:50:00,
2013-11-25 19:52:00,30.1,22.8,30.19,SSW,207,0.0,0.0,74,0.00,CLR,,0.00,0.0,WeatherDisplay:10.37,2013-11-26 01:52:00,
2013-11-25 19:53:00,30.1,22.8,30.19,SSW,207,0.0,0.0,74,0.00,CLR,,0.00,0.0,WeatherDisplay:10.37,2013-11-26 01:53:00,
2013-11-25 19:55:00,30.1,23.1,30.19,SSW,207,0.0,0.0,75,0.00,CLR,,0.00,0.0,WeatherDisplay:10.37,2013-11-26 01:55:00,
2013-11-25 19:57:00,30.0,23.0,30.19,SSW,207,0.0,0.0,75,0.00,CLR,,0.00,0.0,WeatherDisplay:10.37,2013-11-26 01:57:00,
2013-11-25 19:58:00,30.0,23.0,30.19,SSW,207,0.0,0.0,75,0.00,CLR,,0.00,0.0,WeatherDisplay:10.37,2013-11-26 01:58:00,
2013-11-25 20:00:00,30.1,23.1,30.19,SSW,207,0.0,0.0,75,0.00,CLR,,0.00,0.0,WeatherDisplay:10.37,2013-11-26 02:00:00,
2013-11-25 20:03:00,30.1,23.1,30.19,SSW,207,0.0,0.0,75,0.00,CLR,,0.00,0.0,WeatherDisplay:10.37,2013-11-26 02:03:00,
2013-11-25 20:04:00,30.0,23.0,30.19,SSW,207,0.0,0.0,75,0.00,CLR,,0.00,0.0,WeatherDisplay:10.37,2013-11-26 02:04:00,
2013-11-25 20:05:00,29.9,22.9,30.19,SSW,207,0.0,0.0,75,0.00,CLR,,0.00,0.0,WeatherDisplay:10.37,2013-11-26 02:05:00,
2013-11-25 20:08:00,29.7,22.7,30.19,SSW,207,0.0,0.0,75,0.00,CLR,,0.00,0.0,WeatherDisplay:10.37,2013-11-26 02:08:00,
2013-11-25 20:09:00,29.6,23.0,30.19,SSW,207,0.0,0.0,76,0.00,CLR,,0.00,0.0,WeatherDisplay:10.37,2013-11-26 02:09:00,
2013-11-25 20:10:00,29.5,22.9,30.19,SSW,207,0.0,0.0,76,0.00,CLR,,0.00,0.0,WeatherDisplay:10.37,2013-11-26 02:10:00,
2013-11-25 20:13:00,29.4,23.1,30.19,SSW,207,0.0,0.0,77,0.00,CLR,,0.00,0.0,WeatherDisplay:10.37,2013-11-26 02:13:00,
2013-11-25 20:14:00,29.5,23.2,30.19,SSW,207,0.0,0.0,77,0.00,CLR,,0.00,0.0,WeatherDisplay:10.37,2013-11-26 02:14:00,
2013-11-25 20:15:00,29.6,23.3,30.19,SSW,207,0.0,0.0,77,0.00,CLR,,0.00,0.0,WeatherDisplay:10.37,2013-11-26 02:15:00,
2013-11-25 20:18:00,29.5,23.2,30.19,SSW,207,0.0,0.0,77,0.00,CLR,,0.00,0.0,WeatherDisplay:10.37,2013-11-26 02:18:00,
2013-11-25 20:20:00,29.4,23.1,30.19,SSW,207,0.0,0.0,77,0.00,CLR,,0.00,0.0,WeatherDisplay:10.37,2013-11-26 02:20:00,
2013-11-25 20:21:00,29.3,23.0,30.19,SSW,207,0.0,0.0,77,0.00,CLR,,0.00,0.0,WeatherDisplay:10.37,2013-11-26 02:21:00,
2013-11-25 20:23:00,29.2,22.9,30.19,SSW,207,0.0,0.0,77,0.00,CLR,,0.00,0.0,WeatherDisplay:10.37,2013-11-26 02:23:00,
2013-11-25 20:25:00,29.2,22.9,30.19,SSW,207,0.0,0.0,77,0.00,CLR,,0.00,0.0,WeatherDisplay:10.37,2013-11-26 02:25:00,
2013-11-25 20:26:00,29.2,22.9,30.19,SSW,207,0.0,0.0,77,0.00,CLR,,0.00,0.0,WeatherDisplay:10.37,2013-11-26 02:26:00,
2013-11-25 20:28:00,29.2,22.9,30.19,SSW,207,0.0,0.0,77,0.00,CLR,,0.00,0.0,WeatherDisplay:10.37,2013-11-26 02:28:00,
2013-11-25 20:31:00,29.3,23.3,30.19,SSW,207,0.0,0.0,78,0.00,CLR,,0.00,0.0,WeatherDisplay:10.37,2013-11-26 02:31:00,
2013-11-25 20:33:00,29.3,23.0,30.18,SSW,207,0.0,0.0,77,0.00,CLR,,0.00,0.0,WeatherDisplay:10.37,2013-11-26 02:33:00,
2013-11-25 20:36:00,29.2,23.2,30.19,SSW,207,0.0,0.0,78,0.00,CLR,,0.00,0.0,WeatherDisplay:10.37,2013-11-26 02:36:00,
2013-11-25 20:37:00,29.2,22.9,30.19,SSW,207,0.0,0.0,77,0.00,CLR,,0.00,0.0,WeatherDisplay:10.37,2013-11-26 02:37:00,
2013-11-25 20:39:00,29.1,23.1,30.19,SSW,207,0.0,0.0,78,0.00,CLR,,0.00,0.0,WeatherDisplay:10.37,2013-11-26 02:39:00,
2013-11-25 20:41:00,29.0,23.0,30.18,SSW,207,0.0,0.0,78,0.00,CLR,,0.00,0.0,WeatherDisplay:10.37,2013-11-26 02:41:00,
2013-11-25 20:42:00,29.0,23.0,30.18,SSW,207,0.0,0.0,78,0.00,CLR,,0.00,0.0,WeatherDisplay:10.37,2013-11-26 02:42:00,
2013-11-25 20:44:00,28.8,22.8,30.18,SSW,207,0.0,0.0,78,0.00,CLR,,0.00,0.0,WeatherDisplay:10.37,2013-11-26 02:44:00,
2013-11-25 20:46:00,28.7,22.7,30.18,SSW,207,0.0,0.0,78,0.00,CLR,,0.00,0.0,WeatherDisplay:10.37,2013-11-26 02:46:00,
2013-11-25 20:47:00,28.7,22.7,30.18,SSW,207,0.0,0.0,78,0.00,CLR,,0.00,0.0,WeatherDisplay:10.37,2013-11-26 02:47:00,
2013-11-25 20:49:00,28.5,22.5,30.18,SSW,207,0.0,0.0,78,0.00,CLR,,0.00,0.0,WeatherDisplay:10.37,2013-11-26 02:49:00,
2013-11-25 20:52:00,28.3,22.6,30.18,SSW,207,0.0,0.0,79,0.00,CLR,,0.00,0.0,WeatherDisplay:10.37,2013-11-26 02:52:00,
2013-11-25 20:53:00,28.3,22.6,30.18,SSW,207,0.0,0.0,79,0.00,CLR,,0.00,0.0,WeatherDisplay:10.37,2013-11-26 02:53:00,
2013-11-25 20:54:00,28.3,22.6,30.18,SSW,207,0.0,0.0,79,0.00,CLR,,0.00,0.0,WeatherDisplay:10.37,2013-11-26 02:54:00,
2013-11-25 20:57:00,28.3,22.9,30.18,SSW,207,0.0,0.0,80,0.00,CLR,,0.00,0.0,WeatherDisplay:10.37,2013-11-26 02:57:00,
2013-11-25 20:58:00,28.3,22.9,30.18,SSW,207,0.0,0.0,80,0.00,CLR,,0.00,0.0,WeatherDisplay:10.37,2013-11-26 02:58:00,
2013-11-25 20:59:00,28.2,22.8,30.18,SSW,207,0.0,0.0,80,0.00,CLR,,0.00,0.0,WeatherDisplay:10.37,2013-11-26 02:59:00,
2013-11-25 21:02:00,28.1,22.7,30.18,SSW,207,0.0,0.0,80,0.00,CLR,,0.00,0.0,WeatherDisplay:10.37,2013-11-26 03:02:00,
2013-11-25 21:03:00,28.0,22.6,30.18,SSW,207,0.0,0.0,80,0.00,CLR,,0.00,0.0,WeatherDisplay:10.37,2013-11-26 03:03:00,
2013-11-25 21:04:00,28.0,22.6,30.18,SSW,207,0.0,0.0,80,0.00,CLR,,0.00,0.0,WeatherDisplay:10.37,2013-11-26 03:04:00,
2013-11-25 21:07:00,28.0,22.9,30.18,SSW,207,0.0,0.0,81,0.00,CLR,,0.00,0.0,WeatherDisplay:10.37,2013-11-26 03:07:00,
2013-11-25 21:08:00,28.0,22.9,30.18,SSW,207,0.0,0.0,81,0.00,CLR,,0.00,0.0,WeatherDisplay:10.37,2013-11-26 03:08:00,
2013-11-25 21:09:00,28.0,22.9,30.18,SSW,207,0.0,0.0,81,0.00,CLR,,0.00,0.0,WeatherDisplay:10.37,2013-11-26 03:09:00,
2013-11-25 21:12:00,28.0,22.9,30.18,SSW,207,0.0,0.0,81,0.00,CLR,,0.00,0.0,WeatherDisplay:10.37,2013-11-26 03:12:00,
2013-11-25 21:13:00,28.0,22.9,30.18,SSW,207,0.0,0.0,81,0.00,CLR,,0.00,0.0,WeatherDisplay:10.37,2013-11-26 03:13:00,
2013-11-25 21:14:00,28.0,22.9,30.17,SSW,207,0.0,0.0,81,0.00,CLR,,0.00,0.0,WeatherDisplay:10.37,2013-11-26 03:14:00,
2013-11-25 21:15:00,28.0,22.9,30.17,SSW,207,0.0,0.0,81,0.00,CLR,,0.00,0.0,WeatherDisplay:10.37,2013-11-26 03:15:00,
2013-11-25 21:18:00,27.9,23.1,30.18,SSW,207,0.0,0.0,82,0.00,CLR,,0.00,0.0,WeatherDisplay:10.37,2013-11-26 03:18:00,
2013-11-25 21:19:00,27.7,22.9,30.17,SSW,207,0.0,0.0,82,0.00,CLR,,0.00,0.0,WeatherDisplay:10.37,2013-11-26 03:19:00,
2013-11-25 21:20:00,27.7,22.9,30.17,SSW,207,0.0,0.0,82,0.00,CLR,,0.00,0.0,WeatherDisplay:10.37,2013-11-26 03:20:00,
2013-11-25 21:21:00,27.7,22.9,30.18,SSW,207,0.0,0.0,82,0.00,CLR,,0.00,0.0,WeatherDisplay:10.37,2013-11-26 03:21:00,
2013-11-25 21:23:00,27.6,22.8,30.18,SSW,207,0.0,0.0,82,0.00,CLR,,0.00,0.0,WeatherDisplay:10.37,2013-11-26 03:23:00,
2013-11-25 21:24:00,27.6,22.8,30.17,SSW,207,0.0,0.0,82,0.00,CLR,,0.00,0.0,WeatherDisplay:10.37,2013-11-26 03:24:00,
2013-11-25 21:25:00,27.5,22.7,30.18,SSW,207,0.0,0.0,82,0.00,CLR,,0.00,0.0,WeatherDisplay:10.37,2013-11-26 03:25:00,
2013-11-25 21:26:00,27.5,22.7,30.18,SSW,207,0.0,0.0,82,0.00,CLR,,0.00,0.0,WeatherDisplay:10.37,2013-11-26 03:26:00,
2013-11-25 21:29:00,27.4,22.6,30.17,SSW,207,0.0,0.0,82,0.00,CLR,,0.00,0.0,WeatherDisplay:10.37,2013-11-26 03:29:00,
2013-11-25 21:30:00,27.3,22.5,30.17,SSW,207,0.0,0.0,82,0.00,CLR,,0.00,0.0,WeatherDisplay:10.37,2013-11-26 03:30:00,
2013-11-25 21:32:00,27.3,22.5,30.17,SSW,207,0.0,0.0,82,0.00,CLR,,0.00,0.0,WeatherDisplay:10.37,2013-11-26 03:32:00,
2013-11-25 21:34:00,27.3,22.5,30.17,SSW,207,0.0,0.0,82,0.00,CLR,,0.00,0.0,WeatherDisplay:10.37,2013-11-26 03:34:00,
2013-11-25 21:35:00,27.4,22.6,30.18,SSW,207,0.0,0.0,82,0.00,CLR,,0.00,0.0,WeatherDisplay:10.37,2013-11-26 03:35:00,
2013-11-25 21:38:00,27.3,22.8,30.18,SSW,207,0.0,0.0,83,0.00,CLR,,0.00,0.0,WeatherDisplay:10.37,2013-11-26 03:38:00,
2013-11-25 21:39:00,27.3,22.8,30.18,SSW,207,0.0,0.0,83,0.00,CLR,,0.00,0.0,WeatherDisplay:10.37,2013-11-26 03:39:00,
2013-11-25 21:40:00,27.4,22.6,30.18,SSW,207,0.0,0.0,82,0.00,CLR,,0.00,0.0,WeatherDisplay:10.37,2013-11-26 03:40:00,
2013-11-25 21:41:00,27.4,22.6,30.18,SSW,207,0.0,0.0,82,0.00,CLR,,0.00,0.0,WeatherDisplay:10.37,2013-11-26 03:41:00,
2013-11-25 21:43:00,27.4,22.6,30.18,SSW,207,0.0,0.0,82,0.00,CLR,,0.00,0.0,WeatherDisplay:10.37,2013-11-26 03:43:00,
2013-11-25 21:44:00,27.4,22.9,30.18,SSW,207,0.0,0.0,83,0.00,CLR,,0.00,0.0,WeatherDisplay:10.37,2013-11-26 03:44:00,
2013-11-25 21:45:00,27.4,22.9,30.18,SSW,207,0.0,0.0,83,0.00,CLR,,0.00,0.0,WeatherDisplay:10.37,2013-11-26 03:45:00,
2013-11-25 21:46:00,27.4,22.9,30.18,SSW,207,0.0,0.0,83,0.00,CLR,,0.00,0.0,WeatherDisplay:10.37,2013-11-26 03:46:00,
2013-11-25 21:48:00,27.4,22.9,30.18,SSW,207,0.0,0.0,83,0.00,CLR,,0.00,0.0,WeatherDisplay:10.37,2013-11-26 03:48:00,
2013-11-25 21:49:00,27.4,22.9,30.18,SSW,207,0.0,0.0,83,0.00,CLR,,0.00,0.0,WeatherDisplay:10.37,2013-11-26 03:49:00,
2013-11-25 21:51:00,27.4,22.9,30.18,SSW,207,0.0,0.0,83,0.00,CLR,,0.00,0.0,WeatherDisplay:10.37,2013-11-26 03:51:00,
2013-11-25 21:52:00,27.3,23.1,30.19,SSW,207,0.0,0.0,84,0.00,CLR,,0.00,0.0,WeatherDisplay:10.37,2013-11-26 03:52:00,
2013-11-25 21:54:00,27.3,22.8,30.19,SSW,207,0.0,0.0,83,0.00,CLR,,0.00,0.0,WeatherDisplay:10.37,2013-11-26 03:54:00,
2013-11-25 21:55:00,27.2,23.0,30.19,SSW,207,0.0,0.0,84,0.00,CLR,,0.00,0.0,WeatherDisplay:10.37,2013-11-26 03:55:00,
2013-11-25 21:56:00,27.2,23.0,30.19,SSW,207,0.0,0.0,84,0.00,CLR,,0.00,0.0,WeatherDisplay:10.37,2013-11-26 03:56:00,
2013-11-25 21:57:00,27.1,22.9,30.19,SSW,207,0.0,0.0,84,0.00,CLR,,0.00,0.0,WeatherDisplay:10.37,2013-11-26 03:57:00,
2013-11-25 21:59:00,27.1,22.9,30.19,SSW,207,0.0,0.0,84,0.00,CLR,,0.00,0.0,WeatherDisplay:10.37,2013-11-26 03:59:00,
2013-11-25 22:00:00,27.0,22.8,30.19,SSW,207,0.0,0.0,84,0.00,CLR,,0.00,0.0,WeatherDisplay:10.37,2013-11-26 04:00:00,
2013-11-25 22:01:00,27.0,22.8,30.19,SSW,207,0.0,0.0,84,0.00,CLR,,0.00,0.0,WeatherDisplay:10.37,2013-11-26 04:01:00,
2013-11-25 22:02:00,26.9,22.7,30.19,SSW,207,0.0,0.0,84,0.00,CLR,,0.00,0.0,WeatherDisplay:10.37,2013-11-26 04:02:00,
2013-11-25 22:04:00,26.9,22.7,30.19,SSW,207,0.0,0.0,84,0.00,CLR,,0.00,0.0,WeatherDisplay:10.37,2013-11-26 04:04:00,
2013-11-25 22:05:00,26.9,22.7,30.19,SSW,207,0.0,0.0,84,0.00,CLR,,0.00,0.0,WeatherDisplay:10.37,2013-11-26 04:05:00,
2013-11-25 22:06:00,26.9,22.7,30.19,SSW,207,0.0,0.0,84,0.00,CLR,,0.00,0.0,WeatherDisplay:10.37,2013-11-26 04:06:00,
2013-11-25 22:07:00,26.9,22.7,30.19,SSW,207,0.0,0.0,84,0.00,CLR,,0.00,0.0,WeatherDisplay:10.37,2013-11-26 04:07:00,
2013-11-25 22:09:00,26.9,22.7,30.19,SSW,207,0.0,0.0,84,0.00,CLR,,0.00,0.0,WeatherDisplay:10.37,2013-11-26 04:09:00,
2013-11-25 22:10:00,26.9,23.0,30.19,SSW,207,0.0,0.0,85,0.00,CLR,,0.00,0.0,WeatherDisplay:10.37,2013-11-26 04:10:00,
2013-11-25 22:12:00,26.9,23.0,30.19,SSW,207,0.0,0.0,85,0.00,CLR,,0.00,0.0,WeatherDisplay:10.37,2013-11-26 04:12:00,
2013-11-25 22:13:00,26.9,23.0,30.19,SSW,207,0.0,0.0,85,0.00,CLR,,0.00,0.0,WeatherDisplay:10.37,2013-11-26 04:13:00,
2013-11-25 22:14:00,26.9,23.0,30.19,SSW,207,0.0,0.0,85,0.00,CLR,,0.00,0.0,WeatherDisplay:10.37,2013-11-26 04:14:00,
2013-11-25 22:15:00,26.9,23.0,30.19,SSW,207,0.0,0.0,85,0.00,CLR,,0.00,0.0,WeatherDisplay:10.37,2013-11-26 04:15:00,
2013-11-25 22:17:00,26.8,22.6,30.19,SSW,207,0.0,0.0,84,0.00,CLR,,0.00,0.0,WeatherDisplay:10.37,2013-11-26 04:17:00,
2013-11-25 22:18:00,26.7,22.5,30.19,SSW,207,0.0,0.0,84,0.00,CLR,,0.00,0.0,WeatherDisplay:10.37,2013-11-26 04:18:00,
2013-11-25 22:19:00,26.6,22.4,30.19,SSW,207,0.0,0.0,84,0.00,CLR,,0.00,0.0,WeatherDisplay:10.37,2013-11-26 04:19:00,
2013-11-25 22:20:00,26.6,22.4,30.19,SSW,207,0.0,0.0,84,0.00,CLR,,0.00,0.0,WeatherDisplay:10.37,2013-11-26 04:20:00,
2013-11-25 22:21:00,26.6,22.4,30.19,SSW,207,0.0,0.0,84,0.00,CLR,,0.00,0.0,WeatherDisplay:10.37,2013-11-26 04:21:00,
2013-11-25 22:22:00,26.5,22.6,30.19,SSW,207,0.0,0.0,85,0.00,CLR,,0.00,0.0,WeatherDisplay:10.37,2013-11-26 04:22:00,
2013-11-25 22:24:00,26.5,22.6,30.19,SSW,207,0.0,0.0,85,0.00,CLR,,0.00,0.0,WeatherDisplay:10.37,2013-11-26 04:24:00,
2013-11-25 22:25:00,26.5,22.6,30.19,SSW,207,0.0,0.0,85,0.00,CLR,,0.00,0.0,WeatherDisplay:10.37,2013-11-26 04:25:00,
2013-11-25 22:26:00,26.4,22.5,30.19,SSW,207,0.0,0.0,85,0.00,CLR,,0.00,0.0,WeatherDisplay:10.37,2013-11-26 04:26:00,
2013-11-25 22:27:00,26.3,22.4,30.19,SSW,207,0.0,0.0,85,0.00,CLR,,0.00,0.0,WeatherDisplay:10.37,2013-11-26 04:27:00,
2013-11-25 22:28:00,26.3,22.7,30.19,SSW,207,0.0,0.0,86,0.00,CLR,,0.00,0.0,WeatherDisplay:10.37,2013-11-26 04:28:00,
2013-11-25 22:29:00,26.3,22.7,30.19,SSW,207,0.0,0.0,86,0.00,CLR,,0.00,0.0,WeatherDisplay:10.37,2013-11-26 04:29:00,
2013-11-25 22:30:00,26.2,22.6,30.19,SSW,207,0.0,0.0,86,0.00,CLR,,0.00,0.0,WeatherDisplay:10.37,2013-11-26 04:30:00,
2013-11-25 22:31:00,26.2,22.6,30.19,SSW,207,0.0,0.0,86,0.00,CLR,,0.00,0.0,WeatherDisplay:10.37,2013-11-26 04:31:00,
2013-11-25 22:33:00,26.1,22.5,30.19,SSW,207,0.0,0.0,86,0.00,CLR,,0.00,0.0,WeatherDisplay:10.37,2013-11-26 04:33:00,
2013-11-25 22:34:00,26.0,22.4,30.19,SSW,207,0.0,0.0,86,0.00,CLR,,0.00,0.0,WeatherDisplay:10.37,2013-11-26 04:34:00,
2013-11-25 22:36:00,25.9,22.3,30.19,SSW,207,0.0,0.0,86,0.00,CLR,,0.00,0.0,WeatherDisplay:10.37,2013-11-26 04:36:00,
2013-11-25 22:38:00,25.8,22.2,30.19,SSW,207,0.0,0.0,86,0.00,CLR,,0.00,0.0,WeatherDisplay:10.37,2013-11-26 04:38:00,
2013-11-25 22:39:00,25.8,22.2,30.19,SSW,207,0.0,0.0,86,0.00,CLR,,0.00,0.0,WeatherDisplay:10.37,2013-11-26 04:39:00,
2013-11-25 22:41:00,25.7,22.1,30.19,SSW,207,0.0,0.0,86,0.00,CLR,,0.00,0.0,WeatherDisplay:10.37,2013-11-26 04:41:00,
2013-11-25 22:42:00,25.7,22.4,30.19,SSW,207,0.0,0.0,87,0.00,CLR,,0.00,0.0,WeatherDisplay:10.37,2013-11-26 04:42:00,
2013-11-25 22:43:00,25.7,22.4,30.19,SSW,207,0.0,0.0,87,0.00,CLR,,0.00,0.0,WeatherDisplay:10.37,2013-11-26 04:43:00,
2013-11-25 22:44:00,25.7,22.4,30.18,SSW,207,0.0,0.0,87,0.00,CLR,,0.00,0.0,WeatherDisplay:10.37,2013-11-26 04:44:00,
2013-11-25 22:45:00,25.7,22.4,30.19,SSW,207,0.0,0.0,87,0.00,CLR,,0.00,0.0,WeatherDisplay:10.37,2013-11-26 04:45:00,
2013-11-25 22:46:00,25.7,22.4,30.19,SSW,207,0.0,0.0,87,0.00,CLR,,0.00,0.0,WeatherDisplay:10.37,2013-11-26 04:46:00,
2013-11-25 22:47:00,25.7,22.4,30.19,SSW,207,0.0,0.0,87,0.00,CLR,,0.00,0.0,WeatherDisplay:10.37,2013-11-26 04:47:00,
2013-11-25 22:48:00,25.7,22.4,30.19,SSW,207,0.0,0.0,87,0.00,CLR,,0.00,0.0,WeatherDisplay:10.37,2013-11-26 04:48:00,
2013-11-25 22:49:00,25.7,22.4,30.18,SSW,207,0.0,0.0,87,0.00,CLR,,0.00,0.0,WeatherDisplay:10.37,2013-11-26 04:49:00,
2013-11-25 22:50:00,25.7,22.4,30.19,SSW,207,0.0,0.0,87,0.00,CLR,,0.00,0.0,WeatherDisplay:10.37,2013-11-26 04:50:00,
2013-11-25 22:51:00,25.8,22.5,30.19,SSW,207,0.0,0.0,87,0.00,CLR,,0.00,0.0,WeatherDisplay:10.37,2013-11-26 04:51:00,
2013-11-25 22:52:00,25.8,22.5,30.19,SSW,207,0.0,0.0,87,0.00,CLR,,0.00,0.0,WeatherDisplay:10.37,2013-11-26 04:52:00,
2013-11-25 22:53:00,25.8,22.5,30.19,SSW,207,0.0,0.0,87,0.00,CLR,,0.00,0.0,WeatherDisplay:10.37,2013-11-26 04:53:00,
2013-11-25 22:54:00,25.9,22.6,30.19,SSW,207,0.0,0.0,87,0.00,CLR,,0.00,0.0,WeatherDisplay:10.37,2013-11-26 04:54:00,
2013-11-25 22:55:00,25.9,22.6,30.19,SSW,207,0.0,0.0,87,0.00,CLR,,0.00,0.0,WeatherDisplay:10.37,2013-11-26 04:55:00,
2013-11-25 22:56:00,25.8,22.5,30.19,SSW,207,0.0,0.0,87,0.00,CLR,,0.00,0.0,WeatherDisplay:10.37,2013-11-26 04:56:00,
2013-11-25 22:57:00,25.9,22.6,30.19,SSW,207,0.0,0.0,87,0.00,CLR,,0.00,0.0,WeatherDisplay:10.37,2013-11-26 04:57:00,
2013-11-25 22:58:00,25.8,22.5,30.18,SSW,207,0.0,0.0,87,0.00,CLR,,0.00,0.0,WeatherDisplay:10.37,2013-11-26 04:58:00,
2013-11-25 23:00:00,25.8,22.5,30.18,SSW,207,0.0,0.0,87,0.00,CLR,,0.00,0.0,WeatherDisplay:10.37,2013-11-26 05:00:00,
2013-11-25 23:01:00,25.8,22.5,30.18,SSW,207,0.0,0.0,87,0.00,CLR,,0.00,0.0,WeatherDisplay:10.37,2013-11-26 05:01:00,
2013-11-25 23:02:00,25.7,22.4,30.19,SSW,207,0.0,0.0,87,0.00,CLR,,0.00,0.0,WeatherDisplay:10.37,2013-11-26 05:02:00,
2013-11-25 23:04:00,25.8,22.5,30.19,SSW,207,0.0,0.0,87,0.00,CLR,,0.00,0.0,WeatherDisplay:10.37,2013-11-26 05:04:00,
2013-11-25 23:06:00,25.7,22.4,30.18,SSW,207,0.0,0.0,87,0.00,CLR,,0.00,0.0,WeatherDisplay:10.37,2013-11-26 05:06:00,
2013-11-25 23:07:00,25.7,22.4,30.18,SSW,207,0.0,0.0,87,0.00,CLR,,0.00,0.0,WeatherDisplay:10.37,2013-11-26 05:07:00,
2013-11-25 23:09:00,25.6,22.3,30.18,SSW,207,0.0,0.0,87,0.00,CLR,,0.00,0.0,WeatherDisplay:10.37,2013-11-26 05:09:00,
2013-11-25 23:11:00,25.6,22.3,30.18,SSW,207,0.0,0.0,87,0.00,CLR,,0.00,0.0,WeatherDisplay:10.37,2013-11-26 05:11:00,
2013-11-25 23:12:00,25.6,22.3,30.18,SSW,207,0.0,0.0,87,0.00,CLR,,0.00,0.0,WeatherDisplay:10.37,2013-11-26 05:12:00,
2013-11-25 23:16:00,25.4,22.1,30.18,SSW,207,0.0,0.0,87,0.00,CLR,,0.00,0.0,WeatherDisplay:10.37,2013-11-26 05:16:00,
2013-11-25 23:17:00,25.4,22.1,30.18,SSW,207,0.0,0.0,87,0.00,CLR,,0.00,0.0,WeatherDisplay:10.37,2013-11-26 05:17:00,
2013-11-25 23:21:00,25.2,22.1,30.18,SSW,207,0.0,0.0,88,0.00,CLR,,0.00,0.0,WeatherDisplay:10.37,2013-11-26 05:21:00,
2013-11-25 23:22:00,25.2,22.1,30.18,SSW,207,0.0,0.0,88,0.00,CLR,,0.00,0.0,WeatherDisplay:10.37,2013-11-26 05:22:00,
2013-11-25 23:26:00,25.2,22.1,30.18,SSW,207,0.0,0.0,88,0.00,CLR,,0.00,0.0,WeatherDisplay:10.37,2013-11-26 05:26:00,
2013-11-25 23:27:00,25.2,22.1,30.18,SSW,207,0.0,0.0,88,0.00,CLR,,0.00,0.0,WeatherDisplay:10.37,2013-11-26 05:27:00,
2013-11-25 23:28:00,25.2,22.1,30.18,SSW,207,0.0,0.0,88,0.00,CLR,,0.00,0.0,WeatherDisplay:10.37,2013-11-26 05:28:00,
2013-11-25 23:32:00,25.1,22.0,30.18,SSW,207,0.0,0.0,88,0.00,CLR,,0.00,0.0,WeatherDisplay:10.37,2013-11-26 05:32:00,
2013-11-25 23:33:00,25.0,21.9,30.18,SSW,207,0.0,0.0,88,0.00,CLR,,0.00,0.0,WeatherDisplay:10.37,2013-11-26 05:33:00,
2013-11-25 23:37:00,24.9,21.8,30.18,SSW,207,0.0,0.0,88,0.00,CLR,,0.00,0.0,WeatherDisplay:10.37,2013-11-26 05:37:00,
2013-11-25 23:38:00,24.9,21.8,30.18,SSW,207,0.0,0.0,88,0.00,CLR,,0.00,0.0,WeatherDisplay:10.37,2013-11-26 05:38:00,
2013-11-25 23:39:00,24.8,21.8,30.18,SSW,207,0.0,0.0,88,0.00,CLR,,0.00,0.0,WeatherDisplay:10.37,2013-11-26 05:39:00,
2013-11-25 23:42:00,24.7,21.7,30.18,SSW,207,0.0,0.0,88,0.00,CLR,,0.00,0.0,WeatherDisplay:10.37,2013-11-26 05:42:00,
2013-11-25 23:43:00,24.8,22.0,30.18,SSW,207,0.0,0.0,89,0.00,CLR,,0.00,0.0,WeatherDisplay:10.37,2013-11-26 05:43:00,
2013-11-25 23:44:00,24.7,21.9,30.18,SSW,207,0.0,0.0,89,0.00,CLR,,0.00,0.0,WeatherDisplay:10.37,2013-11-26 05:44:00,
2013-11-25 23:47:00,24.8,22.0,30.18,SSW,207,0.0,0.0,89,0.00,CLR,,0.00,0.0,WeatherDisplay:10.37,2013-11-26 05:47:00,
2013-11-25 23:48:00,24.8,22.0,30.18,SSW,207,0.0,0.0,89,0.00,CLR,,0.00,0.0,WeatherDisplay:10.37,2013-11-26 05:48:00,
2013-11-25 23:49:00,24.8,22.0,30.18,SSW,207,0.0,0.0,89,0.00,CLR,,0.00,0.0,WeatherDisplay:10.37,2013-11-26 05:49:00,
2013-11-25 23:53:00,25.4,22.9,30.18,SSW,207,0.3,2.3,90,0.00,CLR,,0.00,0.0,WeatherDisplay:10.37,2013-11-26 05:53:00,
2013-11-25 23:55:00,25.7,23.2,30.18,WNW,284,0.5,3.5,90,0.00,CLR,,0.00,0.0,WeatherDisplay:10.37,2013-11-26 05:55:00,
2013-11-25 23:58:00,25.9,23.4,30.18,WNW,284,0.0,0.0,90,0.00,CLR,,0.00,0.0,WeatherDisplay:10.37,2013-11-26 05:58:00,
2013-11-25 23:59:00,26.0,23.2,30.18,WNW,284,0.0,0.0,89,0.00,CLR,,0.00,0.0,WeatherDisplay:10.37,2013-11-26 05:59:00,